[[{"header":{"parameterUnit":"m.s-1","parameterCategory":1,"la1":31.0,"la2":29.5877,"lo1":-88.7671,"lo2":-86.6584,"dy":0.0162,"dx":0.0185,"nx":115,"ny":88,"refTime":"2024-06-16T18:00:00:Z","depth":0,"parameterNumber":2,"parameterNumberName":"U-component_of_WINDS"},"data":[0.0,0.0,0.0,0.0,0.0,0.0,0.0,0.0,0.0,0.0,0.0,0.0,0.0,0.0,0.0,0.0,0.0,0.0,0.0,0.0,0.0,0.0,0.0,0.0,0.0,0.0,0.0,0.0,0.0,0.0,0.0,0.0,0.0,0.0,0.0,0.0,0.0,0.0,0.0,0.0,0.0,0.0,0.0,0.0,0.0,0.0,0.0,0.0,0.0,0.0,0.0,0.0,0.0,0.0,0.0,0.0,0.0,0.0,0.0,0.0,0.0,0.0,0.0,0.0,0.0,0.0,0.0,0.0,0.0,0.0,0.0,0.0,0.0,0.0,0.0,0.0,0.0,0.0,0.0,0.0,0.0,0.0,0.0,0.0,0.0,0.0,0.0,0.0,0.0,0.0,0.0,0.0,0.0,0.0,0.0,0.0,0.0,0.0,0.0,0.0,0.0,0.0,0.0,0.0,0.0,0.0,0.0,0.0,0.0,0.0,0.0,0.0,0.0,0.0,0.0,0.0,0.0,0.0,0.0,0.0,0.0,0.0,0.0,0.0,0.0,0.0,0.0,0.0,0.0,0.0,0.0,0.0,0.0,0.0,0.0,0.0,0.0,0.0,0.0,0.0,0.0,0.0,0.0,0.0,0.0,0.0,0.0,0.0,0.0,0.0,0.0,0.0,0.0,0.0,0.0,0.0,0.0,0.0,0.0,0.0,0.0,0.0,0.0,0.0,0.0,0.0,0.0,0.0,0.0,0.0,0.0,0.0,0.0,0.0,0.0,0.0,0.0,0.0,0.0,0.0,0.0,0.0,0.0,0.0,0.0,0.0,0.0,0.0,0.0,0.0,0.0,0.0,0.0,0.0,0.0,0.0,0.0,0.0,0.0,0.0,0.0,0.0,0.0,0.0,0.0,0.0,0.0,0.0,0.0,0.0,0.0,0.0,0.0,0.0,0.0,0.0,0.0,0.0,0.0,0.0,0.0,0.0,0.0,0.0,0.0,0.0,0.0,0.0,0.0,0.0,0.0,0.0,0.0,0.0,0.0,0.0,0.0,0.0,0.0,0.0,0.0,0.0,0.0,0.0,0.0,0.0,0.0,0.0,0.0,0.0,0.0,0.0,0.0,0.0,0.0,0.0,0.0,0.0,0.0,0.0,0.0,0.0,0.0,0.0,0.0,0.0,0.0,0.0,0.0,0.0,0.0,0.0,0.0,0.0,0.0,0.0,0.0,0.0,0.0,0.0,0.0,0.0,0.0,0.0,0.0,0.0,0.0,0.0,0.0,0.0,0.0,0.0,0.0,0.0,0.0,0.0,0.0,0.0,0.0,0.0,0.0,0.0,0.0,0.0,0.0,0.0,0.0,0.0,0.0,0.0,0.0,0.0,0.0,0.0,0.0,0.0,0.0,0.0,0.0,0.0,0.0,0.0,0.0,0.0,0.0,0.0,0.0,0.0,0.0,0.0,0.0,0.0,0.0,0.0,0.0,0.0,0.0,0.0,0.0,0.0,0.0,0.0,0.0,0.0,0.0,0.0,0.0,0.0,0.0,0.0,0.0,0.0,0.0,0.0,0.0,0.0,0.0,0.0,0.0,0.0,0.0,0.0,0.0,0.0,0.0,0.0,0.0,0.0,0.0,0.0,0.0,0.0,0.0,0.0,0.0,0.0,0.0,0.0,0.0,0.0,0.0,0.0,0.0,0.0,0.0,0.0,0.0,0.0,0.0,0.0,0.0,0.0,0.0,0.0,0.0,0.0,0.0,0.0,0.0,0.0,0.0,0.0,0.0,0.0,0.0,0.0,0.0,0.0,0.0,0.0,0.0,0.0,0.0,0.0,0.0,0.0,0.0,0.0,0.0,0.0,0.0,0.0,0.0,0.0,0.0,0.0,0.0,0.0,0.0,0.0,0.0,0.0,0.0,0.0,0.0,0.0,0.0,0.0,0.0,0.0,0.0,0.0,0.0,0.0,0.0,0.0,0.0,0.0,0.0,0.0,0.0,0.0,0.0,0.0,0.0,0.0,0.0,0.0,0.0,0.0,0.0,0.0,0.0,0.0,0.0,0.0,0.0,0.0,0.0,0.0,0.0,0.0,0.0,0.0,0.0,0.0,0.0,0.0,0.0,0.0,0.0,0.0,0.0,0.0,0.0,0.0,0.0,0.0,0.0,0.0,0.0,0.0,0.0,0.0,0.0,0.0,0.0,0.0,0.0,0.0,0.0,0.0,0.0,0.0,0.0,0.0,0.0,0.0,0.0,0.0,0.0,0.0,0.0,0.0,0.0,0.0,0.0,0.0,0.0,0.0,0.0,0.0,0.0,0.0,0.0,0.0,0.0,0.0,0.0,0.0,0.0,0.0,0.0,0.0,0.0,0.0,0.0,0.0,0.0,0.0,0.0,0.0,0.0,0.0,0.0,0.0,0.0,0.0,0.0,0.0,0.0,0.0,0.0,0.0,0.0,0.0,0.0,0.0,0.0,0.0,0.0,0.0,0.0,0.0,0.0,0.0,0.0,0.0,0.0,0.0,0.0,0.0,0.0,0.0,0.0,0.0,0.0,0.0,0.0,0.0,0.0,0.0,0.0,0.0,0.0,0.0,0.0,0.0,0.0,0.0,0.0,0.0,0.0,0.0,0.0,0.0,0.0,0.0,0.0,0.0,0.0,0.0,0.0,0.0,0.0,0.0,0.0,0.0,0.0,0.0,0.0,0.0,0.0,0.0,0.0,0.0,0.0,0.0,0.0,0.0,0.0,0.0,0.0,0.0,0.0,0.0,0.0,0.0,0.0,0.0,0.0,0.0,0.0,0.0,0.0,0.0,0.0,0.0,0.0,0.0,0.0,0.0,0.0,0.0,0.0,0.0,0.0,0.0,0.0,0.0,0.0,0.0,0.0,0.0,0.0,0.0,0.0,0.0,0.0,0.0,0.0,0.0,0.0,0.0,0.0,0.0,0.0,0.0,0.0,0.0,0.0,0.0,0.0,0.0,0.0,0.0,0.0,0.0,0.0,0.0,0.0,0.0,0.0,0.0,0.0,0.0,0.0,0.0,0.0,0.0,0.0,0.0,0.0,0.0,0.0,0.0,0.0,0.0,0.0,0.0,0.0,0.0,0.0,0.0,0.0,0.0,0.0,0.0,0.0,0.0,0.0,0.0,0.0,0.0,0.0,0.0,0.0,0.0,0.0,0.0,0.0,0.0,0.0,0.0,0.0,0.0,0.0,0.0,0.0,0.0,0.0,0.0,0.0,0.0,0.0,0.0,0.0,0.0,0.0,0.0,0.0,0.0,0.0,0.0,0.0,0.0,0.0,0.0,0.0,0.0,0.0,0.0,0.0,0.0,0.0,0.0,0.0,0.0,0.0,0.0,0.0,0.0,0.0,0.0,0.0,0.0,0.0,0.0,0.0,0.0,0.0,0.0,0.0,0.0,0.0,0.0,0.0,0.0,0.0,0.0,0.0,0.0,0.0,0.0,0.0,0.0,0.0,0.0,0.0,0.0,0.0,0.0,0.0,0.0,0.0,0.0,0.0,0.0,0.0,0.0,0.0,0.0,0.0,0.0,0.0,0.0,0.0,0.0,0.0,0.0,0.0,0.0,0.0,0.0,0.0,0.0,0.0,0.0,0.0,0.0,0.0,0.0,0.0,0.0,0.0,0.0,0.0,0.0,0.0,0.0,0.0,0.0,0.0,0.0,0.0,0.0,0.0,0.0,0.0,0.0,0.0,0.0,0.0,0.0,0.0,0.0,0.0,0.0,0.0,0.0,0.0,0.0,0.0,0.0,0.0,0.0,0.0,0.0,0.0,0.0,0.0,0.0,0.0,0.0,0.0,0.0,0.0,0.0,0.0,0.0,0.0,0.0,0.0,0.0,0.0,0.0,0.0,0.0,0.0,0.0,0.0,0.0,0.0,0.0,0.0,0.0,0.0,0.0,0.0,0.0,0.0,0.0,0.0,0.0,0.0,0.0,0.0,0.0,0.0,0.0,0.0,0.0,0.0,0.0,0.0,0.0,0.0,0.0,0.0,0.0,0.0,0.0,0.0,0.0,0.0,0.0,0.0,0.0,0.0,0.0,0.0,0.0,0.0,0.0,0.0,0.0,0.0,0.0,0.0,0.0,0.0,0.0,0.0,0.0,0.0,0.0,0.0,0.0,0.0,0.0,0.0,0.0,0.0,0.0,0.0,0.0,0.0,0.0,0.0,0.0,0.0,0.0,0.0,0.0,0.0,0.0,0.0,0.0,0.0,0.0,0.0,0.0,0.0,0.0,0.0,0.0,-0.6221,0.0,0.0,0.0,0.0,0.0,0.0,0.0,0.0,0.0,0.0,0.0,0.0,0.0,0.0,0.0,0.0,0.0,0.0,0.0,0.0,0.0,0.0,0.0,0.0,0.0,0.0,0.0,0.0,0.0,0.0,0.0,0.0,0.0,0.0,0.0,0.0,0.0,0.0,0.0,0.0,0.0,0.0,0.0,0.0,0.0,0.0,0.0,0.0,0.0,0.0,0.0,0.0,0.0,0.0,0.0,0.0,0.0,0.0,0.0,0.0,0.0,0.0,0.0,0.0,0.0,0.0,0.0,0.0,0.0,0.0,0.0,0.0,0.0,0.0,0.0,0.0,0.0,0.0,0.0,0.0,0.0,0.0,0.0,0.0,0.0,0.0,0.0,0.0,0.0,0.0,0.0,0.0,0.0,0.0,0.0,0.0,0.0,0.0,0.0,0.0,0.0,0.0,0.0,0.0,0.0,0.0,0.0,0.0,0.0,0.0,-0.77,-0.7852,-0.7186,-0.6712,-0.639,0.0,0.0,0.0,0.0,0.0,0.0,0.0,0.0,0.0,0.0,0.0,0.0,0.0,0.0,0.0,0.0,0.0,0.0,0.0,0.0,0.0,0.0,0.0,0.0,0.0,0.0,0.0,0.0,0.0,0.0,0.0,0.0,0.0,0.0,0.0,0.0,0.0,0.0,0.0,0.0,0.0,0.0,0.0,0.0,0.0,0.0,0.0,0.0,0.0,0.0,0.0,0.0,0.0,0.0,0.0,0.0,0.0,0.0,0.0,0.0,0.0,0.0,0.0,0.0,0.0,0.0,0.0,0.0,0.0,0.0,0.0,0.0,0.0,0.0,0.0,0.0,0.0,0.0,0.0,0.0,0.0,0.0,0.0,0.0,0.0,0.0,0.0,0.0,0.0,0.0,0.0,0.0,0.0,0.0,0.0,0.0,0.0,0.0,0.0,0.0,0.0,0.0,0.0,0.0,0.0,0.0,0.0,0.0,0.0,0.0,0.0,0.0,-0.8134,-0.7399,-0.6848,0.0,0.0,0.0,0.0,0.0,0.0,0.0,0.0,0.0,0.0,0.0,0.0,0.0,0.0,0.0,0.0,0.0,0.0,0.0,0.0,0.0,0.0,0.0,0.0,0.0,0.0,0.0,0.0,0.0,0.0,0.0,0.0,0.0,0.0,0.0,0.0,0.0,0.0,0.0,0.0,0.0,0.0,0.0,0.0,0.0,0.0,0.0,0.0,0.0,0.0,0.0,0.0,0.0,0.0,0.0,0.0,0.0,0.0,0.0,0.0,0.0,0.0,0.0,0.0,0.0,0.0,0.0,0.0,0.0,0.0,0.0,0.0,0.0,0.0,0.0,0.0,0.0,0.0,0.0,0.0,0.0,0.0,0.0,0.0,0.0,0.0,0.0,0.0,0.0,0.0,0.0,0.0,0.0,0.0,0.0,0.0,0.0,0.0,0.0,0.0,0.0,0.0,0.0,0.0,0.0,0.0,0.0,0.0,0.0,0.0,-0.9519,-1.0358,-1.0128,0.0,-0.8737,0.0,0.0,0.0,0.0,0.0,0.0,0.0,0.0,0.0,0.0,0.0,0.0,0.0,0.0,0.0,0.0,0.0,0.0,0.0,0.0,0.0,0.0,0.0,0.0,0.0,0.0,0.0,0.0,0.0,0.0,0.0,0.0,0.0,0.0,0.0,0.0,0.0,0.0,0.0,0.0,0.0,0.0,0.0,0.0,0.0,0.0,0.0,0.0,0.0,0.0,0.0,0.0,0.0,0.0,0.0,0.0,0.0,0.0,0.0,0.0,0.0,0.0,0.0,0.0,0.0,0.0,0.0,0.0,0.0,0.0,0.0,0.0,0.0,0.0,0.0,0.0,0.0,0.0,0.0,0.0,0.0,0.0,0.0,0.0,0.0,0.0,0.0,0.0,0.0,0.0,0.0,0.0,0.0,0.0,0.0,0.0,0.0,0.0,0.0,0.0,0.0,0.0,0.0,0.0,0.0,0.0,0.0,0.0,0.0,0.0,-0.993,-1.0576,-0.9973,-0.9418,0.0,0.0,0.0,0.0,0.0,0.0,0.0,0.0,0.0,0.0,0.0,0.0,0.0,0.0,0.0,0.0,0.0,0.0,0.0,0.0,0.0,0.0,0.0,0.0,0.0,0.0,0.0,0.0,0.0,0.0,0.0,0.0,0.0,0.0,0.0,0.0,0.0,0.0,0.0,0.0,0.0,0.0,0.0,0.0,0.0,0.0,0.0,0.0,0.0,0.0,0.0,0.0,0.0,0.0,0.0,0.0,0.0,0.0,0.0,0.0,0.0,0.0,0.0,0.0,0.0,0.0,0.0,0.0,0.0,0.0,0.0,0.0,0.0,0.0,0.0,0.0,0.0,0.0,0.0,0.0,0.0,0.0,0.0,0.0,0.0,0.0,0.0,0.0,0.0,0.0,0.0,0.0,0.0,0.0,0.0,0.0,0.0,0.0,0.0,0.0,0.0,0.0,0.0,0.0,0.0,0.0,0.0,0.0,0.0,0.0,-1.0113,0.0,-1.067,-1.0248,-0.9665,-0.8917,0.0,0.0,0.0,0.0,0.0,0.0,0.0,0.0,0.0,0.0,0.0,0.0,0.0,0.0,0.0,0.0,0.0,0.0,0.0,0.0,0.0,0.0,0.0,0.0,0.0,0.0,0.0,0.0,0.0,0.0,0.0,0.0,0.0,0.0,0.0,0.0,0.0,0.0,0.0,0.0,0.0,0.0,0.0,0.0,0.0,0.0,0.0,0.0,0.0,0.0,0.0,0.0,0.0,0.0,0.0,0.0,0.0,0.0,0.0,0.0,0.0,0.0,0.0,0.0,0.0,0.0,0.0,0.0,0.0,0.0,0.0,0.0,0.0,0.0,0.0,0.0,0.0,0.0,0.0,0.0,0.0,0.0,0.0,0.0,0.0,0.0,0.0,0.0,0.0,0.0,0.0,0.0,0.0,0.0,0.0,0.0,0.0,0.0,0.0,0.0,0.0,0.0,0.0,0.0,0.0,0.0,0.0,0.0,0.0,-1.0904,-1.0767,-1.1033,-1.1631,-1.1008,0.0,0.0,0.0,0.0,0.0,0.0,0.0,0.0,0.0,0.0,0.0,0.0,0.0,0.0,0.0,0.0,0.0,0.0,0.0,0.0,0.0,0.0,0.0,0.0,0.0,0.0,0.0,0.0,0.0,0.0,0.0,0.0,0.0,0.0,0.0,0.0,0.0,0.0,0.0,0.0,0.0,0.0,0.0,0.0,0.0,0.0,0.0,0.0,0.0,0.0,0.0,0.0,0.0,0.0,0.0,0.0,0.0,0.0,0.0,0.0,0.0,0.0,0.0,0.0,0.0,0.0,0.0,0.0,0.0,0.0,0.0,0.0,0.0,0.0,0.0,0.0,0.0,0.0,0.0,0.0,0.0,0.0,0.0,0.0,0.0,0.0,0.0,0.0,0.0,0.0,0.0,0.0,0.0,0.0,0.0,0.0,0.0,0.0,0.0,0.0,0.0,0.0,0.0,0.0,0.0,0.0,0.0,0.0,0.0,-1.1052,-1.1523,-1.2176,-1.2911,-1.1844,-1.104,0.0,0.0,0.0,0.0,0.0,0.0,0.0,0.0,0.0,0.0,0.0,0.0,0.0,0.0,0.0,0.0,0.0,0.0,0.0,0.0,0.0,0.0,0.0,0.0,0.0,0.0,0.0,0.0,0.0,0.0,0.0,0.0,0.0,0.0,0.0,0.0,0.0,0.0,0.0,0.0,0.0,0.0,0.0,0.0,0.0,0.0,0.0,0.0,0.0,0.0,0.0,0.0,0.0,0.0,0.0,0.0,0.0,0.0,0.0,0.0,0.0,0.0,0.0,0.0,0.0,0.0,0.0,0.0,0.0,0.0,0.0,0.0,0.0,0.0,0.0,0.0,0.0,0.0,0.0,0.0,0.0,0.0,0.0,0.0,0.0,0.0,0.0,0.0,0.0,0.0,0.0,0.0,0.0,0.0,0.0,0.0,0.0,0.0,0.0,0.0,0.0,0.0,0.0,0.0,0.0,0.0,0.0,0.0,0.0,-1.184,0.0,-1.3184,0.0,-1.2402,-1.1472,0.0,0.0,0.0,0.0,0.0,0.0,0.0,0.0,0.0,0.0,0.0,0.0,0.0,0.0,0.0,0.0,0.0,0.0,0.0,0.0,0.0,0.0,0.0,0.0,0.0,0.0,0.0,0.0,0.0,0.0,0.0,0.0,0.0,0.0,0.0,0.0,0.0,0.0,0.0,0.0,0.0,0.0,0.0,0.0,0.0,0.0,0.0,0.0,0.0,0.0,0.0,0.0,0.0,0.0,0.0,0.0,0.0,0.0,0.0,0.0,0.0,0.0,0.0,0.0,0.0,0.0,0.0,0.0,0.0,0.0,0.0,0.0,0.0,0.0,0.0,0.0,0.0,0.0,0.0,0.0,0.0,0.0,0.0,0.0,0.0,0.0,0.0,0.0,0.0,0.0,0.0,0.0,0.0,0.0,0.0,0.0,0.0,0.0,0.0,0.0,0.0,0.0,0.0,0.0,0.0,0.0,0.0,0.0,-1.2979,-1.3758,-1.3938,-1.3797,-1.3121,-1.3433,-1.2435,0.0,0.0,0.0,0.0,0.0,0.0,0.0,0.0,0.0,0.0,0.0,0.0,0.0,0.0,0.0,0.0,0.0,0.0,0.0,0.0,0.0,0.0,0.0,0.0,0.0,0.0,0.0,0.0,0.0,0.0,0.0,0.0,0.0,0.0,0.0,0.0,0.0,0.0,0.0,0.0,0.0,0.0,0.0,0.0,0.0,0.0,0.0,0.0,0.0,0.0,0.0,0.0,0.0,0.0,0.0,0.0,0.0,0.0,0.0,0.0,0.0,0.0,0.0,0.0,0.0,0.0,0.0,0.0,0.0,0.0,0.0,0.0,0.0,0.0,0.0,0.0,0.0,0.0,0.0,0.0,0.0,0.0,0.0,0.0,0.0,0.0,0.0,0.0,0.0,0.0,0.0,0.0,0.0,0.0,0.0,0.0,0.0,0.0,0.0,0.0,0.0,0.0,0.0,0.0,0.0,0.0,0.0,0.0,0.0,-1.4861,-1.5266,-1.5717,-1.6089,-1.4238,-1.3161,0.0,0.0,0.0,0.0,0.0,0.0,0.0,0.0,0.0,0.0,0.0,0.0,0.0,0.0,0.0,0.0,0.0,0.0,0.0,0.0,0.0,0.0,0.0,0.0,0.0,0.0,0.0,0.0,0.0,0.0,0.0,0.0,0.0,0.0,0.0,0.0,0.0,0.0,0.0,0.0,0.0,0.0,0.0,0.0,0.0,0.0,0.0,0.0,0.0,0.0,0.0,0.0,0.0,0.0,0.0,0.0,0.0,0.0,0.0,0.0,0.0,0.0,0.0,0.0,0.0,0.0,0.0,0.0,0.0,0.0,0.0,0.0,0.0,0.0,0.0,0.0,0.0,0.0,0.0,0.0,0.0,0.0,0.0,0.0,0.0,0.0,0.0,0.0,0.0,0.0,0.0,0.0,0.0,0.0,0.0,0.0,0.0,0.0,0.0,0.0,0.0,0.0,0.0,0.0,0.0,0.0,0.0,0.0,0.0,-1.7215,-1.7347,-1.7581,-1.7819,-1.5381,-1.4014,-1.3872,0.0,0.0,0.0,0.0,0.0,0.0,0.0,0.0,0.0,0.0,0.0,0.0,0.0,0.0,0.0,0.0,0.0,0.0,0.0,0.0,0.0,0.0,0.0,0.0,0.0,0.0,0.0,0.0,0.0,0.0,0.0,0.0,0.0,0.0,0.0,0.0,0.0,0.0,0.0,0.0,0.0,0.0,0.0,0.0,0.0,0.0,0.0,0.0,0.0,0.0,0.0,0.0,0.0,0.0,0.0,0.0,0.0,0.0,0.0,0.0,0.0,0.0,0.0,0.0,0.0,0.0,0.0,0.0,0.0,0.0,0.0,0.0,0.0,0.0,0.0,0.0,0.0,0.0,0.0,0.0,0.0,0.0,0.0,0.0,0.0,0.0,0.0,0.0,0.0,0.0,0.0,0.0,0.0,0.0,0.0,0.0,0.0,0.0,0.0,0.0,0.0,0.0,0.0,0.0,0.0,0.0,0.0,0.0,-2.0343,-1.9972,-1.9299,-1.8388,-1.6758,-1.5037,0.0,0.0,0.0,0.0,0.0,0.0,0.0,0.0,0.0,0.0,0.0,0.0,0.0,0.0,0.0,0.0,0.0,0.0,0.0,0.0,0.0,0.0,0.0,0.0,0.0,0.0,0.0,0.0,0.0,0.0,0.0,0.0,0.0,0.0,0.0,0.0,0.0,0.0,0.0,0.0,0.0,0.0,0.0,0.0,0.0,0.0,0.0,0.0,0.0,0.0,0.0,0.0,0.0,0.0,0.0,0.0,0.0,0.0,0.0,0.0,0.0,0.0,0.0,0.0,0.0,0.0,0.0,0.0,0.0,0.0,0.0,0.0,0.0,0.0,0.0,0.0,0.0,0.0,0.0,0.0,0.0,0.0,0.0,0.0,0.0,0.0,0.0,0.0,0.0,0.0,0.0,0.0,0.0,0.0,0.0,0.0,0.0,0.0,0.0,0.0,0.0,0.0,0.0,0.0,0.0,0.0,0.0,0.0,0.0,-2.1084,-2.1477,-2.1181,-2.0169,-1.7666,-1.581,0.0,0.0,0.0,0.0,0.0,0.0,0.0,0.0,0.0,0.0,0.0,0.0,0.0,0.0,0.0,0.0,0.0,0.0,0.0,0.0,0.0,0.0,0.0,0.0,0.0,0.0,0.0,0.0,0.0,0.0,0.0,0.0,0.0,0.0,0.0,0.0,0.0,0.0,0.0,0.0,0.0,0.0,0.0,0.0,0.0,0.0,0.0,0.0,0.0,0.0,0.0,0.0,0.0,0.0,0.0,0.0,0.0,0.0,0.0,0.0,0.0,0.0,0.0,0.0,0.0,0.0,0.0,0.0,0.0,0.0,0.0,0.0,0.0,0.0,0.0,0.0,0.0,0.0,0.0,0.0,0.0,0.0,0.0,0.0,0.0,0.0,0.0,0.0,0.0,0.0,0.0,0.0,0.0,0.0,0.0,0.0,0.0,0.0,0.0,0.0,0.0,0.0,0.0,0.0,0.0,0.0,0.0,0.0,-2.07,-2.171,-2.236,-2.2311,-2.1565,-1.9013,-1.6924,0.0,0.0,0.0,0.0,0.0,0.0,0.0,0.0,0.0,0.0,0.0,0.0,0.0,0.0,0.0,0.0,0.0,0.0,0.0,0.0,0.0,0.0,0.0,0.0,0.0,0.0,0.0,0.0,0.0,0.0,0.0,0.0,0.0,0.0,0.0,0.0,0.0,0.0,0.0,0.0,0.0,0.0,0.0,0.0,0.0,0.0,0.0,0.0,0.0,0.0,0.0,0.0,0.0,0.0,0.0,0.0,0.0,0.0,0.0,0.0,0.0,0.0,0.0,0.0,0.0,0.0,0.0,0.0,0.0,0.0,0.0,0.0,0.0,0.0,0.0,0.0,0.0,0.0,0.0,0.0,0.0,0.0,0.0,0.0,0.0,0.0,0.0,0.0,0.0,0.0,0.0,0.0,0.0,0.0,0.0,0.0,0.0,0.0,0.0,0.0,0.0,0.0,0.0,0.0,0.0,0.0,0.0,0.0,-2.1402,-2.2279,-2.2741,-2.2847,-2.2454,-2.0378,-1.8121,0.0,0.0,0.0,0.0,0.0,0.0,0.0,0.0,0.0,0.0,0.0,0.0,0.0,0.0,0.0,0.0,0.0,0.0,0.0,0.0,0.0,0.0,0.0,0.0,0.0,0.0,0.0,0.0,0.0,0.0,0.0,0.0,0.0,0.0,0.0,0.0,0.0,0.0,0.0,0.0,0.0,0.0,0.0,0.0,0.0,0.0,0.0,0.0,0.0,0.0,0.0,0.0,0.0,0.0,0.0,0.0,0.0,0.0,0.0,0.0,0.0,0.0,0.0,0.0,0.0,0.0,0.0,0.0,0.0,0.0,0.0,0.0,0.0,0.0,0.0,0.0,0.0,0.0,0.0,0.0,0.0,0.0,0.0,0.0,0.0,0.0,0.0,0.0,0.0,0.0,0.0,0.0,0.0,0.0,0.0,0.0,0.0,0.0,0.0,0.0,0.0,0.0,0.0,0.0,0.0,0.0,0.0,0.0,-2.1811,-2.2893,-2.296,-2.2847,-2.2482,-2.0177,-1.8271,0.0,0.0,0.0,0.0,0.0,0.0,0.0,0.0,0.0,0.0,0.0,0.0,0.0,0.0,0.0,0.0,0.0,0.0,0.0,0.0,0.0,0.0,0.0,0.0,0.0,0.0,0.0,0.0,0.0,0.0,0.0,0.0,0.0,0.0,0.0,0.0,0.0,0.0,0.0,0.0,0.0,0.0,0.0,0.0,0.0,0.0,0.0,0.0,-0.9098,0.0,0.0,0.0,0.0,0.0,0.0,0.0,0.0,0.0,0.0,0.0,0.0,0.0,0.0,0.0,0.0,0.0,0.0,0.0,0.0,0.0,0.0,0.0,0.0,0.0,0.0,0.0,0.0,0.0,0.0,0.0,0.0,0.0,0.0,0.0,0.0,0.0,0.0,0.0,0.0,0.0,0.0,0.0,0.0,0.0,0.0,0.0,0.0,0.0,0.0,0.0,0.0,0.0,0.0,0.0,0.0,0.0,0.0,0.0,-2.2358,-2.3164,-2.3332,-2.3347,-2.3093,-2.0894,-1.888,0.0,0.0,0.0,0.0,0.0,0.0,0.0,0.0,0.0,0.0,0.0,0.0,0.0,0.0,0.0,0.0,0.0,0.0,0.0,0.0,0.0,0.0,0.0,0.0,0.0,0.0,0.0,0.0,0.0,0.0,0.0,0.0,0.0,0.0,0.0,0.0,0.0,0.0,0.0,0.0,0.0,0.0,0.0,0.0,0.0,0.0,0.0,0.0,0.0,0.0,0.0,0.0,0.0,0.0,0.0,0.0,0.0,0.0,0.0,0.0,0.0,0.0,0.0,0.0,0.0,0.0,0.0,0.0,0.0,0.0,0.0,0.0,0.0,0.0,0.0,0.0,0.0,0.0,0.0,0.0,0.0,0.0,0.0,0.0,0.0,0.0,0.0,0.0,0.0,0.0,0.0,0.0,0.0,0.0,0.0,0.0,0.0,0.0,0.0,0.0,0.0,0.0,0.0,0.0,0.0,0.0,0.0,-2.1617,-2.2766,-2.3502,-2.3783,-2.3893,-2.3876,-2.1924,-1.9649,-1.721,0.0,0.0,0.0,0.0,0.0,0.0,0.0,0.0,0.0,0.0,0.0,0.0,0.0,0.0,0.0,0.0,0.0,0.0,0.0,0.0,0.0,0.0,0.0,0.0,0.0,0.0,0.0,0.0,0.0,0.0,0.0,0.0,0.0,0.0,0.0,0.0,0.0,0.0,-1.0337,-1.0958,0.0,0.0,0.0,0.0,0.0,0.0,0.0,0.0,-0.9763,0.0,0.0,0.0,0.0,0.0,0.0,0.0,0.0,0.0,0.0,0.0,0.0,0.0,0.0,0.0,0.0,0.0,0.0,0.0,0.0,0.0,0.0,0.0,0.0,0.0,0.0,0.0,0.0,0.0,0.0,0.0,0.0,0.0,0.0,0.0,0.0,0.0,0.0,0.0,0.0,0.0,0.0,0.0,0.0,0.0,0.0,0.0,0.0,0.0,0.0,0.0,0.0,0.0,0.0,0.0,0.0,-2.1552,-2.161,-2.2553,-2.4493,-2.4111,-2.3893,-2.386,-2.2258,-2.0297,-1.8064,0.0,0.0,0.0,0.0,0.0,0.0,0.0,0.0,0.0,0.0,0.0,0.0,0.0,0.0,0.0,0.0,0.0,0.0,0.0,0.0,0.0,0.0,0.0,0.0,0.0,0.0,0.0,0.0,0.0,0.0,0.0,0.0,0.0,0.0,0.0,0.0,0.0,0.0,0.0,-1.1657,-1.1991,0.0,0.0,0.0,0.0,0.0,0.0,0.0,0.0,-1.0928,0.0,0.0,0.0,0.0,0.0,0.0,0.0,0.0,0.0,0.0,0.0,0.0,0.0,0.0,0.0,0.0,0.0,0.0,0.0,0.0,0.0,0.0,0.0,0.0,0.0,0.0,0.0,0.0,0.0,0.0,0.0,0.0,0.0,0.0,0.0,0.0,0.0,0.0,0.0,0.0,0.0,0.0,0.0,0.0,0.0,0.0,0.0,0.0,0.0,0.0,0.0,0.0,0.0,0.0,0.0,-2.1011,-2.209,-2.3297,-2.4733,-2.4507,-2.4368,-2.4306,-2.2389,-2.0613,0.0,0.0,0.0,0.0,0.0,0.0,0.0,0.0,0.0,0.0,0.0,0.0,0.0,0.0,0.0,0.0,0.0,0.0,0.0,0.0,0.0,0.0,0.0,0.0,0.0,0.0,0.0,0.0,0.0,0.0,0.0,0.0,0.0,0.0,0.0,0.0,0.0,0.0,0.0,0.0,-1.2838,-1.3127,-1.3332,0.0,0.0,0.0,0.0,0.0,0.0,-1.2012,-1.1981,0.0,0.0,0.0,0.0,0.0,0.0,0.0,0.0,0.0,0.0,0.0,0.0,0.0,0.0,0.0,0.0,0.0,0.0,0.0,0.0,0.0,0.0,0.0,0.0,0.0,0.0,0.0,0.0,0.0,0.0,0.0,0.0,0.0,0.0,0.0,0.0,0.0,0.0,0.0,0.0,0.0,0.0,0.0,0.0,0.0,0.0,0.0,0.0,0.0,0.0,0.0,0.0,0.0,0.0,0.0,-2.0429,-2.2347,-2.3836,-2.4733,-2.483,-2.483,-2.4768,-2.2703,-2.1004,0.0,0.0,0.0,0.0,0.0,0.0,0.0,0.0,0.0,0.0,0.0,0.0,0.0,0.0,0.0,0.0,0.0,0.0,0.0,0.0,0.0,0.0,0.0,0.0,0.0,0.0,0.0,0.0,0.0,0.0,0.0,0.0,0.0,0.0,0.0,0.0,0.0,0.0,0.0,0.0,0.0,-1.4222,-1.4171,-1.3902,0.0,0.0,0.0,0.0,-1.3427,-1.3508,0.0,0.0,0.0,0.0,0.0,0.0,0.0,0.0,0.0,0.0,0.0,0.0,0.0,0.0,0.0,0.0,0.0,0.0,0.0,0.0,0.0,0.0,0.0,0.0,0.0,0.0,0.0,0.0,0.0,0.0,0.0,0.0,0.0,0.0,0.0,0.0,0.0,0.0,0.0,0.0,0.0,0.0,0.0,0.0,0.0,0.0,0.0,0.0,0.0,0.0,0.0,0.0,0.0,0.0,0.0,0.0,-2.076,-2.1754,-2.3049,-2.4699,-2.483,-2.483,-2.4812,-2.3535,-2.1868,0.0,0.0,0.0,0.0,0.0,0.0,0.0,0.0,0.0,0.0,0.0,0.0,0.0,0.0,0.0,0.0,0.0,0.0,0.0,0.0,0.0,0.0,0.0,0.0,0.0,0.0,0.0,0.0,0.0,0.0,0.0,0.0,0.0,0.0,0.0,0.0,0.0,0.0,0.0,0.0,0.0,-1.4837,-1.5842,-1.4721,-1.4498,0.0,0.0,-1.5155,-1.5873,-1.6267,0.0,0.0,0.0,0.0,0.0,0.0,0.0,0.0,0.0,0.0,0.0,0.0,0.0,0.0,0.0,0.0,0.0,0.0,0.0,0.0,0.0,0.0,0.0,0.0,0.0,0.0,0.0,0.0,0.0,0.0,0.0,0.0,0.0,0.0,0.0,0.0,0.0,0.0,0.0,0.0,0.0,0.0,0.0,0.0,0.0,0.0,0.0,0.0,0.0,0.0,0.0,0.0,0.0,0.0,0.0,-1.8853,-2.0863,-2.2269,-2.3589,-2.4761,-2.483,-2.483,-2.4812,-2.3057,-2.1366,0.0,0.0,0.0,0.0,0.0,0.0,0.0,0.0,0.0,0.0,0.0,0.0,0.0,0.0,0.0,0.0,0.0,0.0,0.0,0.0,0.0,0.0,0.0,0.0,0.0,0.0,0.0,0.0,0.0,0.0,0.0,0.0,0.0,0.0,0.0,0.0,0.0,0.0,0.0,0.0,0.0,0.0,-1.6972,-1.6685,0.0,0.0,0.0,-1.6634,-1.6973,0.0,0.0,0.0,0.0,0.0,0.0,0.0,0.0,0.0,0.0,0.0,0.0,0.0,0.0,0.0,0.0,0.0,0.0,0.0,0.0,0.0,0.0,0.0,0.0,0.0,0.0,0.0,0.0,0.0,0.0,0.0,0.0,0.0,0.0,0.0,0.0,0.0,0.0,0.0,0.0,0.0,0.0,0.0,0.0,0.0,0.0,0.0,0.0,0.0,0.0,0.0,0.0,0.0,0.0,0.0,0.0,0.0,-2.1011,-2.2587,-2.383,-2.4768,-2.483,-2.483,-2.4795,-2.2792,0.0,0.0,0.0,0.0,0.0,0.0,0.0,0.0,0.0,0.0,0.0,0.0,0.0,0.0,0.0,0.0,0.0,0.0,0.0,0.0,0.0,0.0,0.0,0.0,0.0,0.0,0.0,-0.8092,0.0,0.0,0.0,0.0,0.0,0.0,0.0,0.0,0.0,0.0,0.0,0.0,0.0,0.0,-1.7316,-1.7651,-1.7887,-1.7849,0.0,0.0,-1.7844,-1.7935,-1.8027,-1.7734,0.0,0.0,0.0,0.0,0.0,0.0,0.0,0.0,0.0,0.0,0.0,0.0,0.0,0.0,0.0,0.0,0.0,0.0,0.0,0.0,0.0,0.0,0.0,0.0,0.0,0.0,0.0,0.0,-1.3151,0.0,0.0,0.0,0.0,0.0,0.0,0.0,0.0,0.0,0.0,0.0,0.0,0.0,0.0,0.0,0.0,0.0,0.0,0.0,0.0,0.0,0.0,0.0,0.0,0.0,0.0,-2.1292,-2.2107,-2.3272,-2.4757,-2.483,-2.483,-2.4768,-2.3332,-2.1806,0.0,0.0,0.0,0.0,0.0,0.0,0.0,0.0,0.0,0.0,0.0,0.0,0.0,0.0,0.0,0.0,0.0,0.0,0.0,0.0,0.0,0.0,0.0,0.0,0.0,0.0,0.0,0.0,0.0,0.0,0.0,0.0,0.0,0.0,0.0,0.0,0.0,0.0,0.0,0.0,0.0,-1.6354,-1.7767,-1.7411,-1.7644,0.0,0.0,-1.8741,-1.9108,-1.9474,-1.9089,-1.7166,0.0,0.0,0.0,0.0,0.0,0.0,0.0,0.0,0.0,0.0,0.0,0.0,0.0,0.0,0.0,0.0,0.0,0.0,0.0,0.0,0.0,0.0,0.0,0.0,0.0,-1.2234,0.0,0.0,-1.2524,0.0,0.0,0.0,0.0,0.0,0.0,0.0,0.0,0.0,0.0,0.0,0.0,0.0,0.0,0.0,0.0,0.0,0.0,0.0,0.0,0.0,0.0,0.0,0.0,-1.9586,-2.1381,-2.3046,-2.4317,-2.511,-2.5155,-2.4772,-2.4007,-2.3284,-2.1587,0.0,0.0,0.0,0.0,0.0,0.0,0.0,0.0,0.0,0.0,0.0,0.0,0.0,0.0,0.0,0.0,0.0,0.0,0.0,0.0,0.0,0.0,0.0,0.0,0.0,0.0,0.0,0.0,-1.0125,-1.0447,-1.0682,0.0,0.0,0.0,0.0,0.0,0.0,0.0,0.0,0.0,0.0,-1.7483,-1.9061,-1.9221,0.0,0.0,-2.0474,-2.0245,-1.9732,-2.0005,-1.9676,-1.7935,-1.744,0.0,0.0,0.0,0.0,0.0,0.0,0.0,0.0,0.0,0.0,0.0,0.0,0.0,0.0,0.0,0.0,0.0,0.0,0.0,0.0,0.0,0.0,0.0,0.0,0.0,0.0,0.0,0.0,0.0,0.0,0.0,0.0,0.0,0.0,0.0,0.0,0.0,0.0,0.0,0.0,0.0,0.0,0.0,0.0,0.0,0.0,0.0,0.0,0.0,0.0,0.0,0.0,-1.8996,-2.0573,-2.2366,-2.3622,-2.4351,-2.4281,-2.3815,-2.2948,-2.2434,-2.0838,0.0,0.0,0.0,0.0,0.0,0.0,0.0,0.0,0.0,0.0,0.0,0.0,0.0,0.0,0.0,0.0,0.0,0.0,0.0,0.0,0.0,0.0,0.0,0.0,0.0,0.0,0.0,0.0,-1.1092,-1.1341,-1.1254,0.0,0.0,0.0,0.0,0.0,0.0,0.0,0.0,0.0,0.0,-1.802,-1.9516,-2.0196,-2.0642,-2.1043,-2.1327,-2.119,-2.0334,-2.0358,-1.9987,-1.8502,0.0,0.0,0.0,0.0,0.0,0.0,0.0,0.0,0.0,0.0,0.0,0.0,0.0,0.0,0.0,0.0,0.0,0.0,0.0,0.0,0.0,0.0,0.0,0.0,0.0,0.0,0.0,-1.3075,0.0,0.0,-1.1966,0.0,0.0,0.0,0.0,0.0,0.0,0.0,0.0,0.0,0.0,0.0,0.0,0.0,0.0,0.0,0.0,0.0,0.0,0.0,0.0,0.0,0.0,-1.6944,-1.877,-1.9598,-2.0593,-2.1962,-2.1744,-2.1628,-2.154,-2.0593,-1.9578,-1.8502,0.0,0.0,0.0,0.0,0.0,0.0,0.0,0.0,0.0,0.0,0.0,0.0,0.0,0.0,0.0,0.0,0.0,0.0,0.0,0.0,0.0,0.0,0.0,0.0,0.0,0.0,-1.1865,-1.195,-1.1881,0.0,0.0,0.0,0.0,0.0,0.0,0.0,0.0,0.0,0.0,-1.6694,-1.743,-1.8769,-1.9799,-2.0683,-2.1385,-2.1525,-2.1382,-2.0969,-2.0684,-2.0097,0.0,0.0,0.0,0.0,0.0,0.0,0.0,0.0,0.0,0.0,0.0,0.0,0.0,0.0,0.0,0.0,0.0,0.0,0.0,0.0,0.0,0.0,0.0,0.0,0.0,0.0,0.0,-1.5547,-1.4956,0.0,0.0,0.0,0.0,0.0,0.0,0.0,0.0,0.0,0.0,0.0,-1.7133,-1.775,0.0,0.0,0.0,0.0,0.0,0.0,0.0,0.0,0.0,0.0,0.0,0.0,-1.7786,-1.9194,-2.0587,-2.1618,-2.2282,-2.2225,-2.179,-2.1003,-2.0787,-1.9845,-1.8128,0.0,0.0,0.0,0.0,0.0,0.0,0.0,0.0,0.0,0.0,0.0,0.0,0.0,0.0,0.0,0.0,0.0,0.0,0.0,0.0,0.0,0.0,0.0,0.0,0.0,-1.2365,0.0,0.0,0.0,0.0,0.0,0.0,0.0,0.0,0.0,0.0,0.0,-1.5698,-1.6855,-1.7481,-1.8308,-1.9588,-2.0234,-2.0866,0.0,0.0,0.0,0.0,0.0,0.0,0.0,0.0,0.0,0.0,0.0,0.0,0.0,0.0,-1.9838,-1.7184,-1.647,-1.6376,-1.6652,0.0,0.0,0.0,0.0,0.0,0.0,0.0,0.0,0.0,0.0,0.0,0.0,0.0,0.0,-1.7491,0.0,-1.6622,0.0,0.0,0.0,0.0,0.0,0.0,0.0,0.0,-1.827,-1.8753,-1.8766,-1.937,-1.9249,0.0,-1.8372,-1.7286,0.0,0.0,0.0,0.0,0.0,0.0,0.0,0.0,-1.7691,-1.8673,-2.0153,-2.1033,-2.1276,-2.1225,-2.0783,-2.0022,-1.9862,-1.9014,-1.7413,-1.6117,-1.5097,0.0,0.0,0.0,0.0,0.0,0.0,0.0,0.0,0.0,0.0,0.0,0.0,0.0,0.0,0.0,0.0,0.0,0.0,0.0,0.0,0.0,0.0,0.0,-1.3025,0.0,0.0,0.0,0.0,0.0,0.0,0.0,0.0,0.0,-1.5687,-1.6272,-1.7091,-1.8033,-1.8565,-1.915,-2.0081,0.0,0.0,0.0,0.0,0.0,0.0,0.0,-2.2636,-2.2477,-2.1721,-2.1417,-2.2382,-2.2209,-2.2069,-2.2482,0.0,0.0,-1.9529,-1.8869,-1.8851,-1.9127,-1.9254,-1.9417,-1.9694,-1.9609,-1.9426,0.0,0.0,0.0,0.0,0.0,0.0,0.0,0.0,-1.9491,-1.9237,0.0,-1.8625,0.0,0.0,0.0,0.0,0.0,-1.7998,0.0,0.0,-2.0374,-2.0857,-2.0422,-2.0664,-2.064,-2.041,-2.0569,-2.0023,-1.8681,-1.6404,0.0,0.0,0.0,0.0,0.0,0.0,-1.6601,-1.7198,-1.8246,-1.8838,-1.9112,-1.8894,-1.8729,-1.8705,-1.7986,-1.721,-1.6408,-1.6862,-1.6533,-1.5172,-1.5251,0.0,0.0,0.0,0.0,0.0,0.0,0.0,0.0,0.0,0.0,0.0,0.0,0.0,0.0,0.0,0.0,0.0,0.0,0.0,0.0,-1.2816,0.0,0.0,0.0,0.0,0.0,0.0,0.0,0.0,0.0,0.0,-1.7196,-1.7803,-1.8716,-1.9679,0.0,0.0,0.0,0.0,-2.1769,-2.1769,-2.2414,-2.2762,-2.2355,-2.2123,-2.2009,-2.209,0.0,0.0,-2.3965,-2.3123,-2.2661,-2.3872,-2.4046,-2.3926,-2.3006,-2.2391,-2.2204,-2.2185,-2.1851,-2.1746,-2.1705,-2.1462,-2.1302,-2.3502,0.0,0.0,0.0,0.0,-2.1293,-2.1764,-2.2631,-2.2175,-2.1631,-2.1087,-2.0749,0.0,0.0,0.0,0.0,0.0,0.0,-2.0156,-2.0712,-2.1377,-2.1788,-2.2018,-2.2272,-2.2297,-2.2006,-2.1704,-2.1172,-2.0386,-1.912,-1.7515,-1.5584,0.0,0.0,0.0,0.0,-1.7032,-1.7913,-1.8432,-1.8838,-1.9104,-1.9032,-1.8911,-1.8717,-1.8275,-1.7768,-1.7165,-1.6958,-1.6493,-1.5702,-1.4993,0.0,0.0,0.0,0.0,0.0,0.0,0.0,0.0,0.0,0.0,0.0,0.0,0.0,0.0,0.0,0.0,0.0,0.0,0.0,-1.3877,-1.3018,-1.3136,0.0,0.0,0.0,0.0,0.0,0.0,0.0,0.0,0.0,-1.9286,-1.948,-1.9845,0.0,0.0,-2.0574,-2.0868,-2.1179,-2.1361,-2.1376,0.0,0.0,0.0,-2.2638,-2.3044,-2.3502,-2.3507,-2.3376,-2.3161,-2.2607,-2.2285,-2.2491,-2.3218,-2.3695,-2.3477,-2.3276,-2.3048,-2.2785,-2.262,-2.2565,-2.2542,-2.2501,-2.2426,-2.4755,-2.3126,-2.3139,-2.3285,-2.349,-2.3237,-2.3647,-2.4403,-2.39,-2.3505,-2.3104,-2.2742,-2.186,-2.0664,-2.0253,0.0,0.0,0.0,-2.1414,-2.197,-2.2248,-2.2538,-2.284,-2.301,-2.2997,-2.2879,-2.2526,-2.2103,-2.1559,-2.099,-1.9639,-1.7702,0.0,0.0,-1.7037,-1.746,-1.801,-1.8734,-1.9056,-1.9213,-1.9261,-1.9132,-1.8935,-1.8572,-1.8384,-1.8034,-1.7503,-1.7206,-1.6767,-1.6235,-1.5416,-1.4753,0.0,0.0,0.0,0.0,0.0,0.0,0.0,0.0,0.0,0.0,0.0,-1.2102,-1.1658,0.0,0.0,0.0,-1.2832,-1.3838,-1.4345,-1.3595,0.0,0.0,0.0,0.0,0.0,0.0,0.0,-1.952,-2.034,-2.0867,-2.0795,-2.0999,-2.1131,-2.1087,-2.0998,-2.0984,-2.1189,0.0,-2.1203,-2.1203,-2.1937,-2.2394,-2.2109,-2.2398,-2.2851,-2.3431,-2.3476,-2.3365,-2.3046,-2.2418,-2.205,-2.2292,-2.2857,-2.3313,-2.3164,-2.308,-2.3324,-2.3765,-2.3889,-2.3889,-2.3889,-2.3889,-2.3803,-2.4758,-2.4187,-2.4576,-2.5025,-2.5444,-2.4894,-2.4961,-2.5396,-2.4765,-2.4723,-2.5029,-2.4547,-2.3937,-2.3179,-2.2174,0.0,-2.1716,-2.2236,-2.2574,-2.2792,-2.3034,-2.3143,-2.3143,-2.3155,-2.3143,-2.3143,-2.313,-2.2864,-2.2393,-2.2103,-2.1462,-2.0458,-1.9467,-1.8891,-1.8826,-1.9044,-1.9298,-1.9564,-1.976,-1.9781,-1.9503,-1.9261,-1.8886,-1.8348,-1.8312,-1.8046,-1.7569,-1.7491,-1.729,-1.6779,-1.6223,-1.5354,-1.4123,0.0,0.0,0.0,0.0,0.0,0.0,0.0,0.0,0.0,0.0,0.0,0.0,0.0,0.0,-1.314,-1.3001,0.0,-1.4268,-1.4386,0.0,0.0,0.0,-1.7973,-1.9713,-2.0405,-2.0769,-2.0882,0.0,0.0,-2.1847,0.0,-2.2344,-2.1803,-2.1467,-2.1276,-2.1218,-2.1262,-2.1233,-2.1218,-2.1452,-2.1671,-2.1671,-2.1729,-2.1975,-2.2469,-2.2722,-2.293,-2.3016,-2.2258,-2.1917,-2.2469,-2.2824,-2.2802,-2.2415,-2.2506,-2.3124,-2.5021,-2.5243,-2.5178,-2.5252,-2.526,-2.5072,-2.3246,-2.3014,-2.288,-2.4298,-2.6315,-2.2981,-2.3363,-2.6094,-2.4391,-2.4372,-2.5584,-2.5506,-2.5077,-2.454,-2.4041,-2.3728,-2.3547,-2.3707,-2.3683,-2.3562,-2.3583,-2.3619,-2.3659,-2.3619,-2.3659,-2.3595,-2.3414,-2.3285,-2.3113,-2.2731,-2.2272,-2.1825,-2.1365,-2.0605,-1.9639,-1.9697,-1.9854,-2.012,-1.9987,-1.9781,-1.9515,-1.9443,-1.9152,-1.8601,-1.8396,-1.8131,-1.7822,-1.7617,-1.743,-1.7315,-1.6613,-1.5985,-1.5465,-1.3822,0.0,0.0,0.0,0.0,0.0,0.0,0.0,0.0,0.0,-1.3619,-1.2298,0.0,-1.4437,0.0,-1.3247,-1.3922,-1.5377,-1.5009,0.0,0.0,-1.7423,-1.819,-2.0518,-2.0914,-2.1383,-2.2429,-2.2782,-2.2811,-2.2447,-2.233,-2.2242,-2.2111,-2.2038,-2.1862,-2.1628,-2.1584,-2.1496,-2.1262,-2.1306,-2.132,-2.1379,-2.154,-2.1847,-2.2201,-2.2142,-2.1935,-2.1773,-2.1117,-2.0679,-2.0942,-2.1511,-2.1904,-2.2037,-2.2813,-2.3911,-2.5264,-2.4825,-2.4325,-2.518,-2.5407,-2.5344,-2.1458,-2.1286,-2.113,-2.2595,-2.4818,-2.2133,-2.2281,-2.4299,-2.3782,-2.4106,-2.4998,-2.5659,-2.5668,-2.5174,-2.5017,-2.4728,-2.4379,-2.4366,-2.4282,-2.415,-2.415,-2.415,-2.415,-2.4029,-2.3981,-2.3969,-2.3716,-2.3535,-2.3402,-2.3152,-2.2874,-2.2647,-2.2502,-2.2006,-2.1172,-2.0809,-2.07,-2.0845,-2.047,-2.0144,-1.9866,-1.9624,-1.9249,-1.8698,-1.8432,-1.8106,-1.775,-1.7593,-1.743,-1.7327,-1.6779,-1.6323,-1.5897,-1.469,-1.387,0.0,0.0,0.0,0.0,0.0,0.0,0.0,0.0,0.0,0.0,0.0,-1.5321,-1.4564,-1.4519,-1.5151,-1.6626,-1.6309,-1.6745,-1.8459,-1.8471,-1.9062,-2.0781,-2.137,-2.1979,-2.272,-2.3096,-2.3267,-2.3045,-2.2798,-2.2535,-2.2403,-2.2374,-2.2257,-2.1993,-2.195,-2.1847,-2.1672,-2.1642,-2.1642,-2.1642,-2.1906,-2.2125,-2.2184,-2.2136,-2.1956,-2.149,-2.1166,-2.0823,-2.0585,-2.0869,-2.1178,-2.1228,-2.1706,-2.2617,-2.3573,-2.3461,-2.3767,-2.5703,-2.5621,-2.5219,-1.9604,-1.9367,-1.9359,-2.0301,-2.1759,-2.1175,-2.1199,-2.1697,-2.2766,-2.3496,-2.404,-2.5595,-2.6005,-2.5547,-2.5511,-2.5198,-2.4692,-2.4692,-2.4697,-2.4583,-2.4583,-2.4583,-2.4571,-2.4354,-2.4222,-2.4186,-2.3969,-2.3716,-2.3463,-2.3463,-2.3369,-2.3143,-2.313,-2.301,-2.2719,-2.2054,-2.1619,-2.1474,-2.1039,-2.0664,-2.0327,-1.9902,-1.937,-1.8758,-1.8481,-1.8125,-1.7563,-1.7556,-1.743,-1.7201,-1.6984,-1.6622,-1.6115,-1.5572,-1.504,0.0,-1.4256,0.0,0.0,0.0,0.0,0.0,0.0,0.0,0.0,-1.5901,-1.6338,-1.6486,-1.6299,-1.6646,-1.7785,-1.781,-1.8254,-1.9485,-1.9678,-1.9981,-2.071,-2.162,-2.2243,-2.2377,-2.3116,-2.3612,-2.3594,-2.3403,-2.3147,-2.2915,-2.2813,-2.2667,-2.2389,-2.2228,-2.2154,-2.2184,-2.2184,-2.2126,-2.214,-2.2359,-2.2432,-2.2287,-2.2359,-2.2371,-2.1854,-2.1691,-2.1495,-2.1025,-2.0918,-2.0794,-2.0426,-2.0452,-2.0865,-2.2136,-2.2124,-2.297,-2.5826,-2.5922,-2.5273,-1.7857,-1.7517,-1.7509,-1.7554,-1.7618,-1.7415,-1.9027,-2.1722,-2.0241,-2.1329,-2.4334,-2.6095,-2.6656,-2.6355,-2.6126,-2.574,-2.5246,-2.5246,-2.5005,-2.4583,-2.4583,-2.4583,-2.4583,-2.4535,-2.4403,-2.4198,-2.415,-2.3981,-2.3728,-2.3728,-2.3595,-2.3342,-2.3342,-2.3237,-2.301,0.0,0.0,0.0,-2.1414,-2.1123,-2.0652,-2.0531,-2.0011,-1.9068,-1.8778,0.0,-1.7871,-1.7822,-1.781,-1.7762,-1.7702,0.0,0.0,0.0,0.0,0.0,0.0,0.0,0.0,0.0,0.0,0.0,-1.7546,-1.7324,-1.6819,-1.7547,-1.7941,-1.7568,-1.7949,-1.8273,-1.8367,-1.8479,-1.8662,-1.8943,-1.9,-1.942,-2.048,-2.0862,-2.1333,-2.238,-2.323,-2.3776,-2.3795,-2.409,-2.4159,-2.3808,-2.3574,-2.3296,-2.2974,-2.2535,-2.2213,-2.2184,-2.2228,-2.2198,-2.2184,-2.2257,-2.2345,-2.2228,-2.2213,-2.2227,-2.2138,-2.1884,-2.182,-2.1777,-2.168,-2.1471,-2.1351,-2.1343,-2.1614,-2.2684,-2.1835,-2.1963,-2.5306,-2.5823,-2.5967,-1.7534,0.0,-1.7114,-1.6958,0.0,-1.6592,-1.7502,-1.9101,-1.8834,-2.0232,-2.2956,-2.4809,-2.548,-2.5216,-2.6039,-2.6162,-2.5776,-2.5776,-2.556,-2.5186,-2.5216,-2.5156,-2.4981,-2.4849,-2.4728,-2.4583,-2.4318,-2.4125,-2.3993,-2.3872,-2.374,-2.3607,-2.3607,-2.3475,-2.3249,-2.3155,-2.2695,-2.1909,-2.1776,-2.151,-2.1123,-2.0966,-2.0519,-1.9733,0.0,0.0,0.0,0.0,0.0,0.0,0.0,0.0,0.0,0.0,0.0,-1.7455,-1.7334,-1.7351,-1.7455,-1.775,-1.8125,-1.8645,-1.9068,-1.9019,-1.8342,-1.8764,-1.8986,-1.8836,-1.9129,-1.9353,-1.9556,-1.9609,-1.9681,-1.9796,-1.9854,-2.0029,-2.0415,-2.0957,-2.1526,-2.2235,-2.3355,-2.4101,-2.4087,-2.4533,-2.4686,-2.4379,-2.4221,-2.3954,-2.3603,-2.3047,-2.2637,-2.2652,-2.2637,-2.2637,-2.2668,-2.2637,-2.2637,-2.2637,-2.2637,-2.2637,-2.2637,-2.25,-2.2405,-2.2365,-2.2253,-2.2106,-2.1905,-2.1835,-2.201,-2.2389,-2.1822,-2.1886,-2.423,-2.4808,-2.5294,-1.7751,-1.7453,-1.7324,-1.7175,-1.7005,-1.6804,-1.6554,-1.6444,0.0,0.0,0.0,-2.3308,-2.4123,-2.392,-2.5791,-2.6512,-2.6258,-2.6246,-2.6146,-2.5861,-2.5861,-2.5716,-2.5451,-2.5246,-2.509,-2.4981,-2.4499,-2.4258,-2.4246,-2.3957,-2.3836,-2.386,-2.3824,-2.3692,-2.3487,-2.3249,-2.2937,-2.2514,-2.2199,-2.1897,-2.1595,-2.1353,-2.0966,-2.0398,-1.9902,-1.9394,-1.8874,-1.8645,-1.8536,-1.8493,-1.8354,-1.8439,-1.8814,-1.8613,-1.8705,-1.9068,-1.9152,-1.9201,-1.9249,-1.9334,-1.9527,-1.983,-2.0265,-2.0289,-1.9757,-1.9757,-1.9902,-2.018,-2.0147,-2.0292,-2.0786,-2.0757,-2.0757,-2.097,-2.0993,-2.0849,-2.0606,-2.1269,-2.1824,-2.2016,-2.3145,-2.4055,-2.3977,-2.4393,-2.4775,-2.4554,-2.442,-2.4417,-2.417,-2.3662,-2.3281,-2.3281,-2.3281,-2.3281,-2.3281,-2.3281,-2.3267,-2.3179,-2.3179,-2.3147,-2.312,-2.3106,-2.2981,-2.2733,-2.2699,-2.2543,-2.2261,-2.2167,-2.2167,-2.2104,-2.1884,-2.201,-2.3047,-2.3688,-2.4407,-1.7947,-1.7561,-1.7541,-1.7426,-1.7148,-1.7012,-1.6707,-1.6451,-1.8332,-1.9069,-1.9212,-2.3014,-2.4416,-2.4148,-2.6093,-2.6789,-2.6548,-2.6536,-2.6391,0.0,-2.6158,-2.5981,-2.574,-2.5692,-2.5439,-2.5005,-2.468,-2.4535,-2.4475,-2.4041,-2.3909,-2.4077,-2.3921,-2.3788,-2.3728,-2.3487,-2.3318,-2.3246,-2.279,-2.2345,-2.1861,-2.1813,-2.139,-2.0688,-2.0362,-1.9938,-1.9418,-1.9358,-1.9334,-1.9346,-1.9495,-1.9564,-1.9394,-1.9358,-1.9273,-1.9128,-1.9322,-1.9551,-1.9793,-2.0229,-2.07,-2.1172,-2.1305,-2.1111,-2.0603,-2.0749,-2.099,-2.1221,-2.1221,-2.1282,-2.1366,-2.1366,-2.1342,-2.1414,-2.1402,-2.1341,-2.1165,-2.1336,-2.1443,-2.1372,-2.2262,-2.2964,-2.279,-2.3329,-2.395,-2.4118,-2.3977,-2.4044,-2.4323,-2.4221,-2.3969,-2.394,-2.3954,-2.394,-2.3913,-2.3972,-2.3793,-2.3559,-2.3515,-2.3413,-2.3193,-2.312,-2.3089,-2.3043,-2.2981,-2.2887,-2.2574,-2.2512,-2.2418,-2.223,-2.2073,-2.2167,-2.248,-2.3238,-2.4224,-1.8219,-1.7894,-1.7799,-1.7643,-1.7419,-1.7114,-1.6822,-1.6582,-1.73,-1.7449,-1.7583,-2.1306,-2.2883,-2.285,-2.5651,-2.6921,-2.6801,-2.6801,-2.6656,-2.6415,-2.6403,-2.6258,-2.5993,-2.5849,-2.5656,-2.5415,-2.5005,-2.4728,-2.4601,-2.4198,-2.4005,-2.3981,-2.386,-2.38,-2.38,-2.3692,-2.3559,-2.3402,-2.2923,-2.2574,-2.2345,-2.2187,-2.1873,-2.1365,-2.1099,-2.0773,-2.0374,-2.0229,-2.0156,-2.0156,-2.0132,-2.0204,-2.035,-2.0229,-2.0229,-2.0398,-2.0531,-2.0652,-2.0773,-2.1002,-2.1256,-2.1498,-2.1474,-2.1474,-2.1365,-2.1329,-2.1377,-2.1474,-2.1643,-2.1691,-2.1728,-2.1849,-2.1946,-2.1909,-2.1933,-2.192,-2.1868,-2.1818,-2.1841,-2.1836,-2.2558,-2.293,-2.2399,-2.3173,-2.3554,-2.3428,-2.3205,-2.3429,-2.4225,-2.4102,-2.3956,-2.4072,-2.4118,-2.4118,-2.4118,-2.4118,-2.4045,-2.3881,-2.3706,-2.3545,-2.3369,-2.3252,-2.3135,-2.3106,-2.3106,-2.3043,-2.2856,-2.2887,-2.2793,-2.2699,-2.2449,-2.2386,-2.248,-2.2779,-2.3496,-1.8389,-1.8084,-1.7962,-1.7792,-1.7514,-1.7188,-1.6924,-1.6682,-1.651,-1.6239,-1.6489,-1.9518,-2.0853,-2.0992,-2.4226,-2.5697,-2.5742,-2.6152,-2.6228,-2.6096,-2.6501,-2.6536,-2.6258,-2.5993,-2.5837,-2.5728,-2.5258,-2.4897,-2.4668,-2.4354,-2.4065,-2.3824,-2.38,-2.38,-2.38,-2.38,-2.3704,-2.3487,-2.308,-2.2816,-2.2683,-2.249,-2.2236,-2.1921,-2.1716,-2.1474,-2.1208,-2.099,-2.0882,-2.0882,-2.0688,-2.0738,-2.1148,-2.1002,-2.1075,-2.1426,-2.1474,-2.1535,-2.168,-2.1655,-2.1716,-2.1776,-2.1728,-2.1776,-2.1946,-2.1813,-2.1716,-2.1788,-2.1982,-2.2115,-2.2199,-2.2357,-2.2478,-2.2478,-2.2465,-2.2478,-2.2478,-2.2478,-2.2478,-2.2553,-2.2879,-2.2918,-2.262,-2.2918,-2.3054,-2.2593,-2.2548,-2.2998,-2.371,-2.3673,-2.3604,-2.3739,-2.4031,-2.4335,-2.4338,-2.4368,-2.4324,-2.4265,-2.4045,-2.3852,-2.372,-2.3486,-2.331,-2.3281,-2.3237,-2.3193,-2.3135,-2.3074,-2.3074,-2.3012,-2.2856,-2.2699,-2.2699,-2.2512,-2.2699,-1.8491,-1.8118,-1.8077,-1.7826,-1.7439,-1.7249,-1.7019,-1.6716,-1.6662,-1.6544,-1.6497,-1.826,-1.8937,-1.8964,-2.102,-2.1979,-2.2007,-2.356,-2.4317,-2.4534,-2.6162,-2.6813,-2.6446,-2.6226,-2.6017,-2.5764,-2.527,-2.5017,-2.4921,-2.4439,-2.4065,-2.3836,-2.38,-2.38,-2.38,-2.38,-2.3788,-2.3764,-2.3487,-2.314,-2.2719,-2.2671,-2.2417,-2.1921,-2.1897,-2.174,-2.1534,-2.145,-2.1438,-2.1438,-2.1378,-2.1414,-2.1474,-2.1414,-2.1462,-2.1498,-2.1498,-2.1716,-2.2163,-2.2224,-2.232,-2.2538,-2.2345,-2.2236,-2.2272,-2.2248,-2.2332,-2.2514,-2.2598,-2.2671,-2.2975,-2.3,-2.2949,-2.2937,-2.2988,-2.301,-2.3012,-2.3048,-2.301,-2.3048,-2.2795,-2.2368,-2.202,-2.1762,-2.1678,-2.1924,-2.2251,-2.2616,-2.293,-2.2785,-2.2714,-2.2954,-2.3866,-2.4791,-2.4834,-2.4998,-2.4822,-2.4617,-2.4529,-2.4353,-2.4133,-2.4016,-2.3896,-2.3588,-2.3545,-2.3457,-2.3237,-2.3106,-2.312,-2.3106,-2.3043,-2.3043,-2.3012,-2.2762,-2.2762,-1.8552,-1.8233,-1.8226,-1.7914,-1.7446,-1.7351,-1.7161,-1.689,-1.6736,-1.6628,-1.6595,-1.7099,-1.781,-1.8728,-2.0499,-2.1273,-2.1282,-2.2001,-2.231,-2.2356,-2.3193,-2.4067,-2.5003,-2.4857,-2.5152,-2.5962,-2.5644,-2.5294,-2.4957,-2.4451,-2.4065,-2.3836,-2.38,-2.38,-2.38,-2.38,-2.38,-2.38,-2.3704,-2.3463,-2.3164,-2.301,-2.2854,-2.2611,-2.2453,-2.2405,-2.2405,-2.2151,-2.2054,-2.2175,-2.1921,-2.1825,-2.197,-2.1982,-2.2054,-2.2199,-2.2357,-2.2538,-2.2744,-2.2768,-2.2804,-2.2913,-2.2866,-2.2756,-2.2756,-2.2768,-2.2877,-2.3043,-2.2889,-2.2744,-2.2864,-2.2985,-2.3121,-2.3121,-2.3121,-2.3121,-2.3121,-2.3121,-2.3121,-2.3082,-2.2927,-2.2481,-2.1735,-2.1045,-2.0742,-2.0901,-2.1208,-2.1536,-2.1967,-2.191,-2.2055,-2.2633,-2.3266,-2.3746,-2.4225,-2.4814,-2.4907,-2.4862,-2.4719,-2.4514,-2.4441,-2.4206,-2.4045,-2.3928,-2.3913,-2.3764,-2.3471,-2.3384,-2.3354,-2.3237,-2.3106,-2.3106,-2.3106,-2.2981,-2.2825,-1.8586,-1.8328,-1.8233,-1.7921,-1.744,-1.748,-1.7311,-1.7046,-1.6917,-1.6777,-1.6675,-1.6425,-1.697,-1.8154,-1.9336,-1.9789,-1.9715,-2.0153,-2.0334,-2.0381,-2.0844,-2.1896,-2.3208,-2.3646,-2.4274,-2.5281,-2.5679,-2.5511,-2.4993,-2.4451,-2.4089,-2.3933,-2.3836,-2.38,-2.38,-2.38,-2.38,-2.38,-2.38,-2.3704,-2.3523,-2.3369,-2.3227,-2.3082,-2.2901,-2.2927,-2.3097,-2.2719,-2.2598,-2.2818,-2.2429,-2.2308,-2.2502,-2.2514,-2.2598,-2.278,-2.3012,-2.3118,-2.3179,-2.3118,-2.3118,-2.3179,-2.313,-2.3121,-2.3121,-2.3121,-2.3167,-2.3261,-2.3056,-2.2949,-2.3034,-2.3191,-2.3288,-2.33,-2.33,-2.33,-2.3312,-2.33,-2.3324,-2.33,-2.3192,-2.2772,-2.1779,-2.0946,-2.0486,-2.0514,-2.0373,-2.0397,-2.1012,-2.1046,-2.1133,-2.1958,-2.2068,-2.2512,-2.3227,-2.3694,-2.4283,-2.4568,-2.4329,-2.4329,-2.46,-2.4499,-2.4294,-2.4324,-2.428,-2.4133,-2.3823,-2.372,-2.3618,-2.334,-2.3208,-2.3149,-2.3106,-2.3074,-2.3133,-1.8586,-1.8294,-1.8002,-1.7792,-1.7582,-1.7575,-1.746,-1.7168,-1.7161,-1.7012,-1.6709,-1.6585,-1.648,-1.6511,-1.6553,-1.6064,-1.6052,-1.771,-1.8416,-1.8464,-2.001,-2.1075,-2.1333,-2.2864,-2.3646,-2.4097,-2.5281,-2.556,-2.5017,-2.4487,-2.4186,-2.4174,-2.3969,-2.3824,-2.3848,-2.386,-2.3812,-2.3836,-2.3836,-2.38,-2.3776,-2.3764,-2.3538,-2.3179,-2.3109,-2.3082,-2.3094,-2.3058,-2.3058,-2.307,-2.301,-2.301,-2.3034,-2.3034,-2.3046,-2.3082,-2.3094,-2.3215,-2.333,-2.3225,-2.3227,-2.3318,-2.3237,-2.3145,-2.3155,-2.3155,-2.3179,-2.313,-2.3309,-2.3439,-2.3619,-2.3643,-2.3692,-2.3704,-2.374,-2.3728,-2.374,-2.368,-2.3764,-2.3688,-2.3373,-2.2819,-2.1961,-2.1297,-2.0895,-2.0748,-2.049,-2.0287,-2.0298,-2.019,-2.0183,-2.0369,-2.0848,-2.145,-2.2024,-2.267,-2.2958,-2.344,-2.3974,-2.3876,-2.4549,-2.5012,-2.4836,-2.469,-2.4617,-2.4456,-2.4206,-2.3998,-2.3866,-2.3647,-2.3384,-2.3281,-2.3252,-2.3164,-2.3223,-1.8593,-1.828,-1.7894,-1.769,-1.7588,-1.7494,-1.7385,-1.7202,-1.7195,-1.7087,-1.6897,-1.6682,-1.6533,-1.6435,-1.6239,-1.5981,-1.5786,-1.6259,-1.6466,-1.6576,-1.71,-1.8781,-2.1405,-2.1908,-2.3448,-2.5533,-2.6104,-2.5933,-2.5282,-2.4885,-2.462,-2.4463,-2.4395,-2.4306,-2.4306,-2.4306,-2.4222,-2.4065,-2.4053,-2.3969,-2.3812,-2.38,-2.3704,-2.3562,-2.3393,-2.3381,-2.355,-2.3276,-2.3239,-2.3538,-2.3276,-2.3155,-2.3285,-2.3309,-2.3381,-2.3538,-2.355,-2.3559,-2.3631,-2.3611,-2.3547,-2.3643,-2.3583,-2.3538,-2.3562,-2.355,-2.355,-2.3575,-2.3595,-2.3728,-2.3764,-2.38,-2.38,-2.38,-2.3812,-2.3824,-2.38,-2.38,-2.38,-2.372,-2.3251,-2.2688,-2.2326,-2.1673,-2.1122,-2.092,-2.0748,-2.0522,-2.0274,-2.0124,-2.0054,-1.9952,-2.0144,-2.0389,-2.0331,-2.1677,-2.2592,-2.3295,-2.377,-2.414,-2.4678,-2.5013,-2.4924,-2.491,-2.4866,-2.4763,-2.4499,-2.4221,-2.4104,-2.3969,-2.3706,-2.353,-2.3457,-2.3486,-2.3545,-1.8518,-1.8219,-1.7921,-1.7676,-1.7582,-1.7487,-1.7405,-1.7277,-1.7263,-1.7161,-1.6985,-1.687,-1.6662,-1.653,-1.6422,-1.6246,-1.603,-1.5696,-1.5588,-1.5566,-1.5377,-1.7191,-2.0206,-2.0955,-2.2785,-2.5558,-2.6265,-2.5755,-2.475,-2.4865,-2.4909,-2.4728,-2.4644,-2.4583,-2.4583,-2.4583,-2.4451,-2.4246,-2.4186,-2.4065,-2.3836,-2.38,-2.38,-2.3776,-2.3631,-2.3619,-2.38,-2.349,-2.3454,-2.3692,-2.349,-2.3393,-2.3511,-2.3535,-2.3619,-2.3776,-2.38,-2.38,-2.38,-2.38,-2.38,-2.38,-2.38,-2.38,-2.38,-2.38,-2.3836,-2.3897,-2.3933,-2.3945,-2.4041,-2.4065,-2.4029,-2.3969,-2.4005,-2.4053,-2.4053,-2.4065,-2.4065,-2.3996,-2.3439,-2.2947,-2.2659,-2.1929,-2.1322,-2.0949,-2.0802,-2.0533,-2.0296,-2.0134,-2.0102,-2.0022,-1.9962,-1.9984,-2.003,-2.0865,-2.1547,-2.2197,-2.3034,-2.3679,-2.443,-2.4775,-2.5028,-2.5047,-2.5042,-2.4954,-2.4763,-2.4485,-2.4338,-2.428,-2.4057,-2.3852,-2.3852,-2.391,-2.3954,-1.8369,-1.8124,-1.8084,-1.788,-1.7602,-1.7541,-1.748,-1.7412,-1.7405,-1.7243,-1.6998,-1.6978,-1.6809,-1.6564,-1.6524,-1.6435,-1.6259,-1.6037,-1.5791,-1.5627,-1.5493,-1.6561,-1.8769,-2.0153,-2.1735,-2.3774,-2.5111,-2.478,-2.3283,-2.4411,-2.5053,-2.4969,-2.4776,-2.4692,-2.462,-2.4656,-2.4511,-2.4318,-2.4258,-2.4101,-2.3848,-2.3812,-2.38,-2.38,-2.3776,-2.3776,-2.38,-2.3776,-2.3752,-2.3788,-2.3776,-2.3788,-2.3764,-2.3776,-2.38,-2.38,-2.38,-2.38,-2.38,-2.38,-2.3812,-2.3848,-2.3824,-2.386,-2.3909,-2.3897,-2.3969,-2.415,-2.421,-2.4282,-2.4475,-2.4535,-2.4451,-2.427,-2.4366,-2.4487,-2.4523,-2.4559,-2.4571,-2.4458,-2.3897,-2.3423,-2.2952,-2.2194,-2.1486,-2.1069,-2.0701,-2.0414,-2.035,-2.0199,-2.0097,-2.0113,-2.014,-2.0076,-2.0037,-2.0098,-2.0426,-2.0832,-2.1759,-2.255,-2.3628,-2.4191,-2.4636,-2.4764,-2.5047,-2.4993,-2.4998,-2.4734,-2.4661,-2.4573,-2.4368,-2.4188,-2.4174,-2.4218,-2.4338,-1.8423,-1.8213,-1.7852,-1.7683,-1.7568,-1.7426,-1.7358,-1.7419,-1.7419,-1.7256,-1.7039,-1.7087,-1.6904,-1.6619,-1.6574,-1.6547,-1.6442,-1.6252,-1.609,-1.592,-1.5683,-1.671,-1.8552,-1.9131,-2.0155,-2.1925,-2.3599,-2.3986,-2.3567,-2.474,-2.5463,-2.5282,-2.5186,-2.515,-2.5114,-2.5138,-2.5017,-2.4764,-2.4559,-2.433,-2.4077,-2.3897,-2.3812,-2.38,-2.38,-2.38,-2.38,-2.38,-2.38,-2.38,-2.38,-2.38,-2.3812,-2.38,-2.38,-2.38,-2.38,-2.38,-2.3812,-2.3824,-2.3909,-2.4029,-2.4077,-2.4174,-2.4318,-2.433,-2.4366,-2.4463,-2.4463,-2.4552,-2.4595,-2.4776,-2.4752,-2.4499,-2.4576,-2.462,-2.4632,-2.462,-2.4583,-2.4518,-2.4027,-2.3569,-2.3254,-2.2492,-2.1789,-2.1515,-2.1163,-2.0834,-2.0684,-2.0544,-2.055,-2.0518,-2.041,-2.0302,-2.0264,-2.0199,-2.0282,-2.0563,-2.1158,-2.1761,-2.2753,-2.3609,-2.408,-2.4598,-2.4852,-2.5076,-2.5066,-2.5012,-2.491,-2.491,-2.4793,-2.4661,-2.4529,-2.4543,-2.4646,-1.8579,-1.8362,-1.792,-1.769,-1.7568,-1.7317,-1.7243,-1.7338,-1.7399,-1.7256,-1.706,-1.7195,-1.6992,-1.6632,-1.6628,-1.6574,-1.6449,-1.6347,-1.6259,-1.613,-1.5859,-1.6855,-1.8753,-1.9337,-1.9397,-2.0363,-2.25,-2.3184,-2.2488,-2.4669,-2.5801,-2.5584,-2.5535,-2.5475,-2.5415,-2.5391,-2.527,-2.5017,-2.4824,-2.4607,-2.4366,-2.4174,-2.4089,-2.4101,-2.4089,-2.4101,-2.4101,-2.4089,-2.4005,-2.3872,-2.3897,-2.3945,-2.3957,-2.4041,-2.4089,-2.4089,-2.4101,-2.4101,-2.4101,-2.4125,-2.415,-2.4306,-2.4342,-2.4391,-2.4547,-2.4583,-2.4607,-2.4728,-2.474,-2.4776,-2.4897,-2.5029,-2.5053,-2.4909,-2.4909,-2.4885,-2.4885,-2.4885,-2.4897,-2.4831,-2.4472,-2.4075,-2.3622,-2.2883,-2.2091,-2.1811,-2.1341,-2.0985,-2.0813,-2.0798,-2.0744,-2.0701,-2.0604,-2.0539,-2.049,-2.0382,-2.0291,-2.0482,-2.0794,-2.1325,-2.2017,-2.2846,-2.3435,-2.4295,-2.4732,-2.5222,-2.5301,-2.5144,-2.5027,-2.5086,-2.5144,-2.4968,-2.4807,-2.488,-2.4939,-1.881,-1.8504,-1.8226,-1.7928,-1.7595,-1.7344,-1.7229,-1.7243,-1.7338,-1.7236,-1.708,-1.7249,-1.702,-1.6659,-1.6642,-1.6567,-1.6381,-1.6313,-1.6307,-1.6218,-1.61,-1.6774,-1.8112,-1.9227,-1.9049,-1.8639,-2.138,-2.2046,-2.0752,-2.4007,-2.5934,-2.5433,-2.5627,-2.5704,-2.5547,-2.5451,-2.5331,-2.5162,-2.5029,-2.4849,-2.462,-2.4559,-2.4547,-2.4535,-2.4523,-2.4523,-2.4511,-2.4499,-2.4318,-2.3957,-2.4113,-2.421,-2.4258,-2.4451,-2.4535,-2.4511,-2.4571,-2.4535,-2.4559,-2.4499,-2.4547,-2.4595,-2.4607,-2.462,-2.4692,-2.4752,-2.4812,-2.4993,-2.5029,-2.5114,-2.5282,-2.5355,-2.5343,-2.5379,-2.5306,-2.5306,-2.5379,-2.5355,-2.5294,-2.5282,-2.5107,-2.4783,-2.4164,-2.3301,-2.2584,-2.2007,-2.1442,-2.1119,-2.0942,-2.1007,-2.0831,-2.077,-2.0842,-2.0777,-2.0716,-2.064,-2.05,-2.0456,-2.0667,-2.0868,-2.1259,-2.1994,-2.3177,-2.4007,-2.4547,-2.5082,-2.5486,-2.5388,-2.5301,-2.533,-2.532,-2.5173,-2.513,-2.5159,-2.51,-1.881,-1.8518,-1.8335,-1.8084,-1.7785,-1.7487,-1.7358,-1.7344,-1.7277,-1.7161,-1.7053,-1.7175,-1.7053,-1.6669,-1.6675,-1.6648,-1.652,-1.6395,-1.6313,-1.6279,-1.6117,-1.6069,-1.6367,-1.6726,-1.6698,-1.6501,-1.8677,-1.9159,-1.8846,-2.2639,-2.4286,-2.4041,-2.5519,-2.6097,-2.6001,-2.5764,-2.5668,-2.5523,-2.5174,-2.4981,-2.4885,-2.4704,-2.4583,-2.4583,-2.4607,-2.4607,-2.4595,-2.4583,-2.4547,-2.4415,-2.4439,-2.4487,-2.4487,-2.4571,-2.4632,-2.4632,-2.462,-2.4595,-2.4607,-2.4607,-2.4692,-2.4873,-2.4885,-2.4981,-2.5162,-2.5174,-2.5222,-2.5294,-2.5294,-2.5306,-2.5379,-2.5391,-2.5391,-2.5391,-2.5367,-2.5379,-2.5379,-2.5391,-2.5391,-2.5367,-2.5138,-2.4897,-2.4592,-2.4057,-2.3499,-2.316,-2.2608,-2.1989,-2.1783,-2.1497,-2.1386,-2.1198,-2.1165,-2.1017,-2.0931,-2.0867,-2.0737,-2.0583,-2.0532,-2.0484,-2.0782,-2.1145,-2.2653,-2.4044,-2.4066,-2.4433,-2.5311,-2.5758,-2.5734,-2.5366,-2.5535,-2.5418,-2.533,-2.5301,-2.5203,-1.8938,-1.8694,-1.8437,-1.8145,-1.7895,-1.7548,-1.7385,-1.7317,-1.7236,-1.7154,-1.71,-1.7154,-1.7026,-1.6709,-1.6696,-1.6621,-1.6551,-1.6388,-1.6313,-1.63,-1.6218,-1.6058,-1.5806,-1.5581,-1.5459,-1.5622,-1.734,-1.8181,-1.8896,-2.2159,-2.3793,-2.4212,-2.5608,-2.6463,-2.6363,-2.5969,-2.5788,-2.5704,-2.5379,-2.5162,-2.515,-2.5017,-2.4957,-2.4933,-2.4921,-2.4921,-2.4921,-2.4933,-2.4836,-2.468,-2.468,-2.4752,-2.4776,-2.4873,-2.4921,-2.4921,-2.4921,-2.4933,-2.4921,-2.4921,-2.5005,-2.5126,-2.5162,-2.5234,-2.5343,-2.5391,-2.5391,-2.5391,-2.5391,-2.5391,-2.5391,-2.5391,-2.5343,-2.5246,-2.5234,-2.5234,-2.5234,-2.5102,-2.5065,-2.5041,-2.5029,-2.4945,-2.4861,-2.4431,-2.4163,-2.3891,-2.3301,-2.2943,-2.271,-2.235,-2.1943,-2.1758,-2.1476,-2.1286,-2.119,-2.1103,-2.0953,-2.0809,-2.0712,-2.055,-2.0621,-2.0849,-2.1912,-2.3211,-2.3463,-2.3865,-2.463,-2.5179,-2.5066,-2.4939,-2.5351,-2.5635,-2.5562,-2.5535,-2.5388,-1.9135,-1.8959,-1.8559,-1.8213,-1.7928,-1.7609,-1.7419,-1.7263,-1.7182,-1.7154,-1.7148,-1.7161,-1.7019,-1.6723,-1.6709,-1.6567,-1.6388,-1.6347,-1.6293,-1.6279,-1.6252,-1.6137,-1.5935,-1.573,-1.5655,-1.587,-1.7502,-1.7937,-1.8686,-2.1896,-2.378,-2.4063,-2.5605,-2.6649,-2.6602,-2.6266,-2.5977,-2.5928,-2.568,-2.5487,-2.5451,-2.5391,-2.5355,-2.5294,-2.5294,-2.5343,-2.5367,-2.5355,-2.5174,-2.474,-2.4933,-2.5029,-2.5065,-2.5282,-2.5355,-2.5343,-2.5306,-2.5331,-2.5367,-2.5318,-2.5355,-2.5367,-2.5367,-2.5391,-2.5391,-2.5391,-2.5391,-2.5391,-2.5391,-2.5391,-2.5391,-2.5379,-2.5282,-2.5138,-2.5053,-2.4969,-2.4957,-2.4764,-2.4583,-2.4595,-2.4824,-2.48,-2.4669,-2.4496,-2.4406,-2.4371,-2.3906,-2.3644,-2.328,-2.2751,-2.2455,-2.224,-2.1905,-2.1534,-2.1437,-2.1362,-2.1168,-2.0996,-2.0953,-2.0874,-2.0841,-2.1085,-2.1559,-2.2186,-2.2707,-2.3072,-2.3469,-2.3822,-2.4094,-2.4468,-2.4802,-2.5364,-2.5751,-2.5816,-2.5725,-1.923,-1.8979,-1.8891,-1.8674,-1.8348,-1.7948,-1.7684,-1.7521,-1.7168,-1.7046,-1.7032,-1.7032,-1.6992,-1.6924,-1.6763,-1.6655,-1.6547,-1.6415,-1.6252,-1.6151,-1.6266,-1.6205,-1.6029,-1.5879,-1.5811,-1.598,-1.607,-1.6319,-1.7084,-1.9008,-2.0803,-2.2417,-2.4156,-2.5854,-2.6888,-2.6566,-2.6608,-2.6415,-2.6138,-2.5928,-2.5716,-2.5692,-2.5608,-2.5451,-2.5415,-2.5511,-2.562,-2.5499,-2.5439,-2.5475,-2.5391,-2.5331,-2.5306,-2.5367,-2.5403,-2.5391,-2.5391,-2.5391,-2.5403,-2.5403,-2.5403,-2.5415,-2.5427,-2.5391,-2.5391,-2.5391,-2.5391,-2.5391,-2.5391,-2.5427,-2.5451,-2.5222,-2.521,-2.5198,-2.4957,-2.4788,-2.4897,-2.4752,-2.4583,-2.4583,-2.462,-2.4656,-2.4595,-2.4759,-2.4699,-2.4711,-2.4513,-2.4242,-2.3767,-2.3238,-2.2947,-2.274,-2.2214,-2.181,-2.1603,-2.1476,-2.1265,-2.1147,-2.1125,-2.1103,-2.1112,-2.1068,-2.1396,-2.1751,-2.208,-2.238,-2.2484,-2.3126,-2.3527,-2.3914,-2.4209,-2.467,-2.5076,-2.5484,-2.5829,-1.9298,-1.9088,-1.902,-1.8776,-1.8403,-1.803,-1.7779,-1.7582,-1.7175,-1.706,-1.7134,-1.7053,-1.7019,-1.7066,-1.6924,-1.6829,-1.6642,-1.6398,-1.6266,-1.6198,-1.6218,-1.6191,-1.6178,-1.6049,-1.5961,-1.5996,-1.5942,-1.5852,-1.6377,-1.7771,-1.9619,-2.0544,-2.2442,-2.4267,-2.5864,-2.5949,-2.606,-2.6486,-2.6451,-2.6246,-2.6017,-2.5957,-2.5837,-2.5632,-2.5584,-2.5656,-2.574,-2.5656,-2.5728,-2.5861,-2.5837,-2.5632,-2.5475,-2.5499,-2.5523,-2.5415,-2.5391,-2.5391,-2.5403,-2.5511,-2.5584,-2.5572,-2.5584,-2.5584,-2.5535,-2.5475,-2.5391,-2.5427,-2.5511,-2.562,-2.5728,-2.5535,-2.5451,-2.5294,-2.5041,-2.4824,-2.4776,-2.4571,-2.4403,-2.4403,-2.4391,-2.4403,-2.4487,-2.468,-2.4764,-2.4603,-2.4657,-2.4389,-2.4335,-2.3826,-2.3531,-2.3145,-2.2572,-2.2092,-2.1826,-2.1598,-2.1349,-2.1284,-2.1243,-2.1233,-2.1238,-2.1166,-2.1122,-2.1374,-2.1565,-2.1306,-2.149,-2.22,-2.273,-2.2819,-2.31,-2.3723,-2.4173,-2.4425,-2.4842,-1.9386,-1.9196,-1.9074,-1.8776,-1.8375,-1.807,-1.7867,-1.7615,-1.7243,-1.7182,-1.7297,-1.7093,-1.7039,-1.7107,-1.706,-1.6924,-1.6702,-1.6493,-1.6402,-1.6341,-1.6259,-1.6252,-1.6252,-1.6178,-1.609,-1.6139,-1.6098,-1.6056,-1.658,-1.7756,-1.8659,-1.9413,-2.0672,-2.2452,-2.3825,-2.4588,-2.5129,-2.5969,-2.6575,-2.662,-2.6355,-2.6327,-2.6146,-2.5897,-2.5849,-2.5897,-2.5945,-2.5921,-2.6013,-2.621,-2.6278,-2.5969,-2.5716,-2.568,-2.5764,-2.5547,-2.5584,-2.5596,-2.5644,-2.574,-2.5849,-2.5849,-2.5849,-2.5849,-2.5801,-2.5704,-2.562,-2.5632,-2.574,-2.5909,-2.6114,-2.5873,-2.568,-2.5547,-2.5294,-2.5029,-2.48,-2.4576,-2.4487,-2.4294,-2.4294,-2.427,-2.4306,-2.4427,-2.4487,-2.4535,-2.4559,-2.4559,-2.4453,-2.4169,-2.3704,-2.3259,-2.2581,-2.238,-2.2114,-2.2133,-2.1819,-2.1662,-2.1602,-2.1602,-2.1581,-2.1662,-2.1576,-2.0996,-2.0959,-2.0823,-2.0825,-2.1325,-2.1673,-2.1665,-2.2217,-2.3029,-2.3354,-2.3403,-2.3955,-1.9563,-1.9196,-1.9176,-1.8979,-1.8667,-1.8369,-1.8138,-1.7955,-1.7521,-1.7297,-1.7216,-1.706,-1.7005,-1.7053,-1.7134,-1.7073,-1.6937,-1.6761,-1.6567,-1.6537,-1.6463,-1.6449,-1.6368,-1.6307,-1.6218,-1.611,-1.6133,-1.6137,-1.6241,-1.66,-1.7623,-1.887,-1.9421,-2.0566,-2.2346,-2.3895,-2.444,-2.5054,-2.6133,-2.6737,-2.6556,-2.6599,-2.6451,-2.621,-2.623,-2.6315,-2.6367,-2.6258,-2.6278,-2.6487,-2.6524,-2.6343,-2.615,-2.617,-2.6158,-2.6037,-2.5969,-2.5945,-2.5969,-2.6054,-2.6114,-2.6114,-2.6114,-2.6158,-2.6146,-2.6097,-2.5969,-2.6029,-2.6054,-2.6138,-2.6194,-2.6061,-2.5933,-2.594,-2.5844,-2.5608,-2.5554,-2.5306,-2.5005,-2.4752,-2.4487,-2.4222,-2.4294,-2.4318,-2.4318,-2.4366,-2.4379,-2.433,-2.4229,-2.3855,-2.3388,-2.2935,-2.2503,-2.2429,-2.2418,-2.2506,-2.2459,-2.2335,-2.2272,-2.2295,-2.2313,-2.2389,-2.2144,-2.1547,-2.1148,-2.1075,-2.1033,-2.1029,-2.1085,-2.1401,-2.1958,-2.2517,-2.2689,-2.2935,-2.3782,-1.9657,-1.9318,-1.9237,-1.9081,-1.8837,-1.8477,-1.8233,-1.8036,-1.7623,-1.7385,-1.7283,-1.7168,-1.7141,-1.7209,-1.727,-1.7263,-1.7182,-1.7046,-1.6937,-1.6863,-1.6795,-1.6734,-1.6612,-1.651,-1.6449,-1.6354,-1.6232,-1.6123,-1.6191,-1.6262,-1.6786,-1.7268,-1.76,-1.8496,-2.0084,-2.126,-2.2481,-2.3229,-2.5047,-2.6072,-2.6029,-2.6429,-2.6864,-2.6813,-2.6713,-2.6785,-2.693,-2.6785,-2.6773,-2.6921,-2.6861,-2.674,-2.6713,-2.6713,-2.6653,-2.6307,-2.621,-2.6186,-2.6222,-2.6283,-2.6391,-2.6435,-2.6435,-2.6391,-2.6343,-2.6283,-2.627,-2.6355,-2.6403,-2.6451,-2.6584,-2.6331,-2.6295,-2.6307,-2.615,-2.6061,-2.6001,-2.5861,-2.562,-2.5313,-2.4861,-2.4571,-2.4391,-2.4354,-2.4234,-2.4198,-2.421,-2.4138,-2.4041,-2.3682,-2.3242,-2.3103,-2.2809,-2.2769,-2.2728,-2.274,-2.2906,-2.2843,-2.2797,-2.282,-2.2769,-2.274,-2.2533,-2.2121,-2.1769,-2.164,-2.1569,-2.1722,-2.1458,-2.1235,-2.1775,-2.2257,-2.2245,-2.2594,-2.3402,-1.9698,-1.942,-1.9264,-1.9122,-1.8938,-1.8579,-1.8328,-1.8118,-1.7792,-1.7589,-1.7487,-1.7365,-1.7338,-1.7399,-1.7419,-1.7426,-1.7385,-1.7297,-1.7222,-1.7182,-1.7073,-1.7012,-1.6944,-1.6795,-1.6666,-1.6686,-1.6449,-1.6185,-1.6171,-1.6198,-1.6171,-1.6409,-1.6232,-1.6715,-1.8146,-1.9331,-2.0001,-2.1334,-2.3227,-2.4324,-2.5069,-2.6061,-2.7116,-2.7451,-2.7304,-2.7292,-2.7413,-2.7247,-2.7235,-2.7319,-2.7317,-2.715,-2.722,-2.7389,-2.715,-2.662,-2.6508,-2.6472,-2.6532,-2.6536,-2.6668,-2.6668,-2.6668,-2.6668,-2.6644,-2.6548,-2.6463,-2.662,-2.668,-2.6728,-2.6837,-2.6728,-2.6632,-2.6608,-2.6439,-2.6258,-2.6258,-2.621,-2.6194,-2.5808,-2.5301,-2.5041,-2.4969,-2.4607,-2.4523,-2.4294,-2.4294,-2.4041,-2.3916,-2.3695,-2.3378,-2.3355,-2.3239,-2.3171,-2.3079,-2.2918,-2.308,-2.3189,-2.3154,-2.3165,-2.3073,-2.301,-2.2814,-2.2723,-2.2791,-2.2659,-2.2543,-2.2287,-2.2043,-2.1896,-2.1929,-2.2075,-2.2285,-2.2414,-2.2871,-1.9698,-1.936,-1.9264,-1.9122,-1.8979,-1.8776,-1.8613,-1.8443,-1.8247,-1.8057,-1.7785,-1.765,-1.7473,-1.7473,-1.7446,-1.7514,-1.7487,-1.7487,-1.7419,-1.7399,-1.7283,-1.7209,-1.7154,-1.7012,-1.6924,-1.6924,-1.6748,-1.6473,-1.6361,-1.6232,-1.613,-1.6153,-1.6173,-1.6318,-1.6857,-1.8061,-1.924,-1.9764,-2.1338,-2.3055,-2.4367,-2.4858,-2.5928,-2.711,-2.7494,-2.7587,-2.7694,-2.7727,-2.768,-2.768,-2.7727,-2.7703,-2.7727,-2.7739,-2.7751,-2.7582,-2.7437,-2.7235,-2.7208,-2.7111,-2.6994,-2.6994,-2.6981,-2.6945,-2.6945,-2.6921,-2.6873,-2.6909,-2.6921,-2.6945,-2.6957,-2.6765,-2.6753,-2.6753,-2.668,-2.656,-2.6536,-2.6536,-2.652,-2.6423,-2.5909,-2.5788,-2.5716,-2.5246,-2.4824,-2.4571,-2.433,-2.4125,-2.3904,-2.3755,-2.3532,-2.3532,-2.3463,-2.3395,-2.3478,-2.3293,-2.338,-2.3506,-2.3558,-2.3587,-2.3482,-2.3466,-2.3567,-2.3527,-2.3567,-2.3454,-2.3149,-2.2849,-2.2631,-2.2567,-2.26,-2.255,-2.2568,-2.2625,-2.2819,-1.9678,-1.9542,-1.9305,-1.9169,-1.9081,-1.8864,-1.8674,-1.8525,-1.8382,-1.8199,-1.7989,-1.7833,-1.7731,-1.767,-1.767,-1.7711,-1.7745,-1.769,-1.767,-1.7656,-1.7582,-1.7514,-1.7433,-1.7297,-1.7202,-1.7093,-1.6965,-1.6836,-1.6639,-1.6456,-1.6307,-1.6239,-1.6286,-1.6286,-1.6232,-1.7106,-1.7383,-1.7996,-1.938,-2.1344,-2.2789,-2.3372,-2.4212,-2.6346,-2.6328,-2.6919,-2.7842,-2.8089,-2.8041,-2.8005,-2.792,-2.7811,-2.786,-2.7932,-2.8029,-2.8017,-2.7932,-2.7787,-2.7596,-2.7534,-2.7461,-2.7461,-2.7461,-2.7486,-2.7403,-2.7295,-2.7329,-2.7473,-2.7138,-2.7078,-2.7126,-2.6957,-2.6921,-2.6909,-2.6933,-2.6861,-2.6813,-2.6813,-2.6777,-2.6692,-2.6596,-2.6439,-2.6246,-2.5837,-2.5451,-2.5222,-2.4969,-2.4728,-2.4463,-2.4205,-2.3932,-2.3652,-2.3555,-2.3511,-2.367,-2.3701,-2.3843,-2.3989,-2.4143,-2.4124,-2.4008,-2.4001,-2.4029,-2.4029,-2.3972,-2.3817,-2.3633,-2.3474,-2.331,-2.3274,-2.3279,-2.3253,-2.3265,-2.3451,-2.3606,-1.9725,-1.9698,-1.9373,-1.9237,-1.9176,-1.8925,-1.8735,-1.8586,-1.8491,-1.8348,-1.8179,-1.8009,-1.7976,-1.7956,-1.7922,-1.7888,-1.7908,-1.7915,-1.7915,-1.7915,-1.7908,-1.7785,-1.7677,-1.7561,-1.7473,-1.7351,-1.7195,-1.71,-1.7012,-1.6842,-1.6639,-1.6483,-1.653,-1.6517,-1.6456,-1.6567,-1.6607,-1.6607,-1.7714,-1.9437,-2.1063,-2.1354,-2.2645,-2.3886,-2.4746,-2.5484,-2.7372,-2.7555,-2.7426,-2.827,-2.8174,-2.8101,-2.8113,-2.8222,-2.8306,-2.8306,-2.827,-2.821,-2.8029,-2.7896,-2.7836,-2.7811,-2.7811,-2.7739,-2.7751,-2.7618,-2.7558,-2.7739,-2.7464,-2.7355,-2.7379,-2.7283,-2.7271,-2.7292,-2.7268,-2.7196,-2.709,-2.709,-2.7006,-2.6861,-2.6813,-2.6918,-2.6701,-2.6399,-2.609,-2.5873,-2.562,-2.5318,-2.4957,-2.4583,-2.4374,-2.408,-2.4004,-2.3958,-2.4006,-2.4167,-2.4286,-2.4411,-2.4566,-2.4547,-2.4366,-2.4294,-2.4294,-2.4294,-2.4294,-2.4277,-2.4132,-2.4064,-2.4005,-2.3939,-2.393,-2.4052,-2.414,-2.427,-2.4282,-1.9725,-1.9644,-1.9481,-1.9332,-1.9196,-1.904,-1.8884,-1.8749,-1.8793,-1.8626,-1.843,-1.8219,-1.8091,-1.8036,-1.7997,-1.7936,-1.7915,-1.7915,-1.7915,-1.7915,-1.7915,-1.7895,-1.7785,-1.7772,-1.7772,-1.7704,-1.7514,-1.7399,-1.7351,-1.7216,-1.706,-1.6944,-1.6842,-1.6709,-1.6628,-1.6574,-1.6432,-1.6286,-1.6714,-1.7566,-1.8878,-1.9577,-2.0461,-2.2028,-2.2663,-2.3452,-2.5513,-2.5663,-2.6472,-2.7948,-2.7985,-2.8356,-2.8332,-2.844,-2.8524,-2.8524,-2.8476,-2.8487,-2.8391,-2.8125,-2.7884,-2.7836,-2.786,-2.7932,-2.7956,-2.786,-2.7824,-2.786,-2.7727,-2.7715,-2.7751,-2.7751,-2.763,-2.7594,-2.7534,-2.7498,-2.7437,-2.7401,-2.7304,-2.7099,-2.7051,-2.7087,-2.7027,-2.6713,-2.6512,-2.6295,-2.5837,-2.5535,-2.5174,-2.4849,-2.4788,-2.4656,-2.4571,-2.4506,-2.4494,-2.4578,-2.4638,-2.4698,-2.4812,-2.4728,-2.4595,-2.4559,-2.4559,-2.4559,-2.4571,-2.4625,-2.4649,-2.4571,-2.4535,-2.4535,-2.4523,-2.4451,-2.4487,-2.4547,-2.4571,-1.98,-1.9718,-1.9596,-1.9481,-1.9332,-1.9183,-1.904,-1.8918,-1.8898,-1.8755,-1.8531,-1.8409,-1.826,-1.8118,-1.8043,-1.8004,-1.7929,-1.7915,-1.7922,-1.7915,-1.7915,-1.7812,-1.7792,-1.7806,-1.7812,-1.7758,-1.7677,-1.769,-1.7677,-1.7528,-1.7541,-1.7419,-1.7168,-1.6992,-1.6897,-1.6675,-1.6466,-1.6381,-1.6252,-1.6785,-1.6921,-1.7402,-1.8285,-2.0143,-2.0389,-2.1508,-2.317,-2.3511,-2.4834,-2.6115,-2.6658,-2.7442,-2.832,-2.8476,-2.8572,-2.8572,-2.8572,-2.8572,-2.8572,-2.8367,-2.8318,-2.8318,-2.8318,-2.8235,-2.8234,-2.8162,-2.8186,-2.8149,-2.8005,-2.792,-2.8029,-2.7908,-2.7775,-2.7811,-2.7811,-2.7787,-2.7727,-2.7679,-2.7546,-2.7341,-2.7256,-2.7174,-2.7123,-2.6991,-2.6837,-2.6692,-2.6198,-2.5784,-2.5415,-2.5114,-2.5041,-2.4981,-2.4897,-2.4861,-2.4836,-2.4873,-2.4897,-2.4957,-2.5017,-2.4945,-2.4861,-2.4849,-2.4849,-2.4836,-2.4861,-2.4909,-2.4969,-2.5053,-2.4993,-2.48,-2.4704,-2.4644,-2.4716,-2.4824,-2.4836,-1.9854,-1.9793,-1.9725,-1.961,-1.942,-1.9264,-1.9122,-1.9,-1.8932,-1.8816,-1.8599,-1.8552,-1.8373,-1.8253,-1.8165,-1.8118,-1.803,-1.8031,-1.7997,-1.7976,-1.7887,-1.7806,-1.7779,-1.7792,-1.7826,-1.7751,-1.7792,-1.7902,-1.7881,-1.7751,-1.7745,-1.7684,-1.7521,-1.729,-1.7066,-1.6723,-1.6486,-1.6463,-1.6374,-1.63,-1.6271,-1.6355,-1.6629,-1.8198,-1.834,-1.9412,-2.0887,-2.1577,-2.261,-2.4178,-2.5388,-2.6278,-2.7332,-2.8176,-2.8524,-2.8572,-2.8536,-2.8536,-2.8536,-2.8572,-2.862,-2.856,-2.8524,-2.8536,-2.8572,-2.8439,-2.8427,-2.8512,-2.8258,-2.8125,-2.8318,-2.821,-2.8137,-2.8186,-2.8186,-2.8149,-2.8005,-2.792,-2.7763,-2.7582,-2.7476,-2.7473,-2.7449,-2.7329,-2.7018,-2.6813,-2.6319,-2.5969,-2.5776,-2.5499,-2.527,-2.521,-2.5138,-2.5126,-2.5126,-2.5138,-2.515,-2.5174,-2.5222,-2.521,-2.5162,-2.5126,-2.5114,-2.5114,-2.515,-2.5222,-2.5246,-2.5234,-2.5114,-2.4933,-2.4909,-2.4933,-2.5005,-2.5114,-2.5114,-2.0003,-1.9875,-1.9861,-1.9698,-1.944,-1.9271,-1.9142,-1.9027,-1.8929,-1.8841,-1.8721,-1.8606,-1.8531,-1.8464,-1.8348,-1.828,-1.8226,-1.8131,-1.8077,-1.8036,-1.7989,-1.7956,-1.788,-1.7894,-1.7928,-1.7929,-1.7942,-1.7956,-1.7922,-1.7867,-1.7874,-1.7819,-1.7656,-1.744,-1.7365,-1.6919,-1.6709,-1.6662,-1.6592,-1.6449,-1.6388,-1.6435,-1.6651,-1.6811,-1.6976,-1.8094,-1.9039,-1.9482,-2.0566,-2.2354,-2.3938,-2.4851,-2.5566,-2.7073,-2.7691,-2.7837,-2.8006,-2.8139,-2.8356,-2.8404,-2.8235,-2.8488,-2.8572,-2.8572,-2.8572,-2.8596,-2.856,-2.856,-2.8476,-2.8536,-2.8596,-2.8596,-2.856,-2.8536,-2.8524,-2.8451,-2.8306,-2.8198,-2.8053,-2.7872,-2.7824,-2.7799,-2.7787,-2.7679,-2.7317,-2.6909,-2.6484,-2.6186,-2.6114,-2.6078,-2.5909,-2.5788,-2.574,-2.5668,-2.5668,-2.5451,-2.5403,-2.5415,-2.5379,-2.5343,-2.5343,-2.5294,-2.5306,-2.5355,-2.5343,-2.5318,-2.5355,-2.5379,-2.5246,-2.5138,-2.5246,-2.5282,-2.5355,-2.5355,-2.5306,-2.0105,-1.9875,-1.9875,-1.9759,-1.959,-1.9529,-1.942,-1.925,-1.9033,-1.8915,-1.8827,-1.8694,-1.862,-1.8538,-1.8484,-1.8416,-1.8328,-1.8294,-1.8219,-1.8104,-1.8118,-1.8091,-1.8063,-1.8077,-1.8091,-1.8036,-1.8009,-1.7948,-1.7922,-1.7955,-1.7935,-1.786,-1.7765,-1.7514,-1.7345,-1.7095,-1.7012,-1.6897,-1.6761,-1.6594,-1.6567,-1.6653,-1.6666,-1.669,-1.6693,-1.7137,-1.7778,-1.7866,-1.8885,-2.0469,-2.1954,-2.2631,-2.3442,-2.4929,-2.4906,-2.4864,-2.4776,-2.4762,-2.4762,-2.489,-2.6092,-2.7361,-2.8428,-2.8392,-2.8584,-2.8572,-2.8572,-2.8608,-2.8693,-2.8753,-2.8777,-2.8862,-2.8862,-2.8862,-2.8825,-2.8705,-2.8584,-2.8512,-2.8343,-2.8186,-2.8065,-2.7968,-2.792,-2.798,-2.7668,-2.7558,-2.7184,-2.6858,-2.6692,-2.6882,-2.6858,-2.6656,-2.6548,-2.6391,-2.6234,-2.5921,-2.5704,-2.5668,-2.5535,-2.5379,-2.5391,-2.5487,-2.5463,-2.553,-2.5439,-2.5403,-2.5475,-2.5511,-2.5427,-2.5379,-2.5415,-2.5403,-2.5391,-2.5379,-2.5367,-2.018,-1.9956,-1.9895,-1.9854,-1.9664,-1.9603,-1.9495,-1.9332,-1.9142,-1.8979,-1.8922,-1.8837,-1.8762,-1.8654,-1.8599,-1.8579,-1.847,-1.8409,-1.8319,-1.8253,-1.8274,-1.824,-1.8219,-1.8226,-1.8179,-1.8152,-1.8111,-1.8043,-1.8057,-1.8124,-1.8124,-1.803,-1.7874,-1.7799,-1.7629,-1.7439,-1.7229,-1.7134,-1.7,-1.6919,-1.6931,-1.6917,-1.6924,-1.6931,-1.6944,-1.7042,-1.691,-1.7092,-1.7467,-1.8646,-1.9604,-2.0306,-2.1535,-2.2347,-2.2565,-2.271,-2.2769,-2.2913,-2.3055,-2.3095,-2.4495,-2.5869,-2.7112,-2.8097,-2.8643,-2.8946,-2.8946,-2.8934,-2.8874,-2.897,-2.9103,-2.9151,-2.9127,-2.9115,-2.9019,-2.8849,-2.8825,-2.8741,-2.8681,-2.8475,-2.8343,-2.821,-2.8078,-2.8102,-2.8078,-2.8041,-2.7932,-2.7606,-2.7268,-2.7353,-2.7425,-2.7222,-2.7006,-2.6765,-2.6536,-2.6307,-2.6102,-2.5945,-2.5776,-2.5596,-2.5692,-2.5825,-2.5716,-2.5699,-2.5716,-2.574,-2.568,-2.5656,-2.5608,-2.5523,-2.5451,-2.5439,-2.5403,-2.5348,-2.5305,-2.0241,-2.0092,-1.9942,-1.98,-1.9651,-1.9529,-1.9373,-1.9223,-1.9217,-1.9128,-1.8993,-1.8979,-1.8891,-1.8847,-1.882,-1.8793,-1.8759,-1.8593,-1.8525,-1.8427,-1.843,-1.8369,-1.8308,-1.826,-1.8301,-1.8274,-1.8233,-1.8226,-1.8301,-1.8274,-1.8267,-1.826,-1.8097,-1.8016,-1.7867,-1.767,-1.746,-1.7385,-1.7311,-1.7256,-1.7216,-1.7209,-1.7175,-1.7154,-1.7121,-1.7121,-1.7114,-1.722,-1.722,-1.7949,-1.8828,-1.9464,-2.0396,-2.1586,-2.2232,-2.2457,-2.2223,-2.1961,-2.1864,-2.1729,-2.236,-2.3394,-2.4648,-2.6705,-2.8224,-2.8597,-2.8672,-2.9039,-2.9224,-2.932,-2.9405,-2.9369,-2.9332,-2.926,-2.9163,-2.9079,-2.9019,-2.8958,-2.891,-2.8801,-2.8705,-2.8608,-2.8548,-2.8548,-2.8427,-2.8343,-2.821,-2.798,-2.7679,-2.7546,-2.7594,-2.75,-2.7271,-2.7018,-2.6813,-2.6692,-2.6415,-2.6246,-2.6102,-2.5969,-2.6078,-2.6102,-2.5981,-2.5957,-2.6078,-2.6078,-2.5945,-2.5873,-2.5825,-2.5728,-2.568,-2.5499,-2.5475,-2.5232,-2.5134,-2.0329,-2.0098,-2.0051,-1.9895,-1.9671,-1.9617,-1.9508,-1.9373,-1.9359,-1.9278,-1.9135,-1.9033,-1.8979,-1.8918,-1.8875,-1.8834,-1.8742,-1.8708,-1.862,-1.8579,-1.8572,-1.8545,-1.8518,-1.8491,-1.8511,-1.847,-1.8416,-1.8362,-1.8335,-1.8335,-1.8403,-1.8423,-1.8226,-1.8138,-1.8023,-1.7853,-1.7704,-1.7527,-1.75,-1.7487,-1.744,-1.748,-1.7439,-1.7412,-1.7372,-1.7344,-1.7236,-1.7216,-1.7175,-1.7376,-1.7591,-1.7865,-1.7955,-1.8418,-1.8655,-1.8633,-1.8521,-1.8417,-1.8618,-1.8751,-1.9394,-2.0703,-2.1731,-2.3859,-2.5803,-2.7236,-2.7794,-2.8547,-2.9377,-2.9574,-2.9658,-2.9658,-2.9598,-2.9501,-2.9429,-2.9369,-2.9296,-2.92,-2.9151,-2.9103,-2.9006,-2.8922,-2.8886,-2.8765,-2.8656,-2.8584,-2.8463,-2.827,-2.8077,-2.7932,-2.7824,-2.7741,-2.7741,-2.7594,-2.7319,-2.722,-2.6825,-2.6536,-2.6451,-2.6355,-2.6387,-2.6375,-2.6222,-2.6234,-2.6399,-2.6283,-2.6138,-2.609,-2.6078,-2.6066,-2.5993,-2.5752,-2.5504,-2.5278,-2.4925,-2.0253,-2.0105,-2.0031,-1.9875,-1.9745,-1.9725,-1.9603,-1.9529,-1.9522,-1.9434,-1.9291,-1.921,-1.9101,-1.8979,-1.8891,-1.8881,-1.882,-1.8813,-1.8708,-1.8687,-1.8773,-1.8681,-1.8681,-1.8654,-1.8626,-1.8599,-1.8565,-1.8504,-1.847,-1.8498,-1.8559,-1.8586,-1.8328,-1.8213,-1.8118,-1.7968,-1.7826,-1.7731,-1.7677,-1.767,-1.7622,-1.7622,-1.7595,-1.7582,-1.7554,-1.7446,-1.7317,-1.7277,-1.7222,-1.7141,-1.7121,-1.7066,-1.7099,-1.7124,-1.7129,-1.7252,-1.7262,-1.7294,-1.7402,-1.7318,-1.7901,-1.8581,-1.9141,-2.0735,-2.3342,-2.5408,-2.6732,-2.8001,-2.9016,-2.9791,-2.9888,-2.9948,-2.9876,-2.9791,-2.9743,-2.9707,-2.9586,-2.9465,-2.9405,-2.9369,-2.9296,-2.9212,-2.9103,-2.8982,-2.8922,-2.8934,-2.8862,-2.8681,-2.8463,-2.827,-2.8162,-2.8089,-2.8186,-2.8186,-2.7932,-2.763,-2.7343,-2.7078,-2.6957,-2.6894,-2.6773,-2.6761,-2.681,-2.6737,-2.6653,-2.6592,-2.6475,-2.6379,-2.6343,-2.6331,-2.6182,-2.5866,-2.5624,-2.5382,-2.4936,-2.0261,-2.0112,-1.9956,-1.9827,-1.9691,-1.9752,-1.9732,-1.9725,-1.9711,-1.9576,-1.9461,-1.9427,-1.9271,-1.9101,-1.9,-1.8898,-1.883,-1.8847,-1.882,-1.8813,-1.8807,-1.8793,-1.8701,-1.864,-1.8674,-1.8681,-1.866,-1.8626,-1.8715,-1.8708,-1.8687,-1.8742,-1.845,-1.8294,-1.824,-1.7996,-1.7853,-1.7874,-1.7861,-1.7861,-1.7792,-1.7745,-1.7602,-1.7575,-1.7494,-1.7439,-1.7419,-1.7412,-1.7419,-1.7365,-1.7283,-1.7182,-1.71,-1.7046,-1.6992,-1.6978,-1.6951,-1.6958,-1.6971,-1.6978,-1.6978,-1.7241,-1.7083,-1.8455,-2.082,-2.325,-2.4828,-2.6571,-2.7587,-2.8611,-2.8882,-2.9727,-3.0045,-2.9972,-2.9924,-2.9912,-2.9851,-2.9755,-2.9707,-2.9646,-2.955,-2.9465,-2.9405,-2.9284,-2.9151,-2.9236,-2.9127,-2.8946,-2.8825,-2.8596,-2.8475,-2.8379,-2.8306,-2.8318,-2.8174,-2.7932,-2.7896,-2.7668,-2.7498,-2.7425,-2.7317,-2.7353,-2.7425,-2.722,-2.6991,-2.6979,-2.6873,-2.6728,-2.6563,-2.6417,-2.6232,-2.592,-2.5648,-2.536,-2.4889,-2.041,-2.0268,-2.0112,-1.9963,-1.9888,-1.9888,-1.9814,-1.9725,-1.9725,-1.9698,-1.959,-1.9488,-1.9393,-1.9291,-1.9081,-1.8966,-1.8925,-1.8803,-1.8827,-1.882,-1.882,-1.882,-1.882,-1.8708,-1.8728,-1.8793,-1.8728,-1.8708,-1.8807,-1.882,-1.8807,-1.8728,-1.8484,-1.8342,-1.8321,-1.8043,-1.797,-1.7949,-1.7942,-1.7936,-1.7902,-1.7826,-1.7772,-1.769,-1.7527,-1.7453,-1.7419,-1.7419,-1.7419,-1.7392,-1.7263,-1.7148,-1.7085,-1.6998,-1.6978,-1.6978,-1.6978,-1.6978,-1.6978,-1.6978,-1.6978,-1.6978,-1.7031,-1.7293,-1.8529,-2.0652,-2.2657,-2.4412,-2.5964,-2.705,-2.798,-2.901,-2.9784,-2.9724,-2.9727,-2.9727,-2.9778,-2.9831,-2.9783,-2.99,-2.9791,-2.9631,-2.9521,-2.9586,-2.9441,-2.9296,-2.9127,-2.9006,-2.9031,-2.8898,-2.8777,-2.8632,-2.8318,-2.8258,-2.821,-2.8137,-2.8053,-2.798,-2.7775,-2.7775,-2.7824,-2.7775,-2.7691,-2.7498,-2.7329,-2.7222,-2.7068,-2.6969,-2.6795,-2.6464,-2.6179,-2.5834,-2.5317,-2.4947,-2.4587,-2.0395,-2.0246,-2.0092,-1.9949,-1.9936,-1.9868,-1.9732,-1.9732,-1.9725,-1.9725,-1.9718,-1.9569,-1.9501,-1.942,-1.9183,-1.9033,-1.8979,-1.883,-1.8834,-1.882,-1.882,-1.882,-1.882,-1.882,-1.8813,-1.882,-1.882,-1.8813,-1.882,-1.882,-1.8807,-1.8721,-1.8525,-1.8396,-1.8375,-1.8179,-1.8016,-1.8031,-1.8017,-1.7983,-1.7942,-1.7908,-1.7785,-1.769,-1.7575,-1.7507,-1.7419,-1.7419,-1.7419,-1.7378,-1.727,-1.7127,-1.7032,-1.6985,-1.6978,-1.6978,-1.6978,-1.6978,-1.6978,-1.6978,-1.6978,-1.6978,-1.6978,-1.7188,-1.7188,-1.9201,-2.0183,-2.1933,-2.4154,-2.5399,-2.545,-2.622,-2.6425,-2.6393,-2.6598,-2.6751,-2.7527,-2.8229,-2.903,-3.0081,-2.9656,-2.8925,-2.9092,-2.996,-2.9839,-2.9741,-2.95,-2.9159,-2.9185,-2.9248,-2.9127,-2.8934,-2.8644,-2.8439,-2.8427,-2.8306,-2.8149,-2.8077,-2.8041,-2.8029,-2.8041,-2.8017,-2.7932,-2.7775,-2.7572,-2.7289,-2.7169,-2.7015,-2.6541,-2.6026,-2.5878,-2.5707,-2.5173,-2.4671,-2.4482,-2.0395,-2.0295,-2.0051,-1.9908,-1.9854,-1.9746,-1.9745,-1.9725,-1.9725,-1.9725,-1.9725,-1.9718,-1.9576,-1.9454,-1.9298,-1.9156,-1.902,-1.8898,-1.8823,-1.882,-1.882,-1.882,-1.882,-1.882,-1.882,-1.882,-1.882,-1.882,-1.882,-1.882,-1.8807,-1.8728,-1.864,-1.8467,-1.8434,-1.8382,-1.8233,-1.8131,-1.8077,-1.8065,-1.7997,-1.7929,-1.7792,-1.7717,-1.7615,-1.7609,-1.7534,-1.7487,-1.7494,-1.7439,-1.7372,-1.7182,-1.706,-1.7005,-1.6978,-1.6978,-1.6978,-1.6978,-1.6978,-1.6978,-1.6978,-1.6978,-1.6978,-1.7031,-1.7031,-1.7496,-1.8477,-1.9767,-2.1933,-2.3123,-2.3226,-2.3691,-2.3742,-2.3845,-2.4103,-2.4679,-2.5861,-2.6896,-2.8246,-2.9694,-2.9327,-2.8478,-2.8591,-2.9518,-2.9557,-2.9584,-2.9614,-2.9483,-2.9391,-2.9521,-2.955,-2.932,-2.9043,-2.8874,-2.8705,-2.8427,-2.8222,-2.8343,-2.8318,-2.8282,-2.8258,-2.8258,-2.8222,-2.8113,-2.7862,-2.7483,-2.7142,-2.6931,-2.6352,-2.5765,-2.5639,-2.5557,-2.5108,-2.4728,-2.4548,-2.0395,-2.0259,-2.0261,-2.0098,-1.9888,-1.9902,-1.9766,-1.9732,-1.9725,-1.9725,-1.9725,-1.9725,-1.963,-1.9603,-1.9454,-1.9305,-1.9156,-1.9,-1.8857,-1.8834,-1.8827,-1.882,-1.8834,-1.8847,-1.8827,-1.8827,-1.8827,-1.8827,-1.882,-1.882,-1.882,-1.8807,-1.862,-1.8481,-1.8518,-1.8423,-1.8335,-1.826,-1.8179,-1.8104,-1.8043,-1.7962,-1.7922,-1.7826,-1.7819,-1.788,-1.7901,-1.7895,-1.7874,-1.7812,-1.7595,-1.7344,-1.7175,-1.7066,-1.7019,-1.7005,-1.6998,-1.6978,-1.6978,-1.6978,-1.6978,-1.6978,-1.6978,-1.6978,-1.7031,-1.7031,-1.7699,-1.7908,-1.9662,-2.0696,-2.1155,-2.245,-2.2864,-2.3019,-2.3226,-2.4361,-2.5553,-2.622,-2.7112,-2.8297,-2.8857,-2.7878,-2.6998,-2.7254,-2.6732,-2.6875,-2.713,-2.7134,-2.7479,-2.8509,-2.951,-2.9122,-2.8652,-2.9188,-2.897,-2.85,-2.8306,-2.8475,-2.8584,-2.8487,-2.8463,-2.8536,-2.8475,-2.8188,-2.7973,-2.7664,-2.7333,-2.6666,-2.6223,-2.5712,-2.5593,-2.5404,-2.4927,-2.4664,-2.4427]},{"header":{"parameterUnit":"m.s-1","parameterCategory":1,"la1":31.0,"la2":29.5877,"lo1":-88.7671,"lo2":-86.6584,"dy":0.0162,"dx":0.0185,"nx":115,"ny":88,"refTime":"2024-06-16T18:00:00:Z","depth":0,"parameterNumber":3,"parameterNumberName":"V-component_of_WINDS"},"data":[0.0,0.0,0.0,0.0,0.0,0.0,0.0,0.0,0.0,0.0,0.0,0.0,0.0,0.0,0.0,0.0,0.0,0.0,0.0,0.0,0.0,0.0,0.0,0.0,0.0,0.0,0.0,0.0,0.0,0.0,0.0,0.0,0.0,0.0,0.0,0.0,0.0,0.0,0.0,0.0,0.0,0.0,0.0,0.0,0.0,0.0,0.0,0.0,0.0,0.0,0.0,0.0,0.0,0.0,0.0,0.0,0.0,0.0,0.0,0.0,0.0,0.0,0.0,0.0,0.0,0.0,0.0,0.0,0.0,0.0,0.0,0.0,0.0,0.0,0.0,0.0,0.0,0.0,0.0,0.0,0.0,0.0,0.0,0.0,0.0,0.0,0.0,0.0,0.0,0.0,0.0,0.0,0.0,0.0,0.0,0.0,0.0,0.0,0.0,0.0,0.0,0.0,0.0,0.0,0.0,0.0,0.0,0.0,0.0,0.0,0.0,0.0,0.0,0.0,0.0,0.0,0.0,0.0,0.0,0.0,0.0,0.0,0.0,0.0,0.0,0.0,0.0,0.0,0.0,0.0,0.0,0.0,0.0,0.0,0.0,0.0,0.0,0.0,0.0,0.0,0.0,0.0,0.0,0.0,0.0,0.0,0.0,0.0,0.0,0.0,0.0,0.0,0.0,0.0,0.0,0.0,0.0,0.0,0.0,0.0,0.0,0.0,0.0,0.0,0.0,0.0,0.0,0.0,0.0,0.0,0.0,0.0,0.0,0.0,0.0,0.0,0.0,0.0,0.0,0.0,0.0,0.0,0.0,0.0,0.0,0.0,0.0,0.0,0.0,0.0,0.0,0.0,0.0,0.0,0.0,0.0,0.0,0.0,0.0,0.0,0.0,0.0,0.0,0.0,0.0,0.0,0.0,0.0,0.0,0.0,0.0,0.0,0.0,0.0,0.0,0.0,0.0,0.0,0.0,0.0,0.0,0.0,0.0,0.0,0.0,0.0,0.0,0.0,0.0,0.0,0.0,0.0,0.0,0.0,0.0,0.0,0.0,0.0,0.0,0.0,0.0,0.0,0.0,0.0,0.0,0.0,0.0,0.0,0.0,0.0,0.0,0.0,0.0,0.0,0.0,0.0,0.0,0.0,0.0,0.0,0.0,0.0,0.0,0.0,0.0,0.0,0.0,0.0,0.0,0.0,0.0,0.0,0.0,0.0,0.0,0.0,0.0,0.0,0.0,0.0,0.0,0.0,0.0,0.0,0.0,0.0,0.0,0.0,0.0,0.0,0.0,0.0,0.0,0.0,0.0,0.0,0.0,0.0,0.0,0.0,0.0,0.0,0.0,0.0,0.0,0.0,0.0,0.0,0.0,0.0,0.0,0.0,0.0,0.0,0.0,0.0,0.0,0.0,0.0,0.0,0.0,0.0,0.0,0.0,0.0,0.0,0.0,0.0,0.0,0.0,0.0,0.0,0.0,0.0,0.0,0.0,0.0,0.0,0.0,0.0,0.0,0.0,0.0,0.0,0.0,0.0,0.0,0.0,0.0,0.0,0.0,0.0,0.0,0.0,0.0,0.0,0.0,0.0,0.0,0.0,0.0,0.0,0.0,0.0,0.0,0.0,0.0,0.0,0.0,0.0,0.0,0.0,0.0,0.0,0.0,0.0,0.0,0.0,0.0,0.0,0.0,0.0,0.0,0.0,0.0,0.0,0.0,0.0,0.0,0.0,0.0,0.0,0.0,0.0,0.0,0.0,0.0,0.0,0.0,0.0,0.0,0.0,0.0,0.0,0.0,0.0,0.0,0.0,0.0,0.0,0.0,0.0,0.0,0.0,0.0,0.0,0.0,0.0,0.0,0.0,0.0,0.0,0.0,0.0,0.0,0.0,0.0,0.0,0.0,0.0,0.0,0.0,0.0,0.0,0.0,0.0,0.0,0.0,0.0,0.0,0.0,0.0,0.0,0.0,0.0,0.0,0.0,0.0,0.0,0.0,0.0,0.0,0.0,0.0,0.0,0.0,0.0,0.0,0.0,0.0,0.0,0.0,0.0,0.0,0.0,0.0,0.0,0.0,0.0,0.0,0.0,0.0,0.0,0.0,0.0,0.0,0.0,0.0,0.0,0.0,0.0,0.0,0.0,0.0,0.0,0.0,0.0,0.0,0.0,0.0,0.0,0.0,0.0,0.0,0.0,0.0,0.0,0.0,0.0,0.0,0.0,0.0,0.0,0.0,0.0,0.0,0.0,0.0,0.0,0.0,0.0,0.0,0.0,0.0,0.0,0.0,0.0,0.0,0.0,0.0,0.0,0.0,0.0,0.0,0.0,0.0,0.0,0.0,0.0,0.0,0.0,0.0,0.0,0.0,0.0,0.0,0.0,0.0,0.0,0.0,0.0,0.0,0.0,0.0,0.0,0.0,0.0,0.0,0.0,0.0,0.0,0.0,0.0,0.0,0.0,0.0,0.0,0.0,0.0,0.0,0.0,0.0,0.0,0.0,0.0,0.0,0.0,0.0,0.0,0.0,0.0,0.0,0.0,0.0,0.0,0.0,0.0,0.0,0.0,0.0,0.0,0.0,0.0,0.0,0.0,0.0,0.0,0.0,0.0,0.0,0.0,0.0,0.0,0.0,0.0,0.0,0.0,0.0,0.0,0.0,0.0,0.0,0.0,0.0,0.0,0.0,0.0,0.0,0.0,0.0,0.0,0.0,0.0,0.0,0.0,0.0,0.0,0.0,0.0,0.0,0.0,0.0,0.0,0.0,0.0,0.0,0.0,0.0,0.0,0.0,0.0,0.0,0.0,0.0,0.0,0.0,0.0,0.0,0.0,0.0,0.0,0.0,0.0,0.0,0.0,0.0,0.0,0.0,0.0,0.0,0.0,0.0,0.0,0.0,0.0,0.0,0.0,0.0,0.0,0.0,0.0,0.0,0.0,0.0,0.0,0.0,0.0,0.0,0.0,0.0,0.0,0.0,0.0,0.0,0.0,0.0,0.0,0.0,0.0,0.0,0.0,0.0,0.0,0.0,0.0,0.0,0.0,0.0,0.0,0.0,0.0,0.0,0.0,0.0,0.0,0.0,0.0,0.0,0.0,0.0,0.0,0.0,0.0,0.0,0.0,0.0,0.0,0.0,0.0,0.0,0.0,0.0,0.0,0.0,0.0,0.0,0.0,0.0,0.0,0.0,0.0,0.0,0.0,0.0,0.0,0.0,0.0,0.0,0.0,0.0,0.0,0.0,0.0,0.0,0.0,0.0,0.0,0.0,0.0,0.0,0.0,0.0,0.0,0.0,0.0,0.0,0.0,0.0,0.0,0.0,0.0,0.0,0.0,0.0,0.0,0.0,0.0,0.0,0.0,0.0,0.0,0.0,0.0,0.0,0.0,0.0,0.0,0.0,0.0,0.0,0.0,0.0,0.0,0.0,0.0,0.0,0.0,0.0,0.0,0.0,0.0,0.0,0.0,0.0,0.0,0.0,0.0,0.0,0.0,0.0,0.0,0.0,0.0,0.0,0.0,0.0,0.0,0.0,0.0,0.0,0.0,0.0,0.0,0.0,0.0,0.0,0.0,0.0,0.0,0.0,0.0,0.0,0.0,0.0,0.0,0.0,0.0,0.0,0.0,0.0,0.0,0.0,0.0,0.0,0.0,0.0,0.0,0.0,0.0,0.0,0.0,0.0,0.0,0.0,0.0,0.0,0.0,0.0,0.0,0.0,0.0,0.0,0.0,0.0,0.0,0.0,0.0,0.0,0.0,0.0,0.0,0.0,0.0,0.0,0.0,0.0,0.0,0.0,0.0,0.0,0.0,0.0,0.0,0.0,0.0,0.0,0.0,0.0,0.0,0.0,0.0,0.0,0.0,0.0,0.0,0.0,0.0,0.0,0.0,0.0,0.0,0.0,0.0,0.0,0.0,0.0,0.0,0.0,0.0,0.0,0.0,0.0,0.0,0.0,0.0,0.0,0.0,0.0,0.0,0.0,0.0,0.0,0.0,0.0,0.0,0.0,0.0,0.0,0.0,0.0,0.0,0.0,0.0,0.0,0.0,0.0,0.0,0.0,0.0,0.0,0.0,0.0,0.0,0.0,0.0,0.0,0.0,0.0,0.0,0.0,0.0,0.0,0.0,0.0,0.0,0.0,0.0,0.0,0.0,0.0,0.0,0.0,0.0,0.0,0.0,0.0,0.0,0.0,0.0,0.0,0.0,0.0,0.0,0.0,0.0,0.0,0.0,0.0,0.0,0.0,0.0,0.0,0.0,0.0,0.0,0.0,2.9827,0.0,0.0,0.0,0.0,0.0,0.0,0.0,0.0,0.0,0.0,0.0,0.0,0.0,0.0,0.0,0.0,0.0,0.0,0.0,0.0,0.0,0.0,0.0,0.0,0.0,0.0,0.0,0.0,0.0,0.0,0.0,0.0,0.0,0.0,0.0,0.0,0.0,0.0,0.0,0.0,0.0,0.0,0.0,0.0,0.0,0.0,0.0,0.0,0.0,0.0,0.0,0.0,0.0,0.0,0.0,0.0,0.0,0.0,0.0,0.0,0.0,0.0,0.0,0.0,0.0,0.0,0.0,0.0,0.0,0.0,0.0,0.0,0.0,0.0,0.0,0.0,0.0,0.0,0.0,0.0,0.0,0.0,0.0,0.0,0.0,0.0,0.0,0.0,0.0,0.0,0.0,0.0,0.0,0.0,0.0,0.0,0.0,0.0,0.0,0.0,0.0,0.0,0.0,0.0,0.0,0.0,0.0,0.0,0.0,0.0,3.278,3.3105,3.2416,3.124,2.9431,0.0,0.0,0.0,0.0,0.0,0.0,0.0,0.0,0.0,0.0,0.0,0.0,0.0,0.0,0.0,0.0,0.0,0.0,0.0,0.0,0.0,0.0,0.0,0.0,0.0,0.0,0.0,0.0,0.0,0.0,0.0,0.0,0.0,0.0,0.0,0.0,0.0,0.0,0.0,0.0,0.0,0.0,0.0,0.0,0.0,0.0,0.0,0.0,0.0,0.0,0.0,0.0,0.0,0.0,0.0,0.0,0.0,0.0,0.0,0.0,0.0,0.0,0.0,0.0,0.0,0.0,0.0,0.0,0.0,0.0,0.0,0.0,0.0,0.0,0.0,0.0,0.0,0.0,0.0,0.0,0.0,0.0,0.0,0.0,0.0,0.0,0.0,0.0,0.0,0.0,0.0,0.0,0.0,0.0,0.0,0.0,0.0,0.0,0.0,0.0,0.0,0.0,0.0,0.0,0.0,0.0,0.0,0.0,0.0,0.0,0.0,0.0,3.372,3.2048,2.9368,0.0,0.0,0.0,0.0,0.0,0.0,0.0,0.0,0.0,0.0,0.0,0.0,0.0,0.0,0.0,0.0,0.0,0.0,0.0,0.0,0.0,0.0,0.0,0.0,0.0,0.0,0.0,0.0,0.0,0.0,0.0,0.0,0.0,0.0,0.0,0.0,0.0,0.0,0.0,0.0,0.0,0.0,0.0,0.0,0.0,0.0,0.0,0.0,0.0,0.0,0.0,0.0,0.0,0.0,0.0,0.0,0.0,0.0,0.0,0.0,0.0,0.0,0.0,0.0,0.0,0.0,0.0,0.0,0.0,0.0,0.0,0.0,0.0,0.0,0.0,0.0,0.0,0.0,0.0,0.0,0.0,0.0,0.0,0.0,0.0,0.0,0.0,0.0,0.0,0.0,0.0,0.0,0.0,0.0,0.0,0.0,0.0,0.0,0.0,0.0,0.0,0.0,0.0,0.0,0.0,0.0,0.0,0.0,0.0,0.0,3.3681,3.665,3.5985,0.0,3.0979,0.0,0.0,0.0,0.0,0.0,0.0,0.0,0.0,0.0,0.0,0.0,0.0,0.0,0.0,0.0,0.0,0.0,0.0,0.0,0.0,0.0,0.0,0.0,0.0,0.0,0.0,0.0,0.0,0.0,0.0,0.0,0.0,0.0,0.0,0.0,0.0,0.0,0.0,0.0,0.0,0.0,0.0,0.0,0.0,0.0,0.0,0.0,0.0,0.0,0.0,0.0,0.0,0.0,0.0,0.0,0.0,0.0,0.0,0.0,0.0,0.0,0.0,0.0,0.0,0.0,0.0,0.0,0.0,0.0,0.0,0.0,0.0,0.0,0.0,0.0,0.0,0.0,0.0,0.0,0.0,0.0,0.0,0.0,0.0,0.0,0.0,0.0,0.0,0.0,0.0,0.0,0.0,0.0,0.0,0.0,0.0,0.0,0.0,0.0,0.0,0.0,0.0,0.0,0.0,0.0,0.0,0.0,0.0,0.0,0.0,3.4701,3.7035,3.4851,3.2775,0.0,0.0,0.0,0.0,0.0,0.0,0.0,0.0,0.0,0.0,0.0,0.0,0.0,0.0,0.0,0.0,0.0,0.0,0.0,0.0,0.0,0.0,0.0,0.0,0.0,0.0,0.0,0.0,0.0,0.0,0.0,0.0,0.0,0.0,0.0,0.0,0.0,0.0,0.0,0.0,0.0,0.0,0.0,0.0,0.0,0.0,0.0,0.0,0.0,0.0,0.0,0.0,0.0,0.0,0.0,0.0,0.0,0.0,0.0,0.0,0.0,0.0,0.0,0.0,0.0,0.0,0.0,0.0,0.0,0.0,0.0,0.0,0.0,0.0,0.0,0.0,0.0,0.0,0.0,0.0,0.0,0.0,0.0,0.0,0.0,0.0,0.0,0.0,0.0,0.0,0.0,0.0,0.0,0.0,0.0,0.0,0.0,0.0,0.0,0.0,0.0,0.0,0.0,0.0,0.0,0.0,0.0,0.0,0.0,0.0,3.4485,0.0,3.7211,3.5016,3.2825,3.0968,0.0,0.0,0.0,0.0,0.0,0.0,0.0,0.0,0.0,0.0,0.0,0.0,0.0,0.0,0.0,0.0,0.0,0.0,0.0,0.0,0.0,0.0,0.0,0.0,0.0,0.0,0.0,0.0,0.0,0.0,0.0,0.0,0.0,0.0,0.0,0.0,0.0,0.0,0.0,0.0,0.0,0.0,0.0,0.0,0.0,0.0,0.0,0.0,0.0,0.0,0.0,0.0,0.0,0.0,0.0,0.0,0.0,0.0,0.0,0.0,0.0,0.0,0.0,0.0,0.0,0.0,0.0,0.0,0.0,0.0,0.0,0.0,0.0,0.0,0.0,0.0,0.0,0.0,0.0,0.0,0.0,0.0,0.0,0.0,0.0,0.0,0.0,0.0,0.0,0.0,0.0,0.0,0.0,0.0,0.0,0.0,0.0,0.0,0.0,0.0,0.0,0.0,0.0,0.0,0.0,0.0,0.0,0.0,0.0,3.5185,3.5635,3.8164,3.7822,3.5521,0.0,0.0,0.0,0.0,0.0,0.0,0.0,0.0,0.0,0.0,0.0,0.0,0.0,0.0,0.0,0.0,0.0,0.0,0.0,0.0,0.0,0.0,0.0,0.0,0.0,0.0,0.0,0.0,0.0,0.0,0.0,0.0,0.0,0.0,0.0,0.0,0.0,0.0,0.0,0.0,0.0,0.0,0.0,0.0,0.0,0.0,0.0,0.0,0.0,0.0,0.0,0.0,0.0,0.0,0.0,0.0,0.0,0.0,0.0,0.0,0.0,0.0,0.0,0.0,0.0,0.0,0.0,0.0,0.0,0.0,0.0,0.0,0.0,0.0,0.0,0.0,0.0,0.0,0.0,0.0,0.0,0.0,0.0,0.0,0.0,0.0,0.0,0.0,0.0,0.0,0.0,0.0,0.0,0.0,0.0,0.0,0.0,0.0,0.0,0.0,0.0,0.0,0.0,0.0,0.0,0.0,0.0,0.0,0.0,3.3333,3.4946,3.7198,3.9958,3.6115,3.3542,0.0,0.0,0.0,0.0,0.0,0.0,0.0,0.0,0.0,0.0,0.0,0.0,0.0,0.0,0.0,0.0,0.0,0.0,0.0,0.0,0.0,0.0,0.0,0.0,0.0,0.0,0.0,0.0,0.0,0.0,0.0,0.0,0.0,0.0,0.0,0.0,0.0,0.0,0.0,0.0,0.0,0.0,0.0,0.0,0.0,0.0,0.0,0.0,0.0,0.0,0.0,0.0,0.0,0.0,0.0,0.0,0.0,0.0,0.0,0.0,0.0,0.0,0.0,0.0,0.0,0.0,0.0,0.0,0.0,0.0,0.0,0.0,0.0,0.0,0.0,0.0,0.0,0.0,0.0,0.0,0.0,0.0,0.0,0.0,0.0,0.0,0.0,0.0,0.0,0.0,0.0,0.0,0.0,0.0,0.0,0.0,0.0,0.0,0.0,0.0,0.0,0.0,0.0,0.0,0.0,0.0,0.0,0.0,0.0,3.2978,0.0,3.8426,0.0,3.5514,3.2736,0.0,0.0,0.0,0.0,0.0,0.0,0.0,0.0,0.0,0.0,0.0,0.0,0.0,0.0,0.0,0.0,0.0,0.0,0.0,0.0,0.0,0.0,0.0,0.0,0.0,0.0,0.0,0.0,0.0,0.0,0.0,0.0,0.0,0.0,0.0,0.0,0.0,0.0,0.0,0.0,0.0,0.0,0.0,0.0,0.0,0.0,0.0,0.0,0.0,0.0,0.0,0.0,0.0,0.0,0.0,0.0,0.0,0.0,0.0,0.0,0.0,0.0,0.0,0.0,0.0,0.0,0.0,0.0,0.0,0.0,0.0,0.0,0.0,0.0,0.0,0.0,0.0,0.0,0.0,0.0,0.0,0.0,0.0,0.0,0.0,0.0,0.0,0.0,0.0,0.0,0.0,0.0,0.0,0.0,0.0,0.0,0.0,0.0,0.0,0.0,0.0,0.0,0.0,0.0,0.0,0.0,0.0,0.0,3.0858,3.5724,3.8491,3.9164,3.7704,3.6472,3.3426,0.0,0.0,0.0,0.0,0.0,0.0,0.0,0.0,0.0,0.0,0.0,0.0,0.0,0.0,0.0,0.0,0.0,0.0,0.0,0.0,0.0,0.0,0.0,0.0,0.0,0.0,0.0,0.0,0.0,0.0,0.0,0.0,0.0,0.0,0.0,0.0,0.0,0.0,0.0,0.0,0.0,0.0,0.0,0.0,0.0,0.0,0.0,0.0,0.0,0.0,0.0,0.0,0.0,0.0,0.0,0.0,0.0,0.0,0.0,0.0,0.0,0.0,0.0,0.0,0.0,0.0,0.0,0.0,0.0,0.0,0.0,0.0,0.0,0.0,0.0,0.0,0.0,0.0,0.0,0.0,0.0,0.0,0.0,0.0,0.0,0.0,0.0,0.0,0.0,0.0,0.0,0.0,0.0,0.0,0.0,0.0,0.0,0.0,0.0,0.0,0.0,0.0,0.0,0.0,0.0,0.0,0.0,0.0,0.0,3.4642,3.7141,3.9024,4.0011,3.5745,3.3357,0.0,0.0,0.0,0.0,0.0,0.0,0.0,0.0,0.0,0.0,0.0,0.0,0.0,0.0,0.0,0.0,0.0,0.0,0.0,0.0,0.0,0.0,0.0,0.0,0.0,0.0,0.0,0.0,0.0,0.0,0.0,0.0,0.0,0.0,0.0,0.0,0.0,0.0,0.0,0.0,0.0,0.0,0.0,0.0,0.0,0.0,0.0,0.0,0.0,0.0,0.0,0.0,0.0,0.0,0.0,0.0,0.0,0.0,0.0,0.0,0.0,0.0,0.0,0.0,0.0,0.0,0.0,0.0,0.0,0.0,0.0,0.0,0.0,0.0,0.0,0.0,0.0,0.0,0.0,0.0,0.0,0.0,0.0,0.0,0.0,0.0,0.0,0.0,0.0,0.0,0.0,0.0,0.0,0.0,0.0,0.0,0.0,0.0,0.0,0.0,0.0,0.0,0.0,0.0,0.0,0.0,0.0,0.0,0.0,3.697,3.9482,4.1169,4.1789,3.7305,3.4741,3.4335,0.0,0.0,0.0,0.0,0.0,0.0,0.0,0.0,0.0,0.0,0.0,0.0,0.0,0.0,0.0,0.0,0.0,0.0,0.0,0.0,0.0,0.0,0.0,0.0,0.0,0.0,0.0,0.0,0.0,0.0,0.0,0.0,0.0,0.0,0.0,0.0,0.0,0.0,0.0,0.0,0.0,0.0,0.0,0.0,0.0,0.0,0.0,0.0,0.0,0.0,0.0,0.0,0.0,0.0,0.0,0.0,0.0,0.0,0.0,0.0,0.0,0.0,0.0,0.0,0.0,0.0,0.0,0.0,0.0,0.0,0.0,0.0,0.0,0.0,0.0,0.0,0.0,0.0,0.0,0.0,0.0,0.0,0.0,0.0,0.0,0.0,0.0,0.0,0.0,0.0,0.0,0.0,0.0,0.0,0.0,0.0,0.0,0.0,0.0,0.0,0.0,0.0,0.0,0.0,0.0,0.0,0.0,0.0,4.171,4.4728,4.5192,4.2863,4.0582,3.7277,0.0,0.0,0.0,0.0,0.0,0.0,0.0,0.0,0.0,0.0,0.0,0.0,0.0,0.0,0.0,0.0,0.0,0.0,0.0,0.0,0.0,0.0,0.0,0.0,0.0,0.0,0.0,0.0,0.0,0.0,0.0,0.0,0.0,0.0,0.0,0.0,0.0,0.0,0.0,0.0,0.0,0.0,0.0,0.0,0.0,0.0,0.0,0.0,0.0,0.0,0.0,0.0,0.0,0.0,0.0,0.0,0.0,0.0,0.0,0.0,0.0,0.0,0.0,0.0,0.0,0.0,0.0,0.0,0.0,0.0,0.0,0.0,0.0,0.0,0.0,0.0,0.0,0.0,0.0,0.0,0.0,0.0,0.0,0.0,0.0,0.0,0.0,0.0,0.0,0.0,0.0,0.0,0.0,0.0,0.0,0.0,0.0,0.0,0.0,0.0,0.0,0.0,0.0,0.0,0.0,0.0,0.0,0.0,0.0,4.3348,4.7263,4.8208,4.5837,4.2193,3.9071,0.0,0.0,0.0,0.0,0.0,0.0,0.0,0.0,0.0,0.0,0.0,0.0,0.0,0.0,0.0,0.0,0.0,0.0,0.0,0.0,0.0,0.0,0.0,0.0,0.0,0.0,0.0,0.0,0.0,0.0,0.0,0.0,0.0,0.0,0.0,0.0,0.0,0.0,0.0,0.0,0.0,0.0,0.0,0.0,0.0,0.0,0.0,0.0,0.0,0.0,0.0,0.0,0.0,0.0,0.0,0.0,0.0,0.0,0.0,0.0,0.0,0.0,0.0,0.0,0.0,0.0,0.0,0.0,0.0,0.0,0.0,0.0,0.0,0.0,0.0,0.0,0.0,0.0,0.0,0.0,0.0,0.0,0.0,0.0,0.0,0.0,0.0,0.0,0.0,0.0,0.0,0.0,0.0,0.0,0.0,0.0,0.0,0.0,0.0,0.0,0.0,0.0,0.0,0.0,0.0,0.0,0.0,0.0,4.2796,4.5517,4.9136,5.0186,4.8508,4.5271,4.1823,0.0,0.0,0.0,0.0,0.0,0.0,0.0,0.0,0.0,0.0,0.0,0.0,0.0,0.0,0.0,0.0,0.0,0.0,0.0,0.0,0.0,0.0,0.0,0.0,0.0,0.0,0.0,0.0,0.0,0.0,0.0,0.0,0.0,0.0,0.0,0.0,0.0,0.0,0.0,0.0,0.0,0.0,0.0,0.0,0.0,0.0,0.0,0.0,0.0,0.0,0.0,0.0,0.0,0.0,0.0,0.0,0.0,0.0,0.0,0.0,0.0,0.0,0.0,0.0,0.0,0.0,0.0,0.0,0.0,0.0,0.0,0.0,0.0,0.0,0.0,0.0,0.0,0.0,0.0,0.0,0.0,0.0,0.0,0.0,0.0,0.0,0.0,0.0,0.0,0.0,0.0,0.0,0.0,0.0,0.0,0.0,0.0,0.0,0.0,0.0,0.0,0.0,0.0,0.0,0.0,0.0,0.0,0.0,4.4495,4.7711,5.0336,5.1315,5.0507,4.8596,4.471,0.0,0.0,0.0,0.0,0.0,0.0,0.0,0.0,0.0,0.0,0.0,0.0,0.0,0.0,0.0,0.0,0.0,0.0,0.0,0.0,0.0,0.0,0.0,0.0,0.0,0.0,0.0,0.0,0.0,0.0,0.0,0.0,0.0,0.0,0.0,0.0,0.0,0.0,0.0,0.0,0.0,0.0,0.0,0.0,0.0,0.0,0.0,0.0,0.0,0.0,0.0,0.0,0.0,0.0,0.0,0.0,0.0,0.0,0.0,0.0,0.0,0.0,0.0,0.0,0.0,0.0,0.0,0.0,0.0,0.0,0.0,0.0,0.0,0.0,0.0,0.0,0.0,0.0,0.0,0.0,0.0,0.0,0.0,0.0,0.0,0.0,0.0,0.0,0.0,0.0,0.0,0.0,0.0,0.0,0.0,0.0,0.0,0.0,0.0,0.0,0.0,0.0,0.0,0.0,0.0,0.0,0.0,0.0,4.4905,4.7462,5.0236,5.1315,5.0495,4.8044,4.4522,0.0,0.0,0.0,0.0,0.0,0.0,0.0,0.0,0.0,0.0,0.0,0.0,0.0,0.0,0.0,0.0,0.0,0.0,0.0,0.0,0.0,0.0,0.0,0.0,0.0,0.0,0.0,0.0,0.0,0.0,0.0,0.0,0.0,0.0,0.0,0.0,0.0,0.0,0.0,0.0,0.0,0.0,0.0,0.0,0.0,0.0,0.0,0.0,2.5081,0.0,0.0,0.0,0.0,0.0,0.0,0.0,0.0,0.0,0.0,0.0,0.0,0.0,0.0,0.0,0.0,0.0,0.0,0.0,0.0,0.0,0.0,0.0,0.0,0.0,0.0,0.0,0.0,0.0,0.0,0.0,0.0,0.0,0.0,0.0,0.0,0.0,0.0,0.0,0.0,0.0,0.0,0.0,0.0,0.0,0.0,0.0,0.0,0.0,0.0,0.0,0.0,0.0,0.0,0.0,0.0,0.0,0.0,0.0,4.6159,4.8632,5.0538,5.1305,5.0819,4.8631,4.5369,0.0,0.0,0.0,0.0,0.0,0.0,0.0,0.0,0.0,0.0,0.0,0.0,0.0,0.0,0.0,0.0,0.0,0.0,0.0,0.0,0.0,0.0,0.0,0.0,0.0,0.0,0.0,0.0,0.0,0.0,0.0,0.0,0.0,0.0,0.0,0.0,0.0,0.0,0.0,0.0,0.0,0.0,0.0,0.0,0.0,0.0,0.0,0.0,0.0,0.0,0.0,0.0,0.0,0.0,0.0,0.0,0.0,0.0,0.0,0.0,0.0,0.0,0.0,0.0,0.0,0.0,0.0,0.0,0.0,0.0,0.0,0.0,0.0,0.0,0.0,0.0,0.0,0.0,0.0,0.0,0.0,0.0,0.0,0.0,0.0,0.0,0.0,0.0,0.0,0.0,0.0,0.0,0.0,0.0,0.0,0.0,0.0,0.0,0.0,0.0,0.0,0.0,0.0,0.0,0.0,0.0,0.0,4.4261,4.7264,5.0114,5.0931,5.1311,5.1276,4.946,4.6359,4.2001,0.0,0.0,0.0,0.0,0.0,0.0,0.0,0.0,0.0,0.0,0.0,0.0,0.0,0.0,0.0,0.0,0.0,0.0,0.0,0.0,0.0,0.0,0.0,0.0,0.0,0.0,0.0,0.0,0.0,0.0,0.0,0.0,0.0,0.0,0.0,0.0,0.0,0.0,2.5188,2.7381,0.0,0.0,0.0,0.0,0.0,0.0,0.0,0.0,2.6376,0.0,0.0,0.0,0.0,0.0,0.0,0.0,0.0,0.0,0.0,0.0,0.0,0.0,0.0,0.0,0.0,0.0,0.0,0.0,0.0,0.0,0.0,0.0,0.0,0.0,0.0,0.0,0.0,0.0,0.0,0.0,0.0,0.0,0.0,0.0,0.0,0.0,0.0,0.0,0.0,0.0,0.0,0.0,0.0,0.0,0.0,0.0,0.0,0.0,0.0,0.0,0.0,0.0,0.0,0.0,0.0,4.4249,4.4308,4.6369,5.0637,5.1123,5.1311,5.1241,4.9268,4.6335,4.2491,0.0,0.0,0.0,0.0,0.0,0.0,0.0,0.0,0.0,0.0,0.0,0.0,0.0,0.0,0.0,0.0,0.0,0.0,0.0,0.0,0.0,0.0,0.0,0.0,0.0,0.0,0.0,0.0,0.0,0.0,0.0,0.0,0.0,0.0,0.0,0.0,0.0,0.0,0.0,2.8404,2.9913,0.0,0.0,0.0,0.0,0.0,0.0,0.0,0.0,2.7477,0.0,0.0,0.0,0.0,0.0,0.0,0.0,0.0,0.0,0.0,0.0,0.0,0.0,0.0,0.0,0.0,0.0,0.0,0.0,0.0,0.0,0.0,0.0,0.0,0.0,0.0,0.0,0.0,0.0,0.0,0.0,0.0,0.0,0.0,0.0,0.0,0.0,0.0,0.0,0.0,0.0,0.0,0.0,0.0,0.0,0.0,0.0,0.0,0.0,0.0,0.0,0.0,0.0,0.0,0.0,4.3079,4.5291,4.7831,5.0781,5.1021,5.1088,5.103,4.822,4.5296,0.0,0.0,0.0,0.0,0.0,0.0,0.0,0.0,0.0,0.0,0.0,0.0,0.0,0.0,0.0,0.0,0.0,0.0,0.0,0.0,0.0,0.0,0.0,0.0,0.0,0.0,0.0,0.0,0.0,0.0,0.0,0.0,0.0,0.0,0.0,0.0,0.0,0.0,0.0,0.0,2.8919,3.037,3.1218,0.0,0.0,0.0,0.0,0.0,0.0,2.8001,2.7887,0.0,0.0,0.0,0.0,0.0,0.0,0.0,0.0,0.0,0.0,0.0,0.0,0.0,0.0,0.0,0.0,0.0,0.0,0.0,0.0,0.0,0.0,0.0,0.0,0.0,0.0,0.0,0.0,0.0,0.0,0.0,0.0,0.0,0.0,0.0,0.0,0.0,0.0,0.0,0.0,0.0,0.0,0.0,0.0,0.0,0.0,0.0,0.0,0.0,0.0,0.0,0.0,0.0,0.0,0.0,4.1885,4.5817,4.8872,5.0781,5.0908,5.0908,5.0851,4.7597,4.4598,0.0,0.0,0.0,0.0,0.0,0.0,0.0,0.0,0.0,0.0,0.0,0.0,0.0,0.0,0.0,0.0,0.0,0.0,0.0,0.0,0.0,0.0,0.0,0.0,0.0,0.0,0.0,0.0,0.0,0.0,0.0,0.0,0.0,0.0,0.0,0.0,0.0,0.0,0.0,0.0,0.0,3.1252,3.1875,3.1225,0.0,0.0,0.0,0.0,2.9124,2.9302,0.0,0.0,0.0,0.0,0.0,0.0,0.0,0.0,0.0,0.0,0.0,0.0,0.0,0.0,0.0,0.0,0.0,0.0,0.0,0.0,0.0,0.0,0.0,0.0,0.0,0.0,0.0,0.0,0.0,0.0,0.0,0.0,0.0,0.0,0.0,0.0,0.0,0.0,0.0,0.0,0.0,0.0,0.0,0.0,0.0,0.0,0.0,0.0,0.0,0.0,0.0,0.0,0.0,0.0,0.0,0.0,4.2506,4.4542,4.7257,5.0711,5.0908,5.0908,5.0873,4.8454,4.5528,0.0,0.0,0.0,0.0,0.0,0.0,0.0,0.0,0.0,0.0,0.0,0.0,0.0,0.0,0.0,0.0,0.0,0.0,0.0,0.0,0.0,0.0,0.0,0.0,0.0,0.0,0.0,0.0,0.0,0.0,0.0,0.0,0.0,0.0,0.0,0.0,0.0,0.0,0.0,0.0,0.0,3.3374,3.2257,3.184,3.1813,0.0,0.0,3.1289,3.259,3.3398,0.0,0.0,0.0,0.0,0.0,0.0,0.0,0.0,0.0,0.0,0.0,0.0,0.0,0.0,0.0,0.0,0.0,0.0,0.0,0.0,0.0,0.0,0.0,0.0,0.0,0.0,0.0,0.0,0.0,0.0,0.0,0.0,0.0,0.0,0.0,0.0,0.0,0.0,0.0,0.0,0.0,0.0,0.0,0.0,0.0,0.0,0.0,0.0,0.0,0.0,0.0,0.0,0.0,0.0,0.0,3.8655,4.2716,4.5595,4.8297,5.0768,5.0908,5.0908,5.0873,4.734,4.4296,0.0,0.0,0.0,0.0,0.0,0.0,0.0,0.0,0.0,0.0,0.0,0.0,0.0,0.0,0.0,0.0,0.0,0.0,0.0,0.0,0.0,0.0,0.0,0.0,0.0,0.0,0.0,0.0,0.0,0.0,0.0,0.0,0.0,0.0,0.0,0.0,0.0,0.0,0.0,0.0,0.0,0.0,3.3264,3.3147,0.0,0.0,0.0,3.2384,3.3,0.0,0.0,0.0,0.0,0.0,0.0,0.0,0.0,0.0,0.0,0.0,0.0,0.0,0.0,0.0,0.0,0.0,0.0,0.0,0.0,0.0,0.0,0.0,0.0,0.0,0.0,0.0,0.0,0.0,0.0,0.0,0.0,0.0,0.0,0.0,0.0,0.0,0.0,0.0,0.0,0.0,0.0,0.0,0.0,0.0,0.0,0.0,0.0,0.0,0.0,0.0,0.0,0.0,0.0,0.0,0.0,0.0,4.3079,4.6959,4.9613,5.0851,5.0908,5.0908,5.0838,4.673,0.0,0.0,0.0,0.0,0.0,0.0,0.0,0.0,0.0,0.0,0.0,0.0,0.0,0.0,0.0,0.0,0.0,0.0,0.0,0.0,0.0,0.0,0.0,0.0,0.0,0.0,0.0,2.0029,0.0,0.0,0.0,0.0,0.0,0.0,0.0,0.0,0.0,0.0,0.0,0.0,0.0,0.0,3.3131,3.4409,3.4683,3.4702,0.0,0.0,3.3559,3.3731,3.3904,3.3352,0.0,0.0,0.0,0.0,0.0,0.0,0.0,0.0,0.0,0.0,0.0,0.0,0.0,0.0,0.0,0.0,0.0,0.0,0.0,0.0,0.0,0.0,0.0,0.0,0.0,0.0,0.0,0.0,3.5827,0.0,0.0,0.0,0.0,0.0,0.0,0.0,0.0,0.0,0.0,0.0,0.0,0.0,0.0,0.0,0.0,0.0,0.0,0.0,0.0,0.0,0.0,0.0,0.0,0.0,0.0,4.3898,4.8092,5.048,5.09,5.0908,5.0908,5.0851,4.7771,4.4647,0.0,0.0,0.0,0.0,0.0,0.0,0.0,0.0,0.0,0.0,0.0,0.0,0.0,0.0,0.0,0.0,0.0,0.0,0.0,0.0,0.0,0.0,0.0,0.0,0.0,0.0,0.0,0.0,0.0,0.0,0.0,0.0,0.0,0.0,0.0,0.0,0.0,0.0,0.0,0.0,0.0,3.599,3.5489,3.6402,3.72,0.0,0.0,3.5294,3.5984,3.6674,3.5949,3.2327,0.0,0.0,0.0,0.0,0.0,0.0,0.0,0.0,0.0,0.0,0.0,0.0,0.0,0.0,0.0,0.0,0.0,0.0,0.0,0.0,0.0,0.0,0.0,0.0,0.0,3.6562,0.0,0.0,3.5926,0.0,0.0,0.0,0.0,0.0,0.0,0.0,0.0,0.0,0.0,0.0,0.0,0.0,0.0,0.0,0.0,0.0,0.0,0.0,0.0,0.0,0.0,0.0,0.0,4.1294,4.3898,4.8385,5.0982,5.1554,5.1575,5.1717,5.2076,4.8748,4.5706,0.0,0.0,0.0,0.0,0.0,0.0,0.0,0.0,0.0,0.0,0.0,0.0,0.0,0.0,0.0,0.0,0.0,0.0,0.0,0.0,0.0,0.0,0.0,0.0,0.0,0.0,0.0,0.0,2.5021,2.5818,2.6397,0.0,0.0,0.0,0.0,0.0,0.0,0.0,0.0,0.0,0.0,3.7017,3.746,3.8342,0.0,0.0,3.7955,3.7679,3.7111,3.7674,3.7053,3.3731,3.28,0.0,0.0,0.0,0.0,0.0,0.0,0.0,0.0,0.0,0.0,0.0,0.0,0.0,0.0,0.0,0.0,0.0,0.0,0.0,0.0,0.0,0.0,0.0,0.0,0.0,0.0,0.0,0.0,0.0,0.0,0.0,0.0,0.0,0.0,0.0,0.0,0.0,0.0,0.0,0.0,0.0,0.0,0.0,0.0,0.0,0.0,0.0,0.0,0.0,0.0,0.0,0.0,4.2169,4.4627,4.9434,5.221,5.2821,5.2595,5.2637,5.2935,4.9874,4.7079,0.0,0.0,0.0,0.0,0.0,0.0,0.0,0.0,0.0,0.0,0.0,0.0,0.0,0.0,0.0,0.0,0.0,0.0,0.0,0.0,0.0,0.0,0.0,0.0,0.0,0.0,0.0,0.0,2.7453,2.8027,2.7767,0.0,0.0,0.0,0.0,0.0,0.0,0.0,0.0,0.0,0.0,3.8921,4.007,4.0563,4.0513,3.9733,3.9536,3.9078,3.7942,3.8238,3.764,3.489,0.0,0.0,0.0,0.0,0.0,0.0,0.0,0.0,0.0,0.0,0.0,0.0,0.0,0.0,0.0,0.0,0.0,0.0,0.0,0.0,0.0,0.0,0.0,0.0,0.0,0.0,0.0,4.0315,0.0,0.0,3.6897,0.0,0.0,0.0,0.0,0.0,0.0,0.0,0.0,0.0,0.0,0.0,0.0,0.0,0.0,0.0,0.0,0.0,0.0,0.0,0.0,0.0,0.0,4.5169,4.6385,5.1473,5.4355,5.4701,5.3989,5.3614,5.3566,5.121,4.8839,4.645,0.0,0.0,0.0,0.0,0.0,0.0,0.0,0.0,0.0,0.0,0.0,0.0,0.0,0.0,0.0,0.0,0.0,0.0,0.0,0.0,0.0,0.0,0.0,0.0,0.0,0.0,2.9458,2.9718,2.9452,0.0,0.0,0.0,0.0,0.0,0.0,0.0,0.0,0.0,0.0,3.9932,4.208,4.3294,4.3134,4.2761,4.237,4.0803,3.9329,3.862,3.8596,3.7847,0.0,0.0,0.0,0.0,0.0,0.0,0.0,0.0,0.0,0.0,0.0,0.0,0.0,0.0,0.0,0.0,0.0,0.0,0.0,0.0,0.0,0.0,0.0,0.0,0.0,0.0,0.0,4.785,4.603,0.0,0.0,0.0,0.0,0.0,0.0,0.0,0.0,0.0,0.0,0.0,5.2633,5.4527,0.0,0.0,0.0,0.0,0.0,0.0,0.0,0.0,0.0,0.0,0.0,0.0,4.5515,4.8109,5.2347,5.488,5.5499,5.5269,5.5316,5.562,5.3024,4.9742,4.5801,0.0,0.0,0.0,0.0,0.0,0.0,0.0,0.0,0.0,0.0,0.0,0.0,0.0,0.0,0.0,0.0,0.0,0.0,0.0,0.0,0.0,0.0,0.0,0.0,0.0,3.0604,0.0,0.0,0.0,0.0,0.0,0.0,0.0,0.0,0.0,0.0,0.0,3.861,4.088,4.2861,4.4337,4.4982,4.5381,4.5524,0.0,0.0,0.0,0.0,0.0,0.0,0.0,0.0,0.0,0.0,0.0,0.0,0.0,0.0,3.7409,3.2361,3.1016,3.08,3.1317,0.0,0.0,0.0,0.0,0.0,0.0,0.0,0.0,0.0,0.0,0.0,0.0,0.0,0.0,5.3831,0.0,5.1156,0.0,0.0,0.0,0.0,0.0,0.0,0.0,0.0,5.6125,5.761,5.7647,5.9505,5.9133,0.0,5.6543,5.32,0.0,0.0,0.0,0.0,0.0,0.0,0.0,0.0,4.7475,5.0194,5.3811,5.6068,5.6811,5.658,5.6619,5.6934,5.4293,5.1025,4.712,4.489,4.2558,0.0,0.0,0.0,0.0,0.0,0.0,0.0,0.0,0.0,0.0,0.0,0.0,0.0,0.0,0.0,0.0,0.0,0.0,0.0,0.0,0.0,0.0,0.0,3.2907,0.0,0.0,0.0,0.0,0.0,0.0,0.0,0.0,0.0,3.8826,4.0274,4.2303,4.4703,4.5878,4.6736,4.7237,0.0,0.0,0.0,0.0,0.0,0.0,0.0,4.3484,4.2553,4.123,4.0816,4.2206,4.2606,4.2678,4.2506,0.0,0.0,3.6777,3.5535,3.5501,3.5973,3.626,3.6615,3.7088,3.7221,3.7317,0.0,0.0,0.0,0.0,0.0,0.0,0.0,0.0,5.9876,5.9096,0.0,5.7323,0.0,0.0,0.0,0.0,0.0,5.5391,0.0,0.0,6.2588,6.4073,6.2736,6.3479,6.3405,6.2699,6.3305,6.151,5.7387,5.0488,0.0,0.0,0.0,0.0,0.0,0.0,5.0999,5.2735,5.5845,5.787,5.8603,5.7934,5.7536,5.7462,5.5149,5.2772,5.0404,4.9058,4.6607,4.2697,4.0589,0.0,0.0,0.0,0.0,0.0,0.0,0.0,0.0,0.0,0.0,0.0,0.0,0.0,0.0,0.0,0.0,0.0,0.0,0.0,0.0,3.4451,0.0,0.0,0.0,0.0,0.0,0.0,0.0,0.0,0.0,0.0,4.2429,4.3995,4.6323,4.863,0.0,0.0,0.0,0.0,4.9401,4.9401,4.9111,4.8606,4.7805,4.7783,4.6931,4.4245,0.0,0.0,4.5611,4.6,4.6142,4.5615,4.5524,4.5057,4.3555,4.2334,4.1814,4.178,4.1205,4.0952,4.0929,4.0792,4.092,7.2332,0.0,0.0,0.0,0.0,6.5411,6.6982,6.9781,6.8122,6.6451,6.4779,6.3739,0.0,0.0,0.0,0.0,0.0,0.0,6.1919,6.3628,6.5671,6.6933,6.7639,6.8419,6.837,6.7602,6.6673,6.5039,6.2625,5.8846,5.3905,4.7961,0.0,0.0,0.0,0.0,5.2419,5.5131,5.6729,5.787,5.8687,5.8465,5.8093,5.7499,5.6246,5.4686,5.2828,5.1334,4.9472,4.71,4.4247,0.0,0.0,0.0,0.0,0.0,0.0,0.0,0.0,0.0,0.0,0.0,0.0,0.0,0.0,0.0,0.0,0.0,0.0,0.0,3.5006,3.5168,3.5666,0.0,0.0,0.0,0.0,0.0,0.0,0.0,0.0,0.0,4.7735,4.8289,4.9195,0.0,0.0,5.0923,5.1731,5.1688,5.1571,5.1607,0.0,0.0,0.0,4.8965,4.8516,4.886,4.9983,5.0345,4.9109,4.9109,4.9041,4.8301,4.7869,4.746,4.6958,4.5133,4.3577,4.2965,4.2654,4.2551,4.2563,4.2541,4.2624,8.0498,7.491,7.2285,7.1663,7.2295,7.1515,7.2778,7.5243,7.3558,7.2208,7.1106,6.9992,6.728,6.3479,6.2216,0.0,0.0,0.0,6.5782,6.7491,6.8345,6.9236,7.0165,7.0685,7.0648,7.0152,6.9199,6.7899,6.6228,6.4482,6.0444,5.4379,0.0,0.0,5.2336,5.3636,5.5429,5.7658,5.8539,5.9022,5.917,5.8884,5.8167,5.7053,5.658,5.5503,5.3868,5.2856,5.1602,4.9968,4.7359,4.4657,0.0,0.0,0.0,0.0,0.0,0.0,0.0,0.0,0.0,0.0,0.0,3.4294,3.1548,0.0,0.0,0.0,3.5195,3.7197,3.8884,3.9483,0.0,0.0,0.0,0.0,0.0,0.0,0.0,4.8315,5.0343,5.1647,5.155,5.2057,5.2383,5.2274,5.1973,5.1937,5.2444,0.0,5.248,5.248,5.2474,5.2281,5.185,5.113,5.08,5.1266,5.219,5.2325,5.1012,5.095,5.094,5.0365,4.9939,4.9642,4.9324,4.7849,4.6336,4.523,4.4988,4.4988,4.4988,4.4988,4.4945,8.7786,8.5228,8.0226,7.8326,7.8601,7.7916,7.7977,7.8453,7.6932,7.6659,7.7175,7.5689,7.367,7.1205,6.8246,0.0,6.6834,6.8308,6.9348,7.0016,7.0759,7.1094,7.1094,7.1131,7.1094,7.1094,7.1056,7.0239,6.8791,6.7899,6.5931,6.2848,5.9802,5.8141,5.7833,5.8502,5.9282,6.0099,6.0815,6.0768,5.9913,5.917,5.8019,5.6469,5.6357,5.554,5.397,5.3831,5.3116,5.1639,4.993,4.7256,4.3466,0.0,0.0,0.0,0.0,0.0,0.0,0.0,0.0,0.0,0.0,0.0,0.0,0.0,0.0,3.8028,4.0463,0.0,4.4158,4.5801,0.0,0.0,0.0,4.7912,4.9332,5.0822,5.1729,5.1767,0.0,0.0,5.4074,0.0,5.539,5.3965,5.3132,5.2661,5.26,5.2625,5.2552,5.2516,5.3096,5.3555,5.3302,5.3363,5.3135,5.2376,5.265,5.2815,5.1924,5.2041,5.2186,5.1908,5.1796,5.1592,5.0866,5.0698,5.0161,4.8452,4.7852,4.7665,4.7493,4.7445,4.7279,9.0701,8.939,8.7487,8.4912,8.2055,8.1997,8.1645,8.106,8.0405,7.9717,7.8885,7.8499,7.7324,7.5527,7.4128,7.3162,7.2605,7.2964,7.2889,7.2518,7.2717,7.2828,7.2815,7.2828,7.2815,7.2754,7.2196,7.1663,7.1267,6.9831,6.8419,6.7045,6.5633,6.3416,6.0444,6.0508,6.099,6.1808,6.1399,6.0768,5.995,5.9728,5.8836,5.7249,5.6617,5.58,5.475,5.4119,5.3645,5.319,5.1036,4.9104,4.7507,4.2619,0.0,0.0,0.0,0.0,0.0,0.0,0.0,0.0,0.0,4.1453,3.6623,0.0,4.2992,0.0,4.419,4.5985,4.6632,4.7243,0.0,0.0,5.06,5.1366,5.4425,5.511,5.5433,5.5776,5.6476,5.6549,5.5558,5.5269,5.5051,5.4641,5.446,5.411,5.353,5.3422,5.3204,5.2709,5.2733,5.277,5.2915,5.3313,5.3821,5.4098,5.4376,5.4206,5.3387,5.3524,5.3695,5.3593,5.3325,5.3291,5.3616,5.3419,5.285,5.187,4.9996,4.8194,4.7796,4.772,4.7665,9.2946,9.1742,9.1297,8.9375,8.6551,8.5583,8.4817,8.4221,8.3109,8.2202,8.1445,8.0461,7.9145,7.7621,7.7138,7.6246,7.5169,7.5132,7.4872,7.4463,7.4463,7.4463,7.4463,7.4091,7.3943,7.3906,7.3125,7.2568,7.2159,7.1255,7.04,6.9571,6.9125,6.7602,6.5039,6.3925,6.359,6.4036,6.2885,6.1882,6.1028,6.0285,5.9133,5.7546,5.6729,5.5726,5.4527,5.4044,5.3645,5.3227,5.1639,5.0144,4.8927,4.5212,4.2768,0.0,0.0,0.0,0.0,0.0,0.0,0.0,0.0,0.0,0.0,0.0,4.6979,4.6278,4.8335,5.0144,5.136,5.2322,5.3823,5.598,5.5812,5.6356,5.8281,5.8317,5.8299,5.8518,5.8076,5.7587,5.7128,5.6428,5.5776,5.545,5.5377,5.5088,5.4436,5.4243,5.4074,5.3639,5.3566,5.3566,5.3566,5.4218,5.4762,5.4907,5.5221,5.5208,5.4468,5.4428,5.4602,5.4692,5.4542,5.4548,5.5032,5.4929,5.4518,5.3813,5.2539,5.0896,4.9507,4.9153,4.8965,9.503,9.3364,9.3326,9.2525,9.1069,8.8839,8.7668,8.7225,8.5336,8.4367,8.4011,8.1955,8.0185,7.8773,7.8662,7.7696,7.6135,7.6135,7.601,7.5801,7.5801,7.5801,7.5763,7.5095,7.4686,7.4574,7.3906,7.3125,7.2345,7.2345,7.1923,7.1094,7.1056,7.0685,6.9794,6.7751,6.6537,6.6091,6.4631,6.3479,6.2562,6.1139,5.9505,5.7732,5.6878,5.5679,5.4054,5.3933,5.3645,5.294,5.2271,5.1156,4.9596,4.7924,4.629,0.0,4.3875,0.0,0.0,0.0,0.0,0.0,0.0,0.0,0.0,5.0239,5.133,5.1118,5.2897,5.4874,5.673,5.8481,5.9938,6.0986,6.1129,6.1154,6.1118,6.0843,6.0701,6.086,5.983,5.909,5.9139,5.829,5.7382,5.6717,5.6464,5.6102,5.5329,5.5015,5.4834,5.4907,5.4907,5.4677,5.4798,5.5341,5.5522,5.5075,5.5341,5.5631,5.5039,5.4977,5.5096,5.5402,5.5485,5.5615,5.5834,5.5908,5.5713,5.5221,5.4931,5.4031,5.1941,5.115,5.069,9.7837,9.5675,9.5637,9.4715,9.3074,9.1999,9.0242,8.8144,8.7454,8.635,8.4861,8.3395,8.2192,8.1263,8.0557,7.9368,7.7844,7.7844,7.7101,7.5801,7.5801,7.5801,7.5801,7.5652,7.5243,7.4612,7.4463,7.3943,7.3162,7.3162,7.2754,7.1973,7.1973,7.1515,7.0685,0.0,0.0,0.0,6.5782,6.4891,6.3442,6.307,6.1473,5.8576,5.7685,0.0,5.4899,5.475,5.4713,5.4564,5.4379,0.0,0.0,0.0,0.0,0.0,0.0,0.0,0.0,0.0,0.0,0.0,5.4101,5.3516,5.1955,5.5126,5.7009,5.6471,5.8479,5.9769,5.9495,6.0441,6.1161,6.1361,6.1425,6.1826,6.2799,6.292,6.3299,6.4426,6.3501,6.2756,6.2498,6.1253,5.9796,5.8927,5.8347,5.7659,5.6862,5.5776,5.4979,5.4907,5.5015,5.4943,5.4907,5.5088,5.5305,5.4931,5.4979,5.51,5.5051,5.5027,5.5304,5.5908,5.6113,5.6486,5.72,5.7369,5.7143,5.6768,5.6514,5.5668,5.328,5.2727,5.2439,9.9442,0.0,9.7057,9.6172,0.0,9.4095,9.2459,9.0346,8.9085,8.7416,8.5487,8.4601,8.3504,8.2318,8.1652,8.0668,7.9479,7.9479,7.881,7.7658,7.7608,7.7422,7.7027,7.6618,7.6246,7.5801,7.4983,7.4389,7.398,7.3608,7.32,7.2791,7.2791,7.2382,7.1552,7.1131,6.9719,6.7305,6.6896,6.6079,6.4891,6.4408,6.3033,6.0619,0.0,0.0,0.0,0.0,0.0,0.0,0.0,0.0,0.0,0.0,0.0,5.372,5.3348,5.3302,5.372,5.4527,5.5679,5.7276,5.8576,5.8427,5.6347,5.8182,5.9423,5.9512,6.1017,6.197,6.1906,6.2668,6.3382,6.3755,6.3819,6.4133,6.4748,6.4739,6.4923,6.5385,6.4495,6.3719,6.3683,6.238,6.11,6.0339,5.9855,5.9289,5.842,5.7043,5.6029,5.6066,5.6029,5.6029,5.6017,5.6029,5.6029,5.6029,5.6029,5.6029,5.6029,5.6042,5.6249,5.6685,5.6855,5.7122,5.7533,5.7727,5.7619,5.7389,5.7314,5.683,5.5231,5.4202,5.3329,10.0673,9.8981,9.825,9.7403,9.6442,9.5605,9.4181,9.2376,0.0,0.0,0.0,8.5675,8.4475,8.2907,8.2426,8.1746,8.0965,8.0928,8.0468,7.9739,7.9739,7.9293,7.8476,7.7844,7.7361,7.7027,7.554,7.4797,7.476,7.3868,7.3497,7.3571,7.346,7.3051,7.2419,7.1552,7.0462,6.9162,6.8196,6.7268,6.6339,6.5596,6.4408,6.2662,6.1139,5.9579,5.7982,5.7276,5.6942,5.6915,5.6385,5.6645,5.7796,5.7286,5.7462,5.8576,5.8836,5.8985,5.9133,5.9393,5.9988,6.0916,6.2253,6.2328,6.0693,6.0693,6.1139,6.1993,6.2702,6.3394,6.3973,6.4722,6.546,6.613,6.6204,6.625,6.6489,6.6321,6.6182,6.6159,6.5359,6.4446,6.4558,6.365,6.2495,6.1742,6.1501,6.0913,5.9918,5.8565,5.7623,5.7623,5.7623,5.7623,5.7623,5.7623,5.7587,5.7369,5.7369,5.7382,5.7224,5.7188,5.7239,5.7253,5.7351,5.7412,5.7522,5.7559,5.7559,5.7583,5.7667,5.7619,5.7043,5.5636,5.434,10.2106,9.9913,9.9798,9.8827,9.725,9.648,9.4749,9.2414,9.0864,8.9235,8.7565,8.6644,8.5325,8.3695,8.3232,8.26,8.1857,8.182,8.1374,0.0,8.0505,8.0111,7.9368,7.9219,7.8439,7.7101,7.6098,7.5652,7.5466,7.4128,7.372,7.424,7.3757,7.3348,7.3162,7.2419,7.1899,7.1676,7.014,6.8642,6.7156,6.7008,6.5831,6.3553,6.255,6.125,5.9653,5.9467,5.9393,5.943,5.9998,6.0099,5.9579,5.9467,5.9207,5.8762,5.9356,6.0062,6.0805,6.2142,6.359,6.5039,6.5448,6.4853,6.3293,6.3739,6.4482,6.5311,6.5434,6.562,6.5756,6.588,6.6052,6.6151,6.6114,6.6421,6.7256,6.7284,6.7496,6.8174,6.8011,6.753,6.7259,6.6454,6.5359,6.4506,6.3599,6.2738,6.1161,5.9855,5.9325,5.9253,5.9289,5.9253,5.9095,5.924,5.8891,5.8311,5.8202,5.7949,5.7406,5.7224,5.7237,5.7213,5.7239,5.7276,5.74,5.7425,5.7461,5.7534,5.7595,5.7559,5.7437,5.6713,5.6129,10.3328,10.1481,10.0943,10.0058,9.8788,9.7057,9.5403,9.374,9.2219,9.0561,8.8903,8.7482,8.6153,8.4908,8.3737,8.3009,8.2637,8.2637,8.2192,8.1448,8.1411,8.0965,8.0148,7.9702,7.9108,7.8364,7.7101,7.6246,7.5713,7.4612,7.4017,7.3943,7.3571,7.3385,7.3385,7.3051,7.2642,7.2159,7.0549,6.9348,6.8642,6.8159,6.7193,6.5633,6.4816,6.3813,6.2588,6.2142,6.1919,6.1919,6.1845,6.2068,6.2513,6.2142,6.2142,6.2662,6.307,6.3442,6.3813,6.4519,6.5299,6.6042,6.6091,6.5968,6.5633,6.5522,6.5671,6.6091,6.6488,6.676,6.6748,6.7119,6.7416,6.7428,6.7379,6.7589,6.7934,6.8032,6.823,6.8601,6.8408,6.8037,6.7679,6.7418,6.6747,6.559,6.4964,6.4261,6.3212,6.2381,6.1306,5.9957,5.9602,5.9602,5.9602,5.9602,5.9421,5.9108,5.8673,5.8275,5.784,5.755,5.7261,5.7188,5.7188,5.7213,5.7289,5.7276,5.7313,5.7351,5.7449,5.7474,5.7437,5.7277,5.6987,10.4289,10.2558,10.1866,10.0904,9.9644,9.748,9.598,9.4912,9.3633,9.2095,9.0343,8.8498,8.7069,8.599,8.4486,8.3723,8.3546,8.3418,8.3026,8.2453,8.2324,8.182,8.0965,8.0148,7.9665,7.933,7.7881,7.6767,7.6061,7.5095,7.4203,7.346,7.3385,7.3385,7.3385,7.3385,7.3088,7.2419,7.1032,7.0091,6.9682,6.9088,6.8308,6.7342,6.6711,6.5968,6.5151,6.4482,6.4148,6.4148,6.3553,6.3825,6.4965,6.4519,6.4742,6.5942,6.6091,6.6277,6.6599,6.6648,6.6711,6.6896,6.6748,6.6896,6.7416,6.7008,6.6711,6.6933,6.7528,6.7936,6.8196,6.8679,6.9051,6.9051,6.9013,6.9051,6.9051,6.9051,6.9051,6.9026,6.8877,6.8618,6.8223,6.837,6.816,6.7037,6.6186,6.5742,6.5364,6.4712,6.3238,6.1641,6.0521,6.0231,6.0145,6.0217,6.0109,5.9964,5.9421,5.9035,5.8709,5.813,5.7695,5.7623,5.7514,5.7406,5.7261,5.7201,5.7201,5.7226,5.7289,5.7351,5.7351,5.7425,5.7351,10.4866,10.2751,10.252,10.1096,9.8904,9.7827,9.6519,9.5104,9.4797,9.3826,9.2089,9.0002,8.8145,8.666,8.5903,8.5179,8.4526,8.4065,8.3768,8.3664,8.3292,8.2675,8.1849,8.1017,8.0222,7.9442,7.7919,7.7138,7.6841,7.5355,7.4203,7.3497,7.3385,7.3385,7.3385,7.3385,7.3348,7.3274,7.2419,7.1218,6.9794,6.9645,6.8865,6.7342,6.7268,6.6785,6.6153,6.5893,6.5856,6.5856,6.5794,6.5782,6.5968,6.5905,6.5931,6.6165,6.6165,6.6711,6.8085,6.8271,6.8568,6.9236,6.8642,6.8308,6.8419,6.8345,6.8605,6.9162,6.9422,6.9645,7.045,7.0524,7.0499,7.0462,7.0487,7.0685,7.0561,7.0672,7.0685,7.0672,7.0549,7.0809,7.0509,7.0629,7.0492,6.9269,6.7851,6.6865,6.6592,6.594,6.5386,6.4597,6.3307,6.1942,6.1756,6.1774,6.134,6.0833,6.0616,6.0181,5.9638,5.9348,5.9144,5.8383,5.8275,5.8058,5.7514,5.7188,5.7224,5.7188,5.7213,5.7213,5.7226,5.7326,5.7326,10.5213,10.3405,10.3366,10.1597,9.8942,9.8404,9.7326,9.5788,9.522,9.4604,9.3817,9.1979,9.0052,8.811,8.6631,8.572,8.5356,8.4689,8.4365,8.4353,8.4167,8.3759,8.3077,8.2264,8.1316,8.0199,7.907,7.7993,7.6952,7.5392,7.4203,7.3497,7.3385,7.3385,7.3385,7.3385,7.3385,7.3385,7.3088,7.2345,7.1292,7.0685,7.0078,6.9459,6.8976,6.8828,6.8828,6.8048,6.7751,6.8122,6.7342,6.7045,6.7491,6.7528,6.7751,6.8196,6.8679,6.9236,6.9868,6.9942,7.0054,7.0388,7.0115,6.9905,6.9905,6.9942,7.0276,7.092,7.0314,6.9868,7.0239,7.0611,7.0895,7.0895,7.0895,7.0895,7.0895,7.0895,7.0895,7.0908,7.0958,7.0896,7.0679,7.0765,7.0732,7.0278,6.9369,6.8695,6.7984,6.7182,6.664,6.6199,6.5025,6.3936,6.3212,6.2395,6.1937,6.1534,6.1086,6.0579,6.0398,5.9819,5.9421,5.9131,5.9095,5.8818,5.8094,5.7876,5.7804,5.7514,5.7188,5.7188,5.7188,5.7239,5.7301,10.5405,10.3943,10.3405,10.1635,9.9221,9.9135,9.8173,9.6673,9.5942,9.5451,9.4874,9.345,9.1844,8.9984,8.7898,8.6796,8.6252,8.5589,8.5104,8.4892,8.478,8.4474,8.4042,8.3148,8.2112,8.0949,7.9921,7.8662,7.7064,7.5392,7.4277,7.3794,7.3497,7.3385,7.3385,7.3385,7.3385,7.3385,7.3385,7.3088,7.2531,7.1923,7.1354,7.0908,7.0351,7.0301,7.0821,6.9794,6.9422,6.9967,6.8902,6.8531,6.9125,6.9162,6.9422,6.9979,7.0561,7.1019,7.1205,7.1019,7.1019,7.1205,7.1056,7.0895,7.0895,7.0895,7.1168,7.1589,7.0958,7.0499,7.0759,7.1242,7.1539,7.1576,7.1576,7.1576,7.1614,7.1576,7.1651,7.1576,7.1776,7.1541,7.1237,7.1283,7.1295,7.1246,7.0758,7.0263,6.9266,6.8438,6.7798,6.7453,6.6677,6.5497,6.4251,6.3372,6.2646,6.2072,6.1663,6.1369,6.1176,6.0543,6.0036,6.0109,6.0,5.9638,5.8963,5.8709,5.8456,5.7768,5.7442,5.7297,5.7188,5.7201,5.7346,10.5405,10.3751,10.2097,10.0904,10.0029,9.999,9.9019,9.7365,9.7326,9.648,9.5066,9.4057,9.3163,9.2165,9.0411,8.8833,8.7405,8.6805,8.6179,8.549,8.498,8.4723,8.4578,8.3326,8.2295,8.1513,8.0334,7.881,7.7138,7.5503,7.4574,7.4537,7.3906,7.346,7.3534,7.3571,7.3423,7.3497,7.3497,7.3385,7.3311,7.3274,7.2444,7.1205,7.0858,7.0908,7.0945,7.0834,7.0834,7.0871,7.0685,7.0685,7.0759,7.0759,7.0796,7.0908,7.0945,7.1316,7.1936,7.1478,7.1354,7.1899,7.1515,7.097,7.1131,7.1131,7.1205,7.1056,7.1738,7.2271,7.2828,7.2902,7.3051,7.3088,7.32,7.3162,7.32,7.3014,7.3274,7.3175,7.3154,7.3206,7.3549,7.3215,7.2721,7.2357,7.1456,7.0458,7.021,6.9551,6.9105,6.8765,6.7927,6.6633,6.4879,6.4242,6.3725,6.3008,6.2556,6.23,6.2122,6.1811,6.1376,6.1014,6.0833,6.0435,5.9819,5.9398,5.9072,5.8528,5.7876,5.7623,5.755,5.7333,5.7478,10.5443,10.3674,10.1481,10.0327,10.0067,9.9529,9.8596,9.7557,9.7519,9.6903,9.5826,9.4912,9.4066,9.321,9.2095,9.0633,8.8962,8.7725,8.7249,8.7307,8.6211,8.582,8.6049,8.4713,8.3488,8.2547,8.1549,7.9962,7.7956,7.6729,7.5912,7.5429,7.5081,7.4946,7.4946,7.4946,7.4686,7.4203,7.4166,7.3906,7.3423,7.3385,7.3088,7.2518,7.1998,7.1961,7.2481,7.1502,7.1391,7.2444,7.1502,7.1131,7.1663,7.1738,7.1961,7.2444,7.2481,7.2642,7.2865,7.2666,7.2605,7.2902,7.2717,7.2444,7.2518,7.2481,7.2481,7.2555,7.2754,7.3162,7.3274,7.3385,7.3385,7.3385,7.3423,7.346,7.3385,7.3385,7.3385,7.3411,7.3602,7.3778,7.3888,7.3757,7.351,7.2958,7.2357,7.1569,7.0705,7.0179,6.9793,6.9294,6.8831,6.8148,6.7023,6.5737,6.4808,6.3894,6.326,6.2785,6.2449,6.2105,6.1593,6.1557,6.1448,6.1195,6.0543,5.9855,5.9566,5.9325,5.8673,5.8239,5.8058,5.813,5.8275,10.502,10.3328,10.1635,10.0568,10.0029,9.949,9.8711,9.798,9.7904,9.7326,9.6326,9.5672,9.4797,9.3749,9.3133,9.2133,9.0624,8.9017,8.8402,8.8564,8.7209,8.6671,8.666,8.5436,8.4117,8.2949,8.1743,8.0307,7.8946,7.768,7.6804,7.6246,7.5986,7.5801,7.5801,7.5801,7.5392,7.476,7.4574,7.4203,7.3497,7.3385,7.3385,7.3311,7.2865,7.2828,7.3385,7.2295,7.2184,7.3051,7.2295,7.1998,7.2494,7.2568,7.2828,7.3311,7.3385,7.3385,7.3385,7.3385,7.3385,7.3385,7.3385,7.3385,7.3385,7.3385,7.3497,7.3683,7.3794,7.3831,7.4128,7.4203,7.4091,7.3906,7.4017,7.4166,7.4166,7.4203,7.4203,7.4266,7.4198,7.4188,7.4113,7.3884,7.3452,7.2909,7.2545,7.1606,7.078,7.0217,7.0104,6.968,6.9332,6.9122,6.858,6.7718,6.6314,6.5274,6.4154,6.3544,6.2924,6.2495,6.2141,6.2091,6.1883,6.1666,6.1195,6.0507,6.0145,6.0,5.9542,5.9035,5.9035,5.918,5.9289,10.4174,10.2789,10.2558,10.1404,10.0144,9.9798,9.9452,9.875,9.8711,9.7788,9.6403,9.6288,9.5326,9.3941,9.371,9.321,9.221,9.0663,8.9556,8.891,8.7863,8.7231,8.6902,8.5589,8.4233,8.2909,8.0715,7.9959,8.0042,7.8315,7.725,7.699,7.6395,7.6135,7.5912,7.6024,7.5578,7.4983,7.4797,7.4314,7.3534,7.3423,7.3385,7.3385,7.3311,7.3311,7.3385,7.3311,7.3237,7.3348,7.3311,7.3348,7.3274,7.3311,7.3385,7.3385,7.3385,7.3385,7.3385,7.3385,7.3423,7.3534,7.346,7.3571,7.372,7.3683,7.3906,7.4463,7.4649,7.4872,7.5466,7.5652,7.5392,7.4834,7.5132,7.5503,7.5615,7.5726,7.5763,7.5554,7.5077,7.4858,7.4636,7.3887,7.3119,7.2875,7.2046,7.1193,7.0968,7.0442,6.9943,7.0142,7.0093,6.9868,6.9879,6.9659,6.8137,6.6705,6.5504,6.4574,6.3938,6.3434,6.2843,6.2667,6.2091,6.186,6.1774,6.1123,6.0942,6.0724,6.0217,5.9868,5.9832,5.9941,6.0145,10.4482,10.3289,10.1568,10.0606,9.9952,9.8827,9.8442,9.8788,9.8788,9.7865,9.6634,9.6903,9.5865,9.4249,9.4296,9.4143,9.3249,9.2172,9.1248,9.0287,8.894,8.8276,8.7987,8.6743,8.5388,8.4022,8.2471,8.1464,8.0854,7.9522,7.8513,7.7956,7.7658,7.7547,7.7435,7.751,7.7138,7.6358,7.5726,7.502,7.424,7.3683,7.3423,7.3385,7.3385,7.3385,7.3385,7.3385,7.3385,7.3385,7.3385,7.3385,7.3423,7.3385,7.3385,7.3385,7.3385,7.3385,7.3423,7.346,7.372,7.4091,7.424,7.4537,7.4983,7.502,7.5132,7.5429,7.5429,7.5564,7.5838,7.6395,7.6321,7.554,7.5639,7.5912,7.5949,7.5912,7.5801,7.574,7.52,7.4894,7.4747,7.4001,7.3559,7.3518,7.3051,7.2658,7.2132,7.1644,7.152,7.1407,7.1032,7.0657,7.0668,7.0442,6.9442,6.8055,6.6849,6.575,6.5041,6.4319,6.3769,6.3152,6.259,6.2164,6.2041,6.1811,6.1557,6.1557,6.1267,6.0942,6.0616,6.0652,6.0905,10.5366,10.4135,10.1953,10.0644,9.9952,9.8211,9.7788,9.8327,9.8673,9.7865,9.6749,9.7519,9.6365,9.4326,9.4604,9.4296,9.3287,9.271,9.221,9.1479,8.994,8.9044,8.8464,8.6778,8.5723,8.4816,8.3425,8.2548,8.2133,8.0688,7.9553,7.8885,7.8736,7.855,7.8364,7.829,7.7919,7.7138,7.6544,7.5875,7.5132,7.4537,7.4277,7.4314,7.4277,7.4314,7.4314,7.4277,7.4017,7.3608,7.3683,7.3831,7.3868,7.4128,7.4277,7.4277,7.4314,7.4314,7.4314,7.4389,7.4463,7.4946,7.5057,7.5206,7.5689,7.5801,7.5875,7.6246,7.6284,7.6395,7.6767,7.7175,7.725,7.6804,7.6804,7.6729,7.6729,7.6729,7.6767,7.6706,7.6165,7.5636,7.5205,7.4412,7.3836,7.3634,7.3365,7.3183,7.2583,7.2384,7.2196,7.2046,7.1708,7.1482,7.1456,7.1081,7.0619,6.9424,6.8148,6.7123,6.6283,6.5422,6.4716,6.4021,6.3393,6.2821,6.2621,6.2136,6.1847,6.1992,6.2136,6.1702,6.1304,6.1485,6.163,10.6674,10.4943,10.3366,10.1673,10.0106,9.8365,9.7711,9.7788,9.8327,9.775,9.6865,9.7827,9.6836,9.448,9.4681,9.4258,9.2903,9.2518,9.2479,9.1979,9.0731,8.9417,8.8039,8.6282,8.5481,8.5172,8.38,8.3183,8.3233,8.1702,8.0413,7.9754,7.961,7.9256,7.8773,7.8476,7.8104,7.7584,7.7175,7.6618,7.5912,7.5726,7.5689,7.5652,7.5615,7.5615,7.5578,7.554,7.4983,7.3868,7.4351,7.4649,7.4797,7.5392,7.5652,7.5578,7.5763,7.5652,7.5726,7.554,7.5689,7.5838,7.5875,7.5912,7.6135,7.6321,7.6507,7.7064,7.7175,7.7435,7.7956,7.8179,7.8141,7.8253,7.803,7.803,7.8253,7.8179,7.7993,7.7956,7.7561,7.6844,7.6058,7.4897,7.4014,7.3413,7.297,7.2901,7.2586,7.2811,7.2496,7.2432,7.2534,7.2308,7.2245,7.1982,7.1494,7.0612,6.9492,6.8656,6.7554,6.6578,6.5679,6.4964,6.426,6.3675,6.3178,6.2838,6.2621,6.2693,6.2571,6.2209,6.21,6.2173,6.2028,10.6674,10.502,10.3982,10.2558,10.0866,9.9173,9.8442,9.8365,9.798,9.7326,9.6711,9.7403,9.6711,9.4835,9.4874,9.472,9.3989,9.2979,9.2518,9.2326,9.1402,8.9983,8.8578,8.7319,8.6409,8.589,8.5123,8.4456,8.3925,8.2861,8.1823,8.0999,8.0628,8.032,8.0022,7.9442,7.9145,7.8699,7.7621,7.7027,7.6729,7.6172,7.5801,7.5801,7.5875,7.5875,7.5838,7.5801,7.5689,7.528,7.5355,7.5503,7.5503,7.5763,7.5949,7.5949,7.5912,7.5838,7.5875,7.5875,7.6135,7.6692,7.6729,7.7027,7.7584,7.7621,7.777,7.7993,7.7993,7.803,7.8253,7.829,7.829,7.829,7.8216,7.8253,7.8253,7.829,7.829,7.8216,7.751,7.7054,7.6537,7.601,7.5244,7.5022,7.4823,7.4682,7.4131,7.4052,7.4125,7.3773,7.366,7.3296,7.2996,7.277,7.232,7.1633,7.0875,7.0278,6.905,6.7835,6.6852,6.5949,6.5233,6.4596,6.4257,6.3953,6.3794,6.3479,6.32,6.2911,6.2693,6.2621,6.2281,10.7405,10.602,10.4559,10.2904,10.1164,9.9519,9.8596,9.8211,9.775,9.7288,9.698,9.7288,9.6557,9.5066,9.4989,9.4566,9.3864,9.2941,9.2518,9.2441,9.1979,9.0778,8.9355,8.8363,8.7671,8.7205,8.6681,8.6229,8.5675,8.4728,8.3837,8.3067,8.2156,8.1597,8.1137,8.0074,7.9516,7.9256,7.8253,7.7584,7.7547,7.7138,7.6952,7.6878,7.6841,7.6841,7.6841,7.6878,7.6581,7.6098,7.6098,7.6321,7.6395,7.6692,7.6841,7.6841,7.6841,7.6878,7.6841,7.6841,7.7101,7.7473,7.7584,7.7807,7.8141,7.829,7.829,7.829,7.829,7.829,7.829,7.829,7.8141,7.7844,7.7807,7.7807,7.7807,7.7398,7.7287,7.7213,7.7175,7.6915,7.6655,7.6465,7.6345,7.6063,7.5918,7.5783,7.5608,7.5756,7.559,7.4952,7.4587,7.4235,7.3897,7.3596,7.3071,7.2421,7.2083,7.152,7.0605,6.9274,6.8453,6.7528,6.6489,6.5681,6.544,6.5063,6.4562,6.4235,6.3947,6.375,6.3568,6.32,6.2838,10.8521,10.7521,10.5251,10.3289,10.1673,9.9865,9.8788,9.7904,9.7442,9.7288,9.725,9.7326,9.6519,9.5143,9.5066,9.4258,9.2941,9.271,9.2402,9.2326,9.2172,9.1518,9.0086,8.921,8.8786,8.859,8.8242,8.7915,8.744,8.6812,8.6113,8.5141,8.4078,8.3097,8.2332,8.084,7.9948,7.9799,7.9182,7.8587,7.8476,7.829,7.8179,7.7993,7.7993,7.8141,7.8216,7.8179,7.7621,7.6284,7.6878,7.7175,7.7287,7.7956,7.8179,7.8141,7.803,7.8104,7.8216,7.8067,7.8179,7.8216,7.8216,7.829,7.829,7.829,7.829,7.829,7.829,7.829,7.829,7.8253,7.7956,7.751,7.725,7.699,7.6952,7.6358,7.5801,7.5838,7.6544,7.6469,7.6348,7.6526,7.6965,7.6566,7.6549,7.6589,7.6293,7.6044,7.5807,7.5381,7.5154,7.5098,7.476,7.4498,7.3822,7.3221,7.3071,7.2646,7.2087,7.1038,7.0242,6.9309,6.8111,6.7246,6.6736,6.6237,6.5639,6.5334,6.525,6.4908,6.4545,6.4098,6.3671,10.906,10.7636,10.7136,10.5905,10.4059,10.1789,10.0289,9.9365,9.7365,9.6673,9.6596,9.6596,9.6365,9.598,9.5374,9.4758,9.4143,9.3095,9.2172,9.1595,9.2249,9.1902,9.0902,9.0056,8.9671,8.9483,8.8871,8.8587,8.8403,8.801,8.7281,8.6679,8.6008,8.5064,8.3841,8.2836,8.2043,8.1448,8.0594,7.9799,7.9293,7.9219,7.8959,7.8476,7.8364,7.8662,7.8996,7.8625,7.8439,7.855,7.829,7.8104,7.803,7.8216,7.8327,7.829,7.829,7.829,7.8327,7.8327,7.8327,7.8364,7.8402,7.829,7.829,7.829,7.829,7.829,7.829,7.8402,7.8476,7.777,7.7733,7.7696,7.6952,7.6432,7.6767,7.6321,7.5801,7.5801,7.5912,7.6024,7.5838,7.6483,7.6871,7.6909,7.7013,7.7181,7.6838,7.6305,7.5945,7.5558,7.5144,7.4978,7.4875,7.4587,7.416,7.3747,7.3672,7.3596,7.3025,7.2428,7.1516,7.0592,6.963,6.8877,6.8185,6.7764,6.7253,6.6951,6.6512,6.6093,6.5647,6.5112,6.464,10.9444,10.8252,10.7867,10.6482,10.4366,10.2251,10.0827,9.9712,9.7403,9.6749,9.7173,9.6711,9.6519,9.6788,9.598,9.5441,9.4681,9.3296,9.2249,9.1864,9.1979,9.1825,9.1748,9.1018,9.0517,9.0432,9.0124,8.9902,8.9728,8.9343,8.8956,8.8546,8.7762,8.6585,8.5428,8.4545,8.3284,8.2124,8.156,8.0928,8.0222,8.0036,7.9665,7.9033,7.8885,7.9108,7.9368,7.9108,7.933,7.9739,7.9665,7.9033,7.855,7.8625,7.8699,7.8364,7.829,7.829,7.8327,7.8662,7.8885,7.8847,7.8885,7.8885,7.8736,7.855,7.829,7.8402,7.8662,7.8996,7.933,7.8736,7.8476,7.7993,7.7213,7.6544,7.6395,7.5763,7.5243,7.5243,7.5206,7.5243,7.5503,7.6098,7.6358,7.6287,7.6311,7.6479,7.6455,7.6001,7.5929,7.5558,7.4997,7.4732,7.4729,7.4552,7.4298,7.4073,7.4085,7.4047,7.3761,7.3212,7.2615,7.1727,7.0812,7.0238,6.961,6.9222,6.868,6.8074,6.7566,6.7226,6.6982,6.6766,6.6112,10.9944,10.8867,10.8175,10.6482,10.4212,10.2481,10.1327,10.0221,9.7788,9.7442,9.8096,9.6942,9.6634,9.7019,9.6749,9.598,9.5027,9.3835,9.3018,9.2672,9.221,9.2172,9.2172,9.1748,9.1248,9.124,9.1009,9.1056,9.1121,9.0819,9.0199,9.012,8.9318,8.8001,8.6829,8.5926,8.4833,8.3312,8.271,8.208,8.1263,8.1025,8.0468,7.9851,7.9702,7.9851,7.9999,7.9925,8.0059,8.0817,8.0877,8.0074,7.9293,7.9182,7.9442,7.8773,7.8885,7.8922,7.907,7.9368,7.9702,7.9702,7.9702,7.9702,7.9553,7.9256,7.8996,7.9033,7.9368,7.9888,8.052,7.9776,7.9182,7.8773,7.7993,7.7175,7.6469,7.5639,7.5503,7.4909,7.4909,7.4834,7.4946,7.5318,7.5503,7.5652,7.5726,7.5726,7.5679,7.5647,7.5466,7.5196,7.4586,7.4361,7.4359,7.472,7.4406,7.4167,7.4265,7.4265,7.419,7.3719,7.3133,7.2774,7.2053,7.1441,7.0871,7.0436,6.9798,6.9105,6.8889,6.8827,6.8677,6.8453,6.7765,11.0944,10.8867,10.8752,10.7636,10.5867,10.4174,10.2866,10.1827,9.9365,9.8096,9.7634,9.6749,9.6442,9.6711,9.7173,9.6826,9.6057,9.5057,9.4258,9.3787,9.3364,9.3287,9.2826,9.2479,9.1979,9.1364,9.1201,9.1518,9.1817,9.1514,9.0925,9.0475,9.0158,8.9303,8.8189,8.7458,8.6658,8.5262,8.4488,8.3684,8.2962,8.2169,8.156,8.0817,8.0728,8.0988,8.13,8.0965,8.0877,8.1671,8.1783,8.1226,8.0631,8.0542,8.0505,8.0134,8.0074,7.9999,8.0074,8.0334,8.052,8.052,8.052,8.0505,8.0468,8.032,8.0074,8.0259,8.0334,8.0594,8.0617,8.0208,7.9962,7.9837,7.9539,7.8959,7.8648,7.803,7.7101,7.6321,7.5503,7.4686,7.4909,7.4983,7.4983,7.5132,7.5169,7.502,7.4848,7.4804,7.4746,7.4437,7.4038,7.3938,7.3901,7.4486,7.4623,7.4212,7.4149,7.4224,7.4137,7.3951,7.3576,7.3183,7.2852,7.2304,7.1868,7.1421,7.1038,7.0413,7.0446,7.0475,7.0091,6.9682,6.9686,11.1483,10.956,10.9098,10.8213,10.6828,10.4789,10.3405,10.2289,9.9942,9.8596,9.8019,9.7365,9.7211,9.7596,9.7942,9.7904,9.7442,9.6673,9.6057,9.5634,9.5249,9.4903,9.421,9.3633,9.3287,9.2749,9.2056,9.1441,9.1825,9.1932,9.1401,9.0953,9.081,9.0153,8.9212,8.898,8.8115,8.7072,8.6282,8.561,8.4806,8.3823,8.2987,8.2675,8.2214,8.2437,8.2883,8.2437,8.24,8.3009,8.2823,8.2452,8.2214,8.2214,8.2028,8.1114,8.0817,8.0742,8.0854,8.104,8.1374,8.136,8.136,8.1374,8.1226,8.104,8.1003,8.1263,8.1411,8.156,8.1969,8.1188,8.1077,8.1114,8.0631,8.0208,8.0022,7.9739,7.8996,7.7905,7.6655,7.5763,7.5206,7.5095,7.4723,7.4612,7.4649,7.4426,7.4128,7.4121,7.4137,7.3976,7.374,7.3753,7.3765,7.4089,7.4487,7.4138,7.3989,7.4064,7.4039,7.3803,7.3703,7.3501,7.3198,7.2911,7.2525,7.203,7.1865,7.1687,7.1361,7.113,7.1093,7.0983,7.0968,11.1714,11.0137,10.9252,10.8444,10.7405,10.5366,10.3943,10.2751,10.0904,9.975,9.9173,9.8481,9.8327,9.8673,9.8788,9.8827,9.8913,9.8096,9.7673,9.7442,9.6826,9.648,9.6095,9.5249,9.4518,9.4634,9.3287,9.1787,9.171,9.1864,9.171,9.1311,9.1183,9.0739,8.9945,8.9978,8.9071,8.8439,8.7638,8.734,8.6357,8.5409,8.4711,8.4644,8.4035,8.3997,8.4369,8.4012,8.3975,8.4235,8.4072,8.3715,8.3775,8.4295,8.3715,8.208,8.1583,8.1471,8.1657,8.182,8.2229,8.2229,8.2229,8.2229,8.2154,8.1857,8.1597,8.208,8.2266,8.2415,8.2749,8.2415,8.2117,8.2043,8.1523,8.0965,8.0965,8.0817,8.0617,7.9428,7.7868,7.7213,7.699,7.5875,7.5615,7.4909,7.4909,7.4128,7.3881,7.3747,7.3726,7.3651,7.3565,7.3628,7.3615,7.3666,7.3902,7.3826,7.3715,7.3752,7.374,7.3678,7.3616,7.3603,7.3541,7.3255,7.2882,7.2757,7.2667,7.2467,7.2008,7.1923,7.2185,7.2186,7.2125,11.1714,11.0147,10.9252,10.8444,10.7636,10.6482,10.5559,10.4597,10.3482,10.2404,10.0866,10.0096,9.9413,9.9096,9.8942,9.9327,9.949,9.9173,9.8788,9.8673,9.8019,9.7596,9.7288,9.648,9.598,9.598,9.498,9.3719,9.2787,9.2056,9.1479,9.1317,9.1432,9.1089,9.0951,9.0799,9.0277,8.9844,8.888,8.7764,8.676,8.6336,8.598,8.5656,8.541,8.538,8.5551,8.5335,8.535,8.535,8.5335,8.5261,8.5335,8.5372,8.5409,8.4889,8.4443,8.3975,8.3737,8.344,8.3232,8.3232,8.3195,8.3083,8.3083,8.3009,8.286,8.2972,8.3009,8.3083,8.3121,8.2526,8.2489,8.2489,8.2266,8.1894,8.182,8.182,8.162,8.1323,7.9888,7.9516,7.9293,7.7844,7.6544,7.5763,7.502,7.4389,7.3844,7.3933,7.3513,7.3513,7.3576,7.3639,7.3899,7.3876,7.4012,7.3849,7.3873,7.3823,7.3775,7.3862,7.3624,7.3637,7.3624,7.3825,7.3839,7.3728,7.3591,7.3243,7.2783,7.3044,7.3529,7.3429,7.3206,11.1598,11.0829,10.9483,10.8713,10.8213,10.6982,10.5905,10.5059,10.4251,10.3212,10.202,10.1135,10.0558,10.0212,10.0212,10.0442,10.0635,10.0327,10.0212,10.0135,9.9712,9.9327,9.8865,9.8096,9.7557,9.6942,9.6211,9.548,9.4364,9.3326,9.2479,9.2095,9.2364,9.2364,9.2056,9.1739,9.1289,9.0732,8.9967,8.912,8.8318,8.7802,8.7493,8.7364,8.6961,8.6862,8.6816,8.6449,8.6301,8.6189,8.5929,8.5595,8.5743,8.5966,8.6264,8.6226,8.5966,8.5521,8.509,8.474,8.4518,8.4518,8.4518,8.4592,8.4495,8.4161,8.4109,8.4555,8.3678,8.3492,8.3641,8.3121,8.3009,8.2972,8.3046,8.2823,8.2675,8.2675,8.2563,8.2303,8.2006,8.1523,8.0928,7.9665,7.8476,7.777,7.699,7.6246,7.5429,7.4773,7.4205,7.3474,7.3587,7.3725,7.4084,7.432,7.4767,7.4802,7.4999,7.48,7.4303,7.4142,7.4091,7.4091,7.4192,7.4406,7.467,7.431,7.3788,7.3677,7.3552,7.3888,7.4212,7.4235,7.4022,11.1511,11.1357,10.9867,10.9098,10.8752,10.7328,10.6251,10.5405,10.4866,10.4059,10.3097,10.2135,10.1625,10.151,10.1317,10.1125,10.1241,10.1279,10.1279,10.1279,10.1241,10.0866,10.025,9.9596,9.9096,9.8404,9.7519,9.698,9.648,9.5518,9.4364,9.348,9.3749,9.3672,9.3326,9.3068,9.2704,9.1553,9.0867,9.0235,8.9669,8.9158,8.896,8.8756,8.848,8.8148,8.8153,8.7727,8.7317,8.7007,8.6709,8.6486,8.6524,8.6858,8.7118,8.7118,8.7007,8.6821,8.6264,8.5855,8.5669,8.5595,8.5595,8.5372,8.5409,8.5,8.4815,8.5372,8.4681,8.4347,8.4421,8.4124,8.4087,8.3997,8.3923,8.37,8.3529,8.3529,8.3269,8.2823,8.2675,8.2846,8.2177,8.1248,8.0445,7.9776,7.8996,7.8067,7.6952,7.5801,7.5294,7.4526,7.4428,7.4566,7.4714,7.5073,7.5445,7.5692,7.5888,7.5689,7.5132,7.4909,7.4909,7.4909,7.4909,7.4996,7.5248,7.4614,7.4017,7.4367,7.4616,7.4577,7.4712,7.4834,7.4872,11.1511,11.1406,11.0483,10.9637,10.8867,10.7982,10.7098,10.6328,10.6241,10.5636,10.452,10.3328,10.2597,10.2289,10.1741,10.1394,10.1279,10.1279,10.1279,10.1279,10.1279,10.1164,10.0866,10.0789,10.0789,10.0404,9.9327,9.8673,9.8404,9.7634,9.6749,9.6095,9.5518,9.5066,9.4604,9.4296,9.3489,9.2364,9.1573,9.0896,9.0513,9.0165,8.9968,8.9597,8.9439,8.9275,8.879,8.8584,8.8305,8.7972,8.7755,8.7595,8.7521,8.7691,8.7787,8.7787,8.7802,8.7675,8.7378,8.6561,8.5818,8.5669,8.5743,8.5966,8.6041,8.5743,8.5632,8.5743,8.5335,8.5298,8.5409,8.5409,8.5038,8.4926,8.474,8.4629,8.4443,8.4332,8.4035,8.3403,8.3254,8.3366,8.318,8.2214,8.1746,8.1077,7.9665,7.8736,7.7621,7.6618,7.6432,7.6024,7.5763,7.5702,7.5665,7.5925,7.6111,7.6297,7.6507,7.6246,7.5838,7.5726,7.5726,7.5726,7.5763,7.5787,7.5861,7.5763,7.5652,7.5652,7.5615,7.5392,7.5503,7.5689,7.5763,11.1934,11.1472,11.1137,11.0483,10.9637,10.879,10.7982,10.729,10.7175,10.6367,10.5097,10.4405,10.3558,10.2751,10.2327,10.1779,10.1356,10.1279,10.1317,10.1279,10.1279,10.1019,10.0904,10.0981,10.1019,10.0712,10.025,10.0327,10.025,9.9404,9.9481,9.8788,9.7365,9.6365,9.5826,9.4874,9.3681,9.2903,9.2172,9.1679,9.1018,9.0848,9.0635,9.016,9.0105,8.9804,8.939,8.93,8.8982,8.8696,8.8575,8.8376,8.814,8.8131,8.81,8.81,8.81,8.81,8.81,8.7468,8.7155,8.7155,8.7155,8.7059,8.6895,8.6672,8.6747,8.6635,8.6189,8.5929,8.6264,8.5892,8.5483,8.5595,8.5595,8.5521,8.5335,8.5186,8.4778,8.4146,8.3886,8.3789,8.3477,8.3069,8.2749,8.2303,8.078,7.9354,7.8364,7.7435,7.7213,7.7027,7.6767,7.6655,7.6581,7.6692,7.6767,7.6952,7.7138,7.6915,7.6655,7.6618,7.6618,7.6581,7.6655,7.6804,7.699,7.725,7.7064,7.6469,7.6172,7.5986,7.6209,7.6544,7.6581,11.2599,11.1895,11.1868,11.1214,11.0137,10.9252,10.8444,10.7752,10.7367,10.6713,10.5482,10.5213,10.453,10.352,10.302,10.2751,10.2251,10.1933,10.1741,10.1625,10.1443,10.0981,10.0827,10.0904,10.1096,10.0673,10.0904,10.1202,10.1087,10.0673,10.0635,10.0289,9.9365,9.8057,9.6788,9.5143,9.3796,9.3364,9.2864,9.2441,9.1692,9.1876,9.139,9.0971,9.0903,9.0839,9.0472,9.0309,9.0056,8.9648,8.9272,8.8892,8.8533,8.8186,8.8115,8.81,8.8152,8.8152,8.8152,8.81,8.8084,8.7898,8.7951,8.7988,8.7935,8.7527,8.749,8.775,8.6969,8.6561,8.7155,8.6821,8.6598,8.6747,8.6747,8.6635,8.6189,8.5929,8.5446,8.4889,8.4718,8.4555,8.448,8.4109,8.3306,8.2675,8.1151,8.0074,7.9479,7.8625,7.7919,7.7733,7.751,7.7473,7.7473,7.751,7.7547,7.7621,7.777,7.7733,7.7584,7.7473,7.7435,7.7435,7.7547,7.777,7.7844,7.7807,7.7435,7.6878,7.6804,7.6878,7.7101,7.7435,7.7435,11.3445,11.2714,11.2637,11.1714,11.0252,10.929,10.8559,10.7905,10.701,10.651,10.6174,10.552,10.5097,10.4713,10.4059,10.3674,10.3366,10.2828,10.252,10.2289,10.202,10.151,10.1404,10.1481,10.1673,10.1356,10.1433,10.151,10.1317,10.1327,10.1366,10.1058,10.0135,9.9221,9.8481,9.6259,9.5066,9.4797,9.4095,9.3287,9.2941,9.321,9.2656,9.2389,9.2438,9.2544,9.2036,9.1903,9.1586,9.0925,9.0521,8.9991,8.9344,8.8898,8.8667,8.8457,8.8486,8.8403,8.8252,8.8236,8.8372,8.8168,8.81,8.81,8.81,8.801,8.7898,8.8062,8.7802,8.7824,8.801,8.801,8.7898,8.7824,8.7787,8.7564,8.7118,8.6784,8.6338,8.5781,8.5632,8.5558,8.5521,8.5186,8.4072,8.2972,8.1508,8.0742,8.052,8.0408,7.9888,7.9516,7.9368,7.9145,7.9145,7.8476,7.8327,7.8364,7.8253,7.8141,7.8141,7.7993,7.803,7.8179,7.8141,7.8067,7.8179,7.8253,7.7844,7.751,7.7844,7.7956,7.8179,7.8179,7.803,11.4022,11.2714,11.2714,11.206,11.1098,11.0752,11.0137,10.9175,10.7944,10.6933,10.6433,10.602,10.5597,10.5136,10.4828,10.4443,10.3943,10.3751,10.3328,10.2674,10.2751,10.2597,10.2443,10.252,10.2597,10.2289,10.2135,10.1789,10.1317,10.1827,10.1712,10.1289,10.075,9.9644,9.8682,9.7259,9.648,9.5826,9.5057,9.4412,9.4258,9.4441,9.4518,9.4355,9.4672,9.4474,9.3918,9.3822,9.3343,9.2568,9.2107,9.1621,9.1054,9.0658,9.0381,9.023,9.0295,9.0825,9.0825,9.0709,8.9883,8.8974,8.831,8.8363,8.8137,8.81,8.81,8.8211,8.8307,8.8493,8.8731,8.8827,8.8827,8.8827,8.8716,8.8344,8.7973,8.775,8.7394,8.6747,8.6375,8.6078,8.5929,8.6115,8.5313,8.4815,8.3663,8.266,8.2303,8.2734,8.266,8.2192,8.1857,8.1374,8.0891,7.9925,7.9256,7.9145,7.8736,7.8253,7.829,7.8587,7.8513,7.8573,7.8439,7.8327,7.855,7.8662,7.8402,7.8253,7.8364,7.8327,7.829,7.8253,7.8216,11.4445,11.3176,11.2829,11.2242,11.1522,11.1175,11.056,10.9637,10.8559,10.7636,10.6972,10.6828,10.6405,10.579,10.5482,10.5366,10.4751,10.4405,10.4222,10.352,10.3635,10.3443,10.3328,10.3366,10.3097,10.2943,10.2712,10.2327,10.2404,10.2789,10.2789,10.2251,10.1366,10.0943,9.9981,9.8904,9.7711,9.7173,9.672,9.6259,9.6019,9.5942,9.598,9.6019,9.6095,9.6038,9.5903,9.5712,9.5406,9.4546,9.3993,9.3524,9.3048,9.2414,9.1999,9.1722,9.1748,9.2115,9.2039,9.1989,9.1019,9.0029,8.9377,8.9113,8.898,8.9087,8.9087,8.905,8.8864,8.9161,8.957,8.9719,8.9644,8.9607,8.931,8.8954,8.8716,8.8455,8.827,8.7638,8.723,8.6821,8.6576,8.665,8.6576,8.6301,8.5966,8.4963,8.3923,8.4183,8.4406,8.3938,8.3269,8.2526,8.182,8.1114,8.0482,7.9999,7.9479,7.8922,7.9219,7.9628,7.9293,7.9094,7.9293,7.9368,7.9182,7.9108,7.8959,7.8699,7.8476,7.8439,7.8327,7.8304,7.8318,11.4791,11.3945,11.3099,11.2291,11.1445,11.0752,10.9867,10.9021,10.8983,10.8482,10.7713,10.7636,10.7136,10.6549,10.6395,10.6241,10.6049,10.5443,10.5059,10.4838,10.452,10.4174,10.3828,10.3558,10.3789,10.3635,10.3405,10.3366,10.3789,10.3635,10.3597,10.3558,10.2635,10.2174,10.1327,10.0212,9.9019,9.8596,9.8173,9.7865,9.7634,9.7596,9.7403,9.7288,9.7096,9.7096,9.7057,9.7038,9.7038,9.6549,9.6023,9.5138,9.4184,9.3036,9.2603,9.2428,9.2565,9.2587,9.2851,9.2963,9.2692,9.2115,9.1787,9.125,9.0547,9.0184,9.0078,9.0042,8.9942,9.0239,9.0499,9.0387,9.0276,9.0053,8.9756,8.9496,8.931,8.9124,8.8976,8.8641,8.8344,8.8047,8.7861,8.7861,8.749,8.723,8.6821,8.6115,8.5186,8.4778,8.4926,8.4793,8.4087,8.3306,8.2675,8.2303,8.1448,8.0928,8.0482,8.0074,8.0408,8.0482,8.0111,8.0036,8.0408,8.0408,7.9999,7.9776,7.9628,7.933,7.9182,7.8625,7.855,7.8382,7.8373,11.5291,11.3984,11.3714,11.2829,11.156,11.1252,11.0637,10.9867,10.979,10.9329,10.8521,10.7944,10.7636,10.729,10.6703,10.6472,10.629,10.6097,10.5597,10.5366,10.5328,10.5174,10.502,10.4866,10.4982,10.4751,10.4443,10.4135,10.3982,10.3982,10.4366,10.4482,10.3366,10.2866,10.2212,10.125,10.0404,9.9721,9.925,9.9173,9.9221,9.9135,9.8904,9.875,9.8519,9.8365,9.775,9.7634,9.7403,9.6693,9.6376,9.5809,9.5713,9.5307,9.5141,9.5026,9.473,9.4471,9.495,9.5082,9.4794,9.4357,9.4125,9.2883,9.1875,9.1216,9.1088,9.106,9.0918,9.1019,9.1279,9.1279,9.1093,9.0796,9.0573,9.0387,9.0164,8.9867,8.9719,8.957,8.9273,8.9013,8.8901,8.853,8.8195,8.7973,8.7601,8.7007,8.6412,8.5966,8.5632,8.5536,8.5536,8.4926,8.4235,8.3775,8.2712,8.182,8.156,8.1263,8.1211,8.1174,8.0854,8.0891,8.1248,8.104,8.0594,8.0445,8.0408,8.0371,8.0148,7.9405,7.8787,7.8819,7.8604,11.5226,11.4022,11.3599,11.2714,11.1626,11.1511,11.1175,11.0752,11.0714,11.0214,10.9406,10.8944,10.8329,10.7636,10.7136,10.6741,10.6395,10.6356,10.6097,10.5982,10.6126,10.5944,10.5944,10.579,10.5636,10.5482,10.529,10.4943,10.4751,10.4905,10.5251,10.5405,10.3943,10.3289,10.2751,10.1904,10.1096,10.0558,10.025,10.0212,10.026,10.026,10.0106,10.0029,9.9875,9.8942,9.8211,9.798,9.7673,9.7211,9.7096,9.6788,9.6663,9.65,9.6221,9.6001,9.5761,9.5636,9.5934,9.6069,9.6001,9.5872,9.5682,9.475,9.3618,9.2795,9.2463,9.2127,9.1854,9.1688,9.1985,9.2171,9.1948,9.1688,9.1539,9.1428,9.1056,9.0685,9.0499,9.0387,9.0164,8.9904,8.957,8.9198,8.9013,8.905,8.8827,8.827,8.7601,8.7007,8.6672,8.6449,8.6747,8.6747,8.5966,8.5038,8.431,8.3492,8.3121,8.2771,8.24,8.2363,8.2511,8.2288,8.2028,8.1843,8.1634,8.1337,8.1226,8.1188,8.1031,8.0353,7.9898,7.9893,7.9542,11.4907,11.406,11.3176,11.2445,11.1675,11.1665,11.1549,11.1511,11.1434,11.1021,11.0367,11.0175,10.929,10.8329,10.7752,10.7175,10.679,10.6549,10.6395,10.6356,10.6318,10.6241,10.6059,10.5713,10.5905,10.5944,10.5828,10.5636,10.6136,10.6097,10.5982,10.629,10.4636,10.3751,10.3443,10.2058,10.125,10.1048,10.0971,10.0971,10.0904,10.0635,10.0144,9.999,9.9529,9.8904,9.8788,9.875,9.8788,9.8481,9.8019,9.7442,9.698,9.6673,9.6365,9.6288,9.6134,9.6172,9.6249,9.6288,9.6288,9.6241,9.6269,9.5777,9.4891,9.4124,9.368,9.3241,9.2945,9.2676,9.2837,9.2693,9.2468,9.2245,9.2096,9.2059,9.1873,9.1576,9.1428,9.1242,9.0945,9.0685,9.0499,9.0127,8.9719,8.9979,8.9644,8.9087,8.8716,8.801,8.7638,8.7341,8.7118,8.7155,8.6709,8.5966,8.5855,8.5313,8.4629,8.4406,8.4072,8.4183,8.4406,8.3775,8.3069,8.3032,8.286,8.2415,8.2057,8.2064,8.1795,8.1279,8.1038,8.1047,8.062,11.5753,11.4945,11.406,11.3214,11.2434,11.2434,11.2011,11.1511,11.1511,11.1357,11.1098,11.0521,10.9983,10.9406,10.8213,10.7559,10.7328,10.6636,10.6433,10.6395,10.6395,10.6395,10.6395,10.6097,10.6213,10.6241,10.6213,10.6097,10.6318,10.6395,10.6318,10.6213,10.4828,10.402,10.3905,10.2327,10.1587,10.1471,10.1433,10.1394,10.1202,10.1096,10.0789,10.0327,9.9721,9.9298,9.9106,9.8788,9.8788,9.8634,9.7904,9.725,9.6586,9.6403,9.6288,9.6288,9.6288,9.6288,9.6288,9.6288,9.6288,9.6288,9.6279,9.6232,9.5882,9.5367,9.4831,9.4394,9.402,9.3754,9.3521,9.3248,9.3044,9.2858,9.2693,9.2693,9.2677,9.2496,9.2347,9.2022,9.1688,9.1534,9.1364,9.1056,9.061,9.0164,8.9644,8.9273,8.9347,8.8938,8.8567,8.8121,8.7155,8.6969,8.6821,8.6598,8.6338,8.6115,8.5483,8.5483,8.5632,8.5483,8.5223,8.4629,8.4109,8.3938,8.3618,8.3158,8.2927,8.2828,8.2714,8.2249,8.2328,8.24,8.1856,11.6034,11.5187,11.3945,11.3137,11.2703,11.2319,11.1906,11.1549,11.1511,11.1511,11.1472,11.0983,11.0598,11.0137,10.879,10.7944,10.7636,10.679,10.6472,10.6395,10.6395,10.6395,10.6395,10.6395,10.6356,10.6395,10.6395,10.6356,10.6395,10.6395,10.6318,10.6174,10.5059,10.4328,10.4212,10.3097,10.2174,10.1933,10.1856,10.1664,10.1433,10.1241,10.0866,10.0327,9.999,9.9606,9.9106,9.8788,9.8788,9.8557,9.7942,9.7134,9.6596,9.6326,9.6288,9.6288,9.6288,9.6288,9.6288,9.6288,9.6288,9.6288,9.6288,9.6251,9.6251,9.571,9.5468,9.5001,9.446,9.4174,9.416,9.3949,9.3891,9.3778,9.3721,9.3677,9.3492,9.3242,9.2955,9.2579,9.247,9.2619,9.2444,9.2208,9.1836,9.1704,9.0961,9.0414,9.0324,9.0016,8.9644,8.905,8.8158,8.7527,8.749,8.7118,8.6635,8.6412,8.6301,8.6264,8.6301,8.6226,8.5966,8.5483,8.5016,8.4614,8.4243,8.3923,8.3541,8.3335,8.334,8.327,8.3474,8.3624,8.315,11.6034,11.5099,11.3714,11.2906,11.2599,11.1983,11.1626,11.1511,11.1511,11.1511,11.1511,11.1472,11.1021,11.0329,10.9444,10.8636,10.7867,10.7175,10.6751,10.6395,10.6395,10.6395,10.6395,10.6395,10.6395,10.6395,10.6395,10.6395,10.6395,10.6395,10.6318,10.6213,10.5713,10.5069,10.4876,10.4251,10.3405,10.2828,10.252,10.2125,10.1741,10.1356,10.0904,10.0481,10.0221,9.9865,9.9442,9.9173,9.9211,9.8904,9.8519,9.7442,9.6749,9.6442,9.6288,9.6288,9.6288,9.6288,9.6288,9.6288,9.6288,9.6288,9.6288,9.6279,9.6279,9.6155,9.5892,9.5555,9.5001,9.4718,9.4693,9.4578,9.4565,9.4539,9.4474,9.4365,9.4048,9.3798,9.3482,9.3114,9.3189,9.333,9.3336,9.3088,9.3035,9.2944,9.2689,9.2279,9.1817,9.1364,9.0945,9.0239,8.9384,8.8864,8.8344,8.749,8.6858,8.723,8.7155,8.7044,8.6969,8.6969,8.6858,8.6524,8.6071,8.5537,8.5113,8.477,8.4379,8.4111,8.4354,8.4582,8.4594,8.4666,8.4393,11.6034,11.5264,11.4907,11.3984,11.2791,11.2511,11.2099,11.1549,11.1511,11.1511,11.1511,11.1511,11.1329,11.1175,11.0329,10.9483,10.8636,10.7752,10.6944,10.6472,10.6433,10.6395,10.6472,10.6549,10.6433,10.6433,10.6433,10.6433,10.6395,10.6395,10.6395,10.6318,10.5597,10.5146,10.502,10.4482,10.3982,10.3558,10.3097,10.2674,10.2327,10.1866,10.1317,10.1096,10.1058,10.1404,10.152,10.1164,10.1366,10.1019,9.9788,9.8365,9.7403,9.6788,9.6519,9.6442,9.6403,9.6288,9.6288,9.6288,9.6288,9.6288,9.6288,9.6288,9.6279,9.6279,9.6079,9.604,9.5576,9.5318,9.5177,9.488,9.4781,9.4743,9.4693,9.4407,9.4132,9.3949,9.3777,9.3466,9.3295,9.3552,9.3769,9.3695,9.3804,9.3723,9.3649,9.3282,9.314,9.2707,9.2189,9.1492,9.0699,8.983,8.9161,8.7712,8.7118,8.7638,8.7973,8.7675,8.7601,8.7824,8.7638,8.7239,8.6897,8.6422,8.6036,8.5713,8.5605,8.5433,8.5714,8.5933,8.5869,8.566,8.5363]}]]